[[{"header":{"parameterUnit":"m.s-1","parameterCategory":1,"la1":30.6,"la2":29.2853,"lo1":-89.7004,"lo2":-87.6739,"dx":0.0162,"dy":0.0183,"nx":112,"ny":82,"refTime":"2023-01-10T06:00:00:Z","depth":0,"parameterNumber":2,"parameterNumberName":"U-component_of_WINDS"},"data":[0.0,0.0,0.0,0.0,0.0,0.0,0.0,0.0,0.0,0.0,0.0,0.0,0.0,0.0,0.0,0.0,0.0,0.0,0.0,0.0,0.0,0.0,0.0,0.0,0.0,0.0,0.0,0.0,0.0,0.0,0.0,0.0,0.0,0.0,0.0,0.0,0.0,0.0,0.0,0.0,0.0,0.0,0.0,0.0,0.0,0.0,0.0,0.0,0.0,0.0,0.0,0.0,0.0,0.0,0.0,0.0,0.0,0.0,0.0,0.0,0.0,0.0,0.0,0.0,0.0,0.0,0.0,0.0,0.0,0.0,0.0,0.0,0.0,0.0,0.0,0.0,0.0,0.0,0.0,0.0,0.0,0.0,0.0,0.0,0.0,0.0,0.0,0.0,0.0,0.0,0.0,6.1898,6.2968,6.3809,6.4496,6.3006,6.0943,5.8421,0.0,0.0,0.0,0.0,0.0,0.0,0.0,0.0,0.0,0.0,0.0,0.0,0.0,0.0,0.0,0.0,0.0,0.0,0.0,0.0,0.0,0.0,0.0,0.0,0.0,0.0,0.0,0.0,0.0,0.0,0.0,0.0,0.0,0.0,0.0,0.0,0.0,0.0,0.0,0.0,0.0,0.0,0.0,0.0,0.0,0.0,0.0,0.0,0.0,0.0,0.0,0.0,0.0,0.0,0.0,0.0,0.0,0.0,0.0,0.0,0.0,0.0,0.0,0.0,0.0,0.0,0.0,0.0,0.0,0.0,0.0,0.0,0.0,0.0,0.0,0.0,0.0,0.0,0.0,0.0,0.0,0.0,0.0,0.0,0.0,0.0,0.0,0.0,0.0,0.0,0.0,0.0,0.0,0.0,0.0,0.0,0.0,0.0,0.0,0.0,0.0,0.0,0.0,0.0,5.9682,6.4344,6.5605,6.6178,6.633,6.4764,6.2701,6.0179,0.0,0.0,0.0,0.0,0.0,0.0,0.0,0.0,0.0,0.0,0.0,0.0,0.0,0.0,0.0,0.0,0.0,0.0,0.0,0.0,0.0,0.0,0.0,0.0,0.0,0.0,0.0,0.0,0.0,0.0,0.0,0.0,0.0,0.0,0.0,0.0,0.0,0.0,0.0,0.0,0.0,0.0,0.0,0.0,0.0,0.0,0.0,0.0,0.0,0.0,0.0,0.0,0.0,0.0,0.0,0.0,0.0,0.0,0.0,0.0,0.0,0.0,0.0,0.0,0.0,0.0,0.0,0.0,0.0,0.0,0.0,0.0,0.0,0.0,0.0,0.0,0.0,0.0,0.0,0.0,0.0,0.0,0.0,0.0,0.0,0.0,0.0,0.0,0.0,0.0,0.0,0.0,0.0,0.0,0.0,0.0,0.0,0.0,0.0,0.0,0.0,0.0,0.0,6.0408,6.3045,6.5796,6.6865,6.7362,6.7362,6.5796,6.3579,6.0599,5.7275,0.0,0.0,0.0,0.0,0.0,0.0,0.0,0.0,0.0,0.0,0.0,0.0,0.0,0.0,0.0,0.0,0.0,0.0,0.0,0.0,0.0,0.0,0.0,0.0,0.0,0.0,0.0,0.0,0.0,0.0,0.0,0.0,0.0,0.0,0.0,0.0,0.0,0.0,0.0,0.0,0.0,0.0,0.0,0.0,0.0,0.0,0.0,0.0,0.0,0.0,0.0,0.0,0.0,0.0,0.0,0.0,0.0,0.0,0.0,0.0,0.0,0.0,0.0,0.0,0.0,0.0,0.0,0.0,0.0,0.0,0.0,0.0,0.0,0.0,0.0,0.0,0.0,0.0,0.0,0.0,0.0,0.0,0.0,0.0,0.0,0.0,0.0,0.0,0.0,0.0,0.0,0.0,0.0,0.0,0.0,0.0,0.0,0.0,0.0,0.0,0.0,0.0,6.3885,6.6101,6.7171,6.7821,6.8203,6.8203,6.6827,6.4458,6.0905,5.8498,0.0,0.0,0.0,0.0,0.0,0.0,0.0,0.0,0.0,0.0,0.0,0.0,0.0,0.0,0.0,0.0,0.0,0.0,0.0,0.0,0.0,0.0,0.0,0.0,0.0,0.0,0.0,0.0,0.0,0.0,0.0,0.0,0.0,0.0,0.0,0.0,0.0,0.0,0.0,0.0,0.0,0.0,0.0,0.0,0.0,0.0,0.0,0.0,0.0,0.0,0.0,0.0,0.0,0.0,0.0,0.0,0.0,0.0,0.0,0.0,0.0,0.0,0.0,0.0,0.0,0.0,0.0,0.0,0.0,0.0,0.0,0.0,0.0,0.0,0.0,0.0,0.0,0.0,0.0,0.0,0.0,0.0,0.0,0.0,0.0,0.0,0.0,0.0,0.0,0.0,0.0,0.0,0.0,0.0,0.0,0.0,0.0,0.0,0.0,0.0,0.0,0.0,6.4076,6.7247,6.8852,6.9082,6.912,6.912,6.8241,6.5948,6.1784,5.9911,0.0,0.0,0.0,0.0,0.0,0.0,0.0,0.0,0.0,0.0,0.0,0.0,0.0,0.0,0.0,0.0,0.0,0.0,0.0,0.0,0.0,0.0,0.0,0.0,0.0,0.0,0.0,0.0,0.0,0.0,0.0,0.0,0.0,0.0,0.0,0.0,0.0,0.0,0.0,0.0,0.0,0.0,0.0,0.0,0.0,0.0,0.0,0.0,0.0,0.0,0.0,0.0,0.0,0.0,0.0,0.0,0.0,0.0,0.0,0.0,0.0,0.0,0.0,0.0,0.0,0.0,0.0,0.0,0.0,0.0,0.0,0.0,0.0,0.0,0.0,0.0,0.0,0.0,0.0,0.0,0.0,0.0,0.0,0.0,0.0,0.0,0.0,0.0,0.0,0.0,0.0,0.0,0.0,0.0,0.0,0.0,0.0,0.0,0.0,0.0,0.0,0.0,6.4499,6.7476,0.0,7.031,7.0731,7.0157,6.9812,6.7591,6.2787,0.0,0.0,0.0,0.0,0.0,0.0,0.0,0.0,0.0,0.0,0.0,0.0,0.0,0.0,0.0,0.0,0.0,0.0,0.0,0.0,0.0,0.0,0.0,0.0,0.0,0.0,0.0,0.0,0.0,0.0,0.0,0.0,0.0,0.0,0.0,0.0,0.0,0.0,0.0,0.0,0.0,0.0,0.0,0.0,0.0,0.0,0.0,0.0,0.0,0.0,0.0,0.0,0.0,0.0,0.0,0.0,0.0,0.0,0.0,0.0,0.0,0.0,0.0,0.0,0.0,0.0,0.0,0.0,0.0,0.0,0.0,0.0,0.0,0.0,0.0,0.0,0.0,0.0,0.0,0.0,0.0,0.0,0.0,0.0,0.0,0.0,0.0,0.0,0.0,0.0,0.0,0.0,0.0,0.0,0.0,0.0,0.0,0.0,0.0,0.0,0.0,0.0,6.2448,6.581,6.8752,0.0,7.1666,7.205,7.1168,7.1091,6.9029,6.4078,0.0,0.0,0.0,0.0,0.0,0.0,0.0,0.0,0.0,0.0,0.0,0.0,0.0,0.0,0.0,0.0,0.0,0.0,0.0,0.0,0.0,0.0,0.0,0.0,0.0,0.0,0.0,0.0,0.0,0.0,0.0,0.0,0.0,0.0,0.0,0.0,0.0,0.0,0.0,0.0,0.0,0.0,0.0,0.0,0.0,0.0,0.0,0.0,0.0,0.0,0.0,0.0,0.0,0.0,0.0,0.0,0.0,0.0,0.0,0.0,0.0,0.0,0.0,0.0,0.0,0.0,0.0,0.0,0.0,0.0,0.0,0.0,0.0,0.0,0.0,0.0,0.0,0.0,0.0,0.0,0.0,0.0,0.0,0.0,0.0,0.0,0.0,0.0,0.0,0.0,0.0,0.0,0.0,0.0,0.0,0.0,0.0,0.0,0.0,0.0,0.0,0.0,6.4266,6.8091,7.1321,7.3008,7.32,7.2893,7.2088,7.2011,7.0179,0.0,0.0,0.0,0.0,0.0,0.0,0.0,0.0,0.0,0.0,0.0,0.0,0.0,0.0,0.0,0.0,0.0,0.0,0.0,0.0,0.0,0.0,0.0,0.0,0.0,0.0,0.0,0.0,0.0,0.0,0.0,0.0,0.0,0.0,0.0,0.0,0.0,0.0,0.0,0.0,0.0,0.0,0.0,0.0,0.0,0.0,0.0,0.0,0.0,0.0,0.0,0.0,0.0,0.0,0.0,0.0,0.0,0.0,0.0,0.0,0.0,0.0,0.0,0.0,0.0,0.0,0.0,0.0,0.0,0.0,0.0,0.0,0.0,0.0,0.0,0.0,0.0,0.0,0.0,0.0,0.0,0.0,0.0,0.0,0.0,0.0,0.0,0.0,0.0,0.0,0.0,0.0,0.0,0.0,0.0,0.0,0.0,0.0,0.0,0.0,0.0,0.0,0.0,6.5214,6.8559,7.1497,7.3226,7.3918,7.4187,7.3918,7.3918,7.2352,6.8618,0.0,0.0,0.0,0.0,0.0,0.0,0.0,0.0,0.0,0.0,0.0,0.0,0.0,0.0,0.0,0.0,0.0,0.0,0.0,0.0,0.0,0.0,0.0,0.0,0.0,0.0,0.0,0.0,0.0,0.0,0.0,0.0,0.0,0.0,0.0,0.0,0.0,0.0,0.0,0.0,0.0,0.0,0.0,0.0,0.0,0.0,0.0,0.0,0.0,0.0,0.0,0.0,0.0,0.0,0.0,0.0,0.0,0.0,0.0,0.0,0.0,0.0,0.0,0.0,0.0,0.0,0.0,0.0,0.0,0.0,0.0,0.0,0.0,0.0,0.0,0.0,0.0,0.0,0.0,0.0,0.0,0.0,0.0,0.0,0.0,0.0,0.0,0.0,0.0,0.0,0.0,0.0,0.0,0.0,0.0,0.0,0.0,0.0,0.0,0.0,0.0,0.0,6.7138,7.0266,7.2937,7.4361,7.4938,7.5091,7.4745,7.4707,7.3524,7.0777,0.0,0.0,0.0,0.0,0.0,0.0,0.0,0.0,0.0,0.0,0.0,0.0,0.0,0.0,0.0,0.0,0.0,0.0,0.0,0.0,0.0,0.0,0.0,0.0,0.0,0.0,0.0,0.0,0.0,0.0,0.0,0.0,0.0,0.0,0.0,0.0,0.0,0.0,0.0,0.0,0.0,0.0,0.0,0.0,0.0,0.0,0.0,0.0,0.0,0.0,0.0,0.0,0.0,0.0,0.0,0.0,0.0,0.0,0.0,0.0,0.0,0.0,0.0,0.0,0.0,0.0,0.0,0.0,0.0,0.0,0.0,0.0,0.0,0.0,0.0,0.0,0.0,0.0,0.0,0.0,0.0,0.0,0.0,0.0,0.0,0.0,0.0,0.0,0.0,0.0,0.0,0.0,0.0,0.0,0.0,0.0,0.0,0.0,0.0,0.0,0.0,0.0,6.9563,7.2668,7.5053,7.6015,7.6053,7.5668,7.4899,7.4822,7.4139,7.2582,0.0,0.0,0.0,0.0,0.0,0.0,0.0,0.0,0.0,0.0,0.0,0.0,0.0,0.0,0.0,0.0,0.0,0.0,0.0,0.0,0.0,0.0,0.0,0.0,0.0,0.0,0.0,0.0,0.0,0.0,0.0,0.0,0.0,0.0,0.0,0.0,0.0,0.0,0.0,0.0,0.0,0.0,0.0,0.0,0.0,0.0,0.0,0.0,0.0,0.0,0.0,0.0,0.0,0.0,0.0,0.0,0.0,0.0,0.0,0.0,5.4298,0.0,0.0,0.0,0.0,0.0,0.0,0.0,0.0,0.0,0.0,0.0,0.0,0.0,0.0,0.0,0.0,0.0,0.0,0.0,0.0,0.0,0.0,0.0,0.0,0.0,0.0,0.0,0.0,0.0,0.0,0.0,0.0,0.0,0.0,0.0,0.0,0.0,0.0,0.0,0.0,0.0,7.0266,7.2986,7.5284,7.6861,7.6399,7.5938,7.5745,7.5707,7.5553,7.5178,0.0,0.0,0.0,0.0,0.0,0.0,0.0,0.0,0.0,0.0,0.0,0.0,0.0,0.0,0.0,0.0,0.0,0.0,0.0,0.0,0.0,0.0,0.0,0.0,0.0,0.0,0.0,0.0,0.0,0.0,0.0,0.0,0.0,0.0,0.0,0.0,0.0,0.0,0.0,0.0,0.0,0.0,0.0,0.0,0.0,0.0,0.0,0.0,0.0,0.0,0.0,0.0,0.0,0.0,0.0,0.0,0.0,0.0,0.0,0.0,0.0,5.5631,0.0,0.0,0.0,0.0,0.0,0.0,0.0,0.0,0.0,0.0,0.0,0.0,0.0,0.0,0.0,0.0,0.0,0.0,0.0,0.0,0.0,0.0,0.0,0.0,0.0,0.0,0.0,0.0,0.0,0.0,0.0,0.0,0.0,0.0,0.0,0.0,0.0,0.0,0.0,0.0,7.1332,7.4063,7.6438,7.7746,7.7476,7.7361,7.7784,7.7438,7.7053,7.663,7.4947,0.0,0.0,0.0,0.0,0.0,0.0,0.0,0.0,0.0,0.0,0.0,0.0,0.0,0.0,0.0,0.0,0.0,0.0,0.0,0.0,0.0,0.0,0.0,0.0,0.0,0.0,0.0,0.0,0.0,0.0,0.0,0.0,0.0,0.0,0.0,0.0,0.0,0.0,0.0,0.0,0.0,0.0,0.0,0.0,0.0,0.0,0.0,0.0,0.0,0.0,0.0,0.0,0.0,6.3079,6.3935,6.4791,6.5531,6.6591,6.7647,6.2785,6.0887,6.1041,0.0,0.0,0.0,0.0,0.0,0.0,0.0,0.0,0.0,0.0,0.0,0.0,0.0,0.0,0.0,0.0,0.0,0.0,0.0,0.0,0.0,0.0,0.0,0.0,0.0,6.7744,6.6436,0.0,0.0,0.0,0.0,0.0,0.0,0.0,0.0,0.0,0.0,0.0,0.0,7.2822,7.5707,7.7977,7.8669,7.8707,7.9015,7.9746,7.9131,7.8438,7.7784,7.7053,7.5899,0.0,0.0,0.0,0.0,0.0,0.0,0.0,0.0,0.0,0.0,0.0,0.0,0.0,0.0,0.0,0.0,0.0,0.0,0.0,0.0,0.0,0.0,0.0,0.0,0.0,0.0,0.0,0.0,0.0,0.0,0.0,0.0,4.6747,4.7641,0.0,0.0,0.0,0.0,0.0,0.0,0.0,0.0,0.0,0.0,0.0,0.0,0.0,6.1387,6.229,6.3344,6.4632,6.6076,6.6967,6.7826,6.8691,6.8762,6.8574,6.8072,6.8027,0.0,6.5592,6.3663,0.0,0.0,0.0,0.0,0.0,0.0,0.0,0.0,0.0,0.0,0.0,0.0,0.0,0.0,0.0,0.0,0.0,0.0,0.0,0.0,0.0,0.0,6.8975,7.0129,7.0398,7.0206,0.0,6.7128,6.532,6.5705,0.0,0.0,0.0,0.0,0.0,0.0,0.0,0.0,7.5399,7.7823,7.9515,7.9631,7.9631,7.9669,7.9785,7.9708,7.9592,7.9477,7.9361,7.8554,7.6861,7.5245,0.0,0.0,0.0,0.0,0.0,0.0,0.0,0.0,0.0,0.0,0.0,0.0,0.0,0.0,0.0,0.0,0.0,0.0,0.0,0.0,0.0,0.0,0.0,0.0,0.0,0.0,0.0,0.0,0.0,4.5503,4.7356,4.9702,5.0451,5.0879,0.0,0.0,0.0,0.0,0.0,0.0,0.0,0.0,0.0,6.2696,6.3945,6.4999,6.5858,6.6717,6.7537,6.8279,6.9137,7.027,7.1597,7.1597,7.1363,7.1011,7.0894,7.0375,6.9444,6.7179,6.5706,6.4778,0.0,0.0,0.0,0.0,6.3025,6.3381,6.3729,6.4113,0.0,0.0,0.0,0.0,0.0,0.0,0.0,0.0,0.0,0.0,0.0,0.0,0.0,7.3129,7.3399,7.3437,7.4861,7.3283,7.1091,0.0,6.8936,6.8975,6.9821,0.0,0.0,0.0,0.0,0.0,7.663,7.8515,8.0362,8.1785,8.1939,8.2131,8.2631,8.2208,8.1516,8.0592,8.0092,7.9246,7.8015,7.6322,7.4514,0.0,0.0,0.0,0.0,0.0,0.0,0.0,0.0,0.0,0.0,0.0,0.0,0.0,0.0,0.0,0.0,0.0,0.0,0.0,0.0,0.0,0.0,0.0,0.0,0.0,0.0,0.0,0.0,4.832,5.0137,5.2844,5.4294,5.5034,0.0,0.0,0.0,0.0,0.0,0.0,6.1993,6.3282,6.4882,6.6834,6.7498,6.82,6.9098,6.9723,7.0074,7.0074,7.0933,7.1948,7.2963,7.3432,7.351,7.3275,7.2846,7.2651,7.2417,6.9709,6.8583,6.8476,6.7735,6.7281,6.698,6.64,6.6446,6.6898,6.6805,6.7152,6.7595,6.7718,0.0,6.7898,6.7128,0.0,0.0,0.0,0.0,6.8359,7.0898,7.1283,7.1783,7.4938,7.5515,7.5861,7.7784,7.7361,7.5745,0.0,7.2014,7.2091,7.2745,0.0,0.0,0.0,0.0,7.7553,7.8169,7.9939,8.1747,8.3401,8.3785,8.4209,8.4863,8.4324,8.3324,8.1823,8.1131,8.0477,7.9823,7.7784,7.6438,7.6015,0.0,0.0,0.0,0.0,0.0,0.0,0.0,0.0,0.0,0.0,0.0,0.0,0.0,0.0,0.0,0.0,0.0,0.0,0.0,0.0,0.0,0.0,0.0,0.0,0.0,0.0,0.0,0.0,0.0,5.866,6.0934,0.0,0.0,0.0,0.0,6.2613,6.2774,6.3945,6.6366,6.6561,6.7771,7.0348,7.0465,7.0933,7.1792,7.1831,7.187,7.187,7.2729,7.2768,7.2099,7.3783,7.4095,7.3348,7.4056,7.4369,7.4173,7.1591,7.0465,7.0357,7.0318,6.9706,6.8875,6.895,6.9021,6.9028,6.8808,6.8785,6.8873,6.9423,7.009,7.0552,6.9744,6.8975,0.0,0.0,7.0167,7.0167,7.2706,7.3899,7.4514,7.4707,7.6015,7.7207,7.7323,7.79,7.7861,0.0,7.5091,7.4514,7.4591,0.0,7.6361,7.7977,7.9708,8.0862,8.09,8.3093,8.4401,8.367,8.4324,8.4863,8.4901,8.4863,8.4439,8.3516,8.3439,8.3401,8.3362,8.0131,7.8746,7.9515,7.6245,0.0,0.0,0.0,0.0,0.0,0.0,0.0,0.0,0.0,0.0,0.0,0.0,0.0,0.0,0.0,0.0,0.0,0.0,0.0,0.0,0.0,0.0,0.0,0.0,0.0,0.0,0.0,0.0,5.9801,6.2173,0.0,6.4179,6.4687,6.5351,6.6209,6.7303,6.8357,6.9255,6.984,7.0816,7.2339,7.2378,7.2534,7.2846,7.3393,7.395,7.4513,7.5333,7.6189,7.6961,7.7586,7.7425,7.6594,7.6906,7.6672,7.6164,7.5813,7.463,7.3126,7.3672,7.3345,7.2548,7.2572,7.2548,7.2429,7.2244,7.2111,7.2014,7.211,7.236,7.2514,7.2245,7.2283,7.2591,7.3168,7.3129,7.3399,7.5438,7.5745,7.5938,7.7592,7.89,7.99,8.04,8.117,8.1439,8.0285,7.8938,7.8323,7.94,7.94,7.9669,8.0785,8.1016,8.1477,8.2554,8.3978,8.5209,8.594,8.6824,8.7363,8.7363,8.7363,8.6978,8.6094,8.5016,8.4439,8.4439,8.1708,8.0054,7.9823,7.8592,7.7169,0.0,0.0,0.0,0.0,0.0,0.0,0.0,0.0,0.0,0.0,0.0,0.0,0.0,0.0,0.0,0.0,0.0,0.0,0.0,0.0,0.0,0.0,0.0,0.0,0.0,0.0,6.0871,6.1517,6.3695,6.5585,6.6756,6.7615,6.8474,6.9333,7.0777,7.1597,7.1597,7.2417,7.3275,7.4134,7.4457,7.4735,7.5009,7.5897,7.6449,7.6739,7.7595,7.8293,7.8874,7.9733,7.9806,7.9287,7.9287,7.9287,7.9248,7.9287,7.8272,7.6672,7.6672,7.6125,7.5345,7.5032,7.4889,7.4743,7.4203,7.4073,7.417,7.4291,7.4553,7.4822,7.5091,7.5361,7.563,7.5899,7.5784,7.5976,7.7707,7.7707,7.7784,7.9785,8.09,8.1631,8.217,8.2978,8.3439,8.2862,8.1593,8.09,8.1747,8.1439,8.1554,8.2978,8.2708,8.3093,8.5055,8.5824,8.6594,8.7709,8.8363,8.8709,8.8709,8.921,8.9056,8.7902,8.7055,8.6478,8.6209,8.4016,8.2785,8.2785,8.167,7.9977,7.7669,0.0,0.0,0.0,0.0,0.0,0.0,0.0,0.0,0.0,0.0,0.0,0.0,0.0,0.0,0.0,0.0,0.0,0.0,0.0,0.0,0.0,0.0,0.0,6.1547,6.1634,6.2407,6.4253,6.5936,6.7615,6.9333,7.0309,7.1128,7.2026,7.2885,7.3393,7.3432,7.4251,7.511,7.5969,7.6775,7.7605,7.8428,7.9309,7.9332,7.8512,7.9405,7.8975,7.7525,7.9984,8.1122,8.1083,8.1083,8.1981,8.3308,8.1708,8.1005,8.0771,7.9131,7.796,7.7062,7.6242,7.593,7.5755,7.4559,7.4577,7.5229,7.5898,7.6659,7.7506,7.8276,7.8006,7.7545,7.8353,7.7977,7.7784,7.9438,7.99,8.0092,8.0977,8.1785,8.2362,8.2362,8.3093,8.3708,8.3708,8.3054,8.2247,8.14,8.1285,8.2131,8.4632,8.5016,0.0,8.8363,8.8709,8.8748,8.8786,8.8786,8.8825,8.8825,9.0325,9.0556,8.8863,8.9479,8.9556,8.8748,8.7055,8.6863,8.8517,8.5247,8.1939,7.8669,0.0,0.0,0.0,0.0,0.0,0.0,0.0,0.0,0.0,0.0,0.0,0.0,0.0,0.0,0.0,0.0,0.0,0.0,0.0,0.0,0.0,0.0,6.4046,6.2753,6.4704,6.67,6.7849,6.8942,7.0309,7.2065,7.2456,7.2963,7.3822,7.4642,7.5384,7.6008,7.6888,7.7747,7.863,7.8869,7.9083,7.9335,8.0192,8.0856,8.1247,8.2106,8.2601,8.2801,8.3504,8.3465,8.2801,8.2801,8.2371,8.1708,8.1864,8.12,8.0068,8.0224,7.9756,7.8975,7.8702,7.855,7.8369,7.8027,7.7852,7.779,7.7987,7.8194,7.8426,7.8657,7.9005,7.9392,7.9585,7.9846,8.0285,8.1323,8.1593,8.1823,8.2708,8.3555,8.4209,8.4209,8.5324,8.6363,8.6363,8.6671,8.6478,8.4978,8.5247,8.6132,8.744,8.7671,0.0,8.8594,8.921,8.9825,9.0441,9.1095,9.1441,9.1441,9.1864,9.1672,9.0594,9.0133,8.9825,8.9594,8.7325,8.5747,8.5016,8.3439,8.2516,0.0,0.0,0.0,0.0,0.0,0.0,0.0,0.0,0.0,0.0,0.0,0.0,0.0,0.0,0.0,0.0,0.0,0.0,0.0,0.0,0.0,0.0,6.4827,6.6405,6.578,6.7381,6.9098,7.0348,7.0933,7.2065,7.4134,7.4369,7.4876,7.6086,7.6605,7.7273,7.8161,7.8679,7.9356,8.0219,8.0609,8.0969,8.1328,8.2187,8.289,8.3398,8.3906,8.4412,8.4901,8.5233,8.5104,0.0,8.4597,8.4245,8.366,8.3465,8.2996,0.0,0.0,0.0,0.0,0.0,7.9611,7.952,7.9439,7.9228,7.9156,7.9812,8.0024,8.0179,8.0877,8.1398,8.1801,8.1708,8.198,8.2468,8.3202,8.3401,8.3708,8.4901,8.5593,8.6055,8.6401,8.7248,8.794,8.794,8.8632,0.0,8.7863,8.7825,8.8363,8.9556,8.944,8.9479,9.021,9.071,9.1171,9.171,9.2479,9.2979,9.2979,9.3672,0.0,0.0,0.0,9.171,9.1018,8.9556,0.0,0.0,0.0,0.0,0.0,0.0,0.0,0.0,7.7139,7.6532,0.0,0.0,0.0,0.0,0.0,0.0,0.0,0.0,0.0,0.0,0.0,0.0,0.0,0.0,0.0,0.0,6.7381,6.8825,6.9723,6.9996,7.0621,7.1987,7.2339,7.3354,7.5735,7.6131,7.6873,7.8429,7.8727,7.9239,8.008,0.0,0.0,0.0,0.0,8.2969,8.375,8.4609,8.5039,8.5039,8.5156,8.5195,8.5195,8.5917,8.621,8.6126,8.6204,8.6633,8.7141,8.5735,8.5618,8.593,8.2801,8.0966,8.0146,8.0341,8.0341,8.0257,8.0056,0.0,0.0,8.157,8.2025,8.2297,8.3774,8.4318,8.4359,8.415,8.4146,8.4352,8.5028,8.5203,8.5593,8.7171,8.7555,8.7748,8.8517,8.8748,8.8825,8.8825,8.9556,9.021,9.021,8.9594,8.9633,9.1133,9.0787,9.0902,9.2441,9.2556,9.2518,9.2633,0.0,0.0,9.3672,9.5018,9.5211,9.3672,9.421,9.3903,9.2402,9.2249,9.1095,8.8748,8.8594,8.7055,8.4016,8.3131,8.3516,8.4978,8.2324,8.1138,0.0,0.0,0.0,0.0,0.0,0.0,0.0,0.0,0.0,0.0,0.0,0.0,0.0,0.0,0.0,6.7342,6.9645,7.1558,7.2417,7.3705,7.4173,7.3158,7.429,7.5579,7.675,7.8137,7.9079,7.941,8.0743,8.1933,8.2811,8.285,8.3241,8.4101,8.4297,8.4492,8.4648,8.5508,8.5937,8.5976,0.0,0.0,8.6914,8.7069,8.6752,8.6151,8.6858,8.6858,8.6389,8.6741,8.701,8.7001,8.5657,8.4167,8.2957,8.4323,8.4401,8.3816,8.3763,8.3674,8.3546,8.387,8.3948,8.4026,8.4338,8.4908,0.0,8.5463,8.5678,8.6119,8.6953,8.7017,8.7171,8.8209,8.844,8.8479,8.8671,8.921,8.9671,8.9671,9.0941,9.2018,9.2018,9.1864,9.1864,9.221,9.2672,9.3095,9.3403,9.2903,9.2749,9.3403,9.3018,9.2979,9.3633,9.3403,9.3095,9.2749,9.2249,9.1787,9.1479,9.0787,8.9863,8.8709,8.8017,8.7325,8.6671,8.5786,8.5555,8.5786,8.2593,8.1823,0.0,0.0,0.0,0.0,0.0,0.0,0.0,0.0,0.0,0.0,0.0,6.3008,0.0,0.0,6.8708,7.0426,7.2143,7.3549,7.4447,7.6024,7.6497,7.4779,7.6497,7.7976,7.835,7.9968,8.1191,8.1628,8.2451,8.3315,8.4219,8.4258,8.4648,8.5508,8.5547,8.5742,8.6211,8.664,8.6836,8.6875,8.7695,8.8086,8.8086,8.8515,8.8476,8.8082,8.8512,8.8434,8.8082,8.8508,8.8186,8.7436,8.7888,8.6705,8.4831,8.5299,8.5182,8.4792,8.4792,8.4724,8.4727,8.5156,8.5312,8.539,8.582,8.6561,8.7214,8.7118,8.7447,8.7948,8.8261,8.8197,8.8248,8.9094,8.9286,8.9402,8.9863,9.0594,9.121,9.121,9.221,9.3095,9.3095,9.3441,9.3595,9.3172,9.3441,9.371,9.371,9.3364,9.3249,9.3672,9.3326,9.3249,9.3672,9.3326,9.2941,9.2518,9.2095,9.1633,9.121,9.0787,9.0171,8.9325,8.8863,8.8671,8.8671,8.7825,8.7825,8.8594,8.6055,8.4863,0.0,0.0,0.0,0.0,0.0,0.0,0.0,0.0,6.0796,6.3235,6.5026,6.6575,6.8054,6.9923,7.1792,7.351,7.4603,7.554,7.6438,7.7903,7.8383,7.7055,7.8702,8.0027,8.0207,8.1769,8.3109,8.3789,8.4179,8.4648,8.5351,8.539,8.5742,8.6445,8.6445,8.6797,8.75,8.7656,8.7734,8.7734,8.8554,8.8945,8.8984,8.9687,9.0,9.0,9.0195,9.0351,9.0508,9.0309,8.9403,8.8264,8.9333,8.8579,8.6744,8.5885,8.5456,8.5299,8.5299,8.5416,8.569,8.6392,8.6705,8.6978,8.7681,8.8383,8.8916,8.8763,8.899,8.931,8.9319,8.9107,8.9171,9.0171,9.0402,9.0633,9.1518,9.2249,9.271,9.271,9.3403,9.3903,9.371,9.4403,9.4749,9.4057,9.4095,9.421,9.421,9.4057,9.3941,9.3941,9.3787,9.371,9.371,9.3864,9.3672,9.3018,9.2826,9.2479,9.1979,9.1633,9.1133,9.0441,9.0248,9.0171,9.0171,8.9517,8.9863,9.1171,8.9825,8.8325,5.2344,5.4258,0.0,5.7265,5.8672,6.0505,0.0,0.0,6.4236,6.6092,6.7226,6.8162,6.9091,7.1299,7.3588,7.535,7.6912,7.8278,7.9131,8.0113,8.0626,8.0431,8.0696,8.1171,8.1913,8.3593,8.4648,8.4765,8.6172,8.7109,8.7187,8.7226,8.7265,8.7344,8.7344,8.7383,8.75,8.8203,8.8554,8.8594,8.9453,8.9844,8.9844,8.9961,9.0,9.0039,9.082,9.1601,9.2265,9.1484,9.1054,9.0741,8.9383,8.9125,8.9477,8.8579,8.7759,8.7095,8.7095,8.7603,8.8266,8.8383,8.893,8.9594,8.9672,8.9789,8.9867,8.9821,8.9586,8.9468,9.0241,9.0102,9.0171,9.1825,9.221,9.2441,9.3249,9.348,9.3557,9.3557,9.4249,9.4595,9.3826,9.4403,9.4941,9.4864,9.5518,9.6019,9.6019,9.5326,9.4826,9.4826,9.4172,9.371,9.371,9.4403,9.4826,9.4711,9.398,9.3864,9.4557,9.3133,9.2326,9.221,9.1441,9.1056,9.1056,9.0979,9.1018,9.121,9.1018,9.0402,5.7539,0.0,0.0,0.0,6.2148,6.3593,6.4174,6.5098,6.6149,6.7382,6.914,7.082,7.2186,7.4136,7.6124,0.0,7.9118,8.0207,8.1089,8.1948,8.2896,8.3899,8.4022,8.3984,8.3828,8.539,8.6406,8.6406,8.7109,8.75,8.75,8.75,8.75,8.75,8.7969,8.8203,8.8203,8.9023,8.9453,8.9453,9.0351,9.0742,9.0781,9.1289,9.125,9.0781,9.1133,9.1797,9.2617,9.2734,9.25,9.1992,9.1244,9.056,8.9906,8.9008,8.8774,8.8891,8.8891,8.9164,8.9477,8.9477,8.9711,8.9984,8.9984,9.0335,9.0765,9.0765,9.0858,9.1136,9.1859,9.1825,9.1863,9.2973,9.321,9.3287,9.3633,9.4095,9.4287,9.3787,9.4403,9.4864,9.4518,9.4749,9.5172,9.5672,9.5634,9.5518,9.5518,9.5211,9.4788,9.4287,9.3903,9.371,9.371,9.4018,9.4249,9.4249,9.3903,9.3864,9.421,9.3557,9.321,9.321,9.2826,9.2633,9.2633,9.2633,9.2633,9.2633,9.2633,9.2441,6.0781,0.0,0.0,6.3125,6.4844,6.6094,6.5234,6.6361,6.776,6.8398,7.039,7.2539,7.4297,7.6211,7.8125,7.98,8.0972,8.1943,8.2558,8.3633,8.4775,8.6054,8.6406,8.6211,8.5351,8.6406,8.7226,8.7461,8.7265,8.7265,8.75,8.7695,8.7812,8.7812,8.8633,8.9062,8.9062,8.9922,9.0351,9.0351,9.125,9.164,9.1679,9.2578,9.2617,9.2031,9.2031,9.2226,9.2617,9.3008,9.2812,9.2226,9.1992,9.1244,9.0281,8.9639,8.9672,8.9984,8.9984,9.014,9.0374,9.0374,9.0492,9.0687,9.0687,9.1116,9.1663,9.1936,9.2256,9.2713,9.3395,9.338,9.3424,9.408,9.4055,9.3946,9.4116,9.4622,9.4891,9.4208,9.4749,9.5288,9.5018,9.498,9.5134,9.5518,9.5249,9.5095,9.5326,9.5365,9.5134,9.448,9.4403,9.4403,9.4403,9.4403,9.4403,9.4403,9.4403,9.4403,9.4403,9.4172,9.4057,9.4057,9.3826,9.371,9.371,9.371,9.371,9.371,9.371,9.371,0.0,0.0,6.3164,6.4023,6.6211,6.789,6.7031,6.8125,6.9336,6.9375,7.0781,7.2539,7.4297,7.6719,7.9023,8.0703,8.2383,8.3515,8.3554,8.5022,8.6142,8.6171,8.6953,8.7109,0.0,8.6211,8.6601,8.7422,8.6719,8.6601,8.7461,8.8242,8.8672,8.8672,8.9492,8.9961,8.9961,9.082,9.125,9.1289,9.2148,9.2578,9.2578,9.3476,9.3867,9.3828,9.3828,9.3359,9.2539,9.1719,9.1367,9.125,9.039,9.0547,9.1249,9.1219,9.0687,8.9984,8.9984,9.057,9.1272,9.1272,9.178,9.2404,9.2404,9.2443,9.2639,9.3497,9.3582,9.3638,9.4535,9.456,9.4557,9.5451,9.5001,9.4544,9.5138,9.5245,9.5231,9.4975,9.5672,9.598,9.5134,9.498,9.4711,9.3903,9.448,9.5288,9.6134,9.6249,9.6249,9.6211,9.6211,9.6211,9.6211,9.6211,9.6211,9.6211,9.6211,9.6211,9.6211,9.5403,9.4941,9.4941,9.4134,9.371,9.371,9.371,9.371,9.371,9.371,9.371,6.2617,6.5078,6.7031,6.6211,6.7969,6.9492,6.8086,6.9062,7.0273,7.0273,7.164,7.3398,7.5156,7.7148,7.9062,8.0742,8.2461,8.3789,8.4375,8.5467,8.6403,8.6992,8.7304,0.0,0.0,0.0,0.0,8.664,8.6914,8.7422,8.8242,8.8554,8.8984,8.9531,9.039,9.0859,9.0859,9.1719,9.2148,9.2187,9.3047,9.3789,9.4336,9.4023,9.3594,9.3047,9.3047,9.2851,9.2617,9.289,9.3047,9.3008,9.2695,9.2422,9.2148,9.2145,9.1978,9.1731,9.1748,9.1936,9.217,9.2092,9.2678,9.3341,9.3341,9.3771,9.4278,9.4591,9.4614,9.4724,9.542,9.5541,9.5512,9.5649,9.5917,9.5965,9.5409,9.5777,9.5958,9.5129,9.5249,9.5326,9.5057,9.498,9.5095,9.5365,9.5172,9.5288,9.6172,9.6288,9.6288,9.6288,9.6288,9.6288,9.6288,9.6288,9.6288,9.6288,9.6288,9.6288,9.6288,9.6019,9.5865,9.5865,9.5557,9.5441,9.5441,9.5441,9.5441,9.5441,9.5441,9.5441,6.5156,6.7305,6.8789,6.8008,6.9297,7.043,6.9336,7.0156,7.1172,7.1172,7.2305,7.375,7.5156,7.7109,7.8945,8.0312,8.2265,8.3906,8.4765,8.539,8.6172,8.7344,8.7226,8.7031,0.0,0.0,0.0,8.6719,8.7187,8.7851,8.8672,8.9297,8.9883,9.0469,9.1328,9.1758,9.1758,9.2617,9.3203,9.3554,9.4101,9.4804,9.5625,9.4765,9.4062,9.3515,9.3203,9.289,9.2656,9.3203,9.3437,9.3476,9.3789,9.3554,9.3086,9.3398,9.3515,9.3468,9.3185,9.3048,9.3107,9.3341,9.381,9.4278,9.4278,9.4669,9.5176,9.5488,9.5567,9.5746,9.6419,9.6602,9.6577,9.6437,9.6832,9.6952,9.5833,9.6191,9.6444,9.5335,9.5319,9.5441,9.5441,9.5441,9.5634,9.6211,9.5826,9.5672,9.6249,9.6288,9.6288,9.6288,9.6288,9.6288,9.6288,9.6288,9.6288,9.6288,9.6288,9.6288,9.6288,9.6288,9.6288,9.6288,9.6288,9.6288,9.6288,9.6288,9.6288,9.6288,9.6288,9.6288,6.7578,6.8359,6.8633,6.9414,7.0273,7.0898,7.0859,7.1484,7.207,7.207,7.2734,7.3555,0.0,0.0,7.875,7.957,8.1914,8.3945,8.4765,8.4961,8.5664,0.0,0.0,0.0,0.0,0.0,0.0,8.7695,0.0,8.7969,8.8789,9.039,9.1328,9.1367,9.2226,9.2656,9.2656,9.3515,9.4414,9.5273,9.5273,9.5703,9.6523,9.5664,9.5234,9.5156,9.4297,9.3437,9.2656,9.2656,9.2695,9.2812,9.3633,9.3984,9.4062,9.4883,9.5195,9.5078,9.4297,9.4015,9.409,9.4832,9.5144,9.5183,9.5176,9.5215,9.541,9.623,9.6464,9.666,9.7479,9.7714,9.7753,9.7714,9.7714,9.7455,9.6408,9.6623,9.6703,9.5564,9.588,9.6288,9.6288,9.6288,9.6288,9.6288,9.6326,9.6365,9.6326,9.6288,9.6288,9.6288,9.6288,9.6288,9.6288,9.6326,9.6365,9.6365,9.6403,9.6403,9.6365,9.6365,9.6326,9.6288,9.6288,9.6288,9.6288,9.6288,9.6288,9.6288,9.6288,9.6288,6.875,7.0508,7.1914,7.1484,7.25,7.3437,7.2773,7.2812,7.2969,7.2969,7.3164,7.3555,0.0,0.0,0.0,7.957,8.2422,0.0,8.4883,8.6015,0.0,8.7461,0.0,8.7383,8.8008,8.8437,0.0,0.0,8.9375,8.9726,9.0586,9.1054,9.1601,9.2265,9.3125,9.3554,9.3554,9.4414,9.5312,9.6172,9.6172,9.6601,9.7383,9.6523,9.582,9.5156,9.4297,9.3789,9.3554,9.3554,9.3945,9.457,9.4765,9.4883,9.4883,9.5117,9.5195,9.5273,9.5703,9.5429,9.4877,9.5063,9.5524,9.6071,9.6071,9.6523,9.7089,9.7323,9.7362,9.7401,9.7636,9.8182,9.8494,9.7831,9.8182,9.8353,9.7252,9.7012,9.6858,9.6377,9.6266,9.6288,9.6288,9.6288,9.6288,9.6288,9.6826,9.698,9.6365,9.6288,9.6288,9.6288,9.6288,9.6288,9.6288,9.6865,9.7211,9.7211,9.7788,9.7865,9.7211,9.7211,9.6903,9.6326,9.6288,9.6288,9.6288,9.6288,9.6288,9.6288,9.6288,9.6288,7.1055,7.2461,7.3359,7.3633,7.414,7.4375,7.3515,7.3281,7.3203,7.2812,7.2734,0.0,7.3359,0.0,0.0,0.0,0.0,0.0,8.4297,8.5508,8.664,0.0,8.75,0.0,8.8633,8.9375,9.0039,0.0,9.0586,9.0781,9.1289,9.164,9.2265,9.3125,9.3633,9.4258,9.5039,9.5547,9.6172,9.7031,9.7031,9.707,9.7148,9.6719,9.6015,9.5156,0.0,9.4453,9.4453,9.4453,9.4765,9.5234,9.5625,9.5781,9.582,9.6172,9.6289,9.6367,9.6875,9.6719,9.6289,9.6248,9.6559,9.6988,9.6988,9.7329,9.7695,9.7721,9.7987,9.826,9.826,9.8924,9.9431,9.8963,9.947,9.9728,9.8341,9.8182,9.8041,9.7296,9.696,9.6942,9.7326,9.7403,9.7403,9.7403,9.7788,9.7904,9.7442,9.7403,9.7403,9.7403,9.7403,9.7403,9.7403,9.7827,9.8057,9.8057,9.8173,9.8019,9.7519,9.7173,9.6749,9.6326,9.6288,9.6288,9.6288,9.6288,9.6288,9.6288,9.6288,9.6288,7.3476,7.4062,7.3828,7.5351,7.5312,7.4648,7.3555,7.3281,7.3047,7.2187,0.0,7.1758,7.1953,7.3945,7.5664,7.6015,0.0,8.2617,8.3476,8.4531,8.582,8.7304,8.7578,8.7969,8.8789,9.0351,9.1367,9.1445,9.1484,9.1484,9.1484,9.2304,9.3242,9.4219,9.4258,9.5039,9.664,9.664,9.6992,9.7695,9.7695,9.7344,9.664,9.6562,9.6094,9.5351,0.0,0.0,9.5351,9.5351,9.5429,9.5625,9.6367,9.664,9.6758,9.7422,9.7695,9.7695,9.7695,9.7695,9.7695,9.7695,9.7695,9.7734,9.7851,9.7888,9.7915,9.8001,9.8572,9.9158,9.9158,9.9822,10.0485,10.0485,10.0993,10.111,9.9666,9.9617,9.9503,9.8292,9.7847,9.7904,9.8673,9.8788,9.8788,9.8788,9.8904,9.8981,9.8981,9.8865,9.8788,9.8788,9.8788,9.8788,9.8788,9.8904,9.8981,9.8981,9.8365,9.7904,9.7673,9.7019,9.6519,9.6288,9.6288,9.6288,9.6288,9.6288,9.6288,9.6288,9.6288,9.6288,7.3828,7.4492,7.4453,7.4765,7.5781,7.6133,7.3828,7.3281,0.0,0.0,7.0898,7.0351,7.1758,7.2969,7.4453,7.6601,7.9961,8.2617,8.3476,8.5586,8.7148,0.0,0.0,0.0,0.0,0.0,0.0,0.0,0.0,9.2383,9.2383,9.3203,9.4414,9.6015,9.6054,9.6523,9.7461,9.75,9.7578,9.7695,9.7695,9.7617,9.7461,9.6797,9.6406,9.6211,9.5508,0.0,9.6289,9.6289,9.6679,9.7265,9.7422,9.75,9.75,9.7656,9.7695,9.7695,9.7695,9.7695,9.7695,9.7695,9.7695,9.7812,9.8554,9.8789,9.8904,9.9647,9.9978,10.0095,10.0095,10.0681,10.1305,10.1305,10.1383,10.1383,10.111,10.0317,9.9468,9.9077,9.8734,9.8634,9.875,9.8788,9.8788,9.8788,9.9404,9.9865,9.9865,9.925,9.8788,9.8788,9.8788,9.8788,9.8788,9.9442,9.9865,9.9865,10.0404,10.0019,9.8634,9.8442,9.7711,9.6326,9.6288,9.6288,9.6288,9.6288,9.6288,9.6288,9.6288,9.6288,7.4453,7.5273,7.5508,7.6406,7.7265,7.7187,7.457,0.0,0.0,0.0,7.0312,6.9844,7.1094,7.2031,0.0,7.5508,7.8711,8.1406,8.2734,8.5156,0.0,8.7461,8.8594,8.9531,0.0,0.0,0.0,0.0,0.0,9.3281,9.3281,9.4531,9.5625,9.6484,9.6914,9.7304,9.7695,9.7695,9.7695,9.7695,9.7695,9.7461,9.707,9.7109,9.6914,9.6484,9.6484,0.0,9.7109,9.7109,9.7344,9.7695,9.7695,9.7695,9.7695,9.7695,9.7695,9.7773,9.8203,9.8398,9.8437,9.8906,9.875,9.8554,9.9414,9.9687,9.9765,10.0186,10.059,10.0993,10.0993,10.1618,10.2203,10.2203,10.1813,10.15,10.15,10.0403,9.96,9.994,9.9719,9.9596,10.0019,10.0096,10.0096,10.0096,10.0481,10.0712,10.0712,10.0404,10.0096,10.0096,10.0096,10.0096,10.0096,10.0481,10.0481,10.0096,9.9981,9.9442,9.8173,9.7711,9.7134,9.6326,9.6288,9.6288,9.6288,9.6288,9.6288,9.6288,9.6288,9.6288,7.4492,7.5469,7.5898,7.7109,7.7812,7.7422,7.4453,7.3398,7.2422,7.0312,6.9336,6.9062,6.9765,7.0742,7.2109,0.0,7.7031,7.9844,8.1758,8.4258,8.625,0.0,8.8867,0.0,9.0,0.0,0.0,0.0,0.0,0.0,9.4453,9.5742,9.6562,9.6758,9.7383,9.7695,9.7695,9.7695,9.7695,9.7695,9.7695,9.7383,9.6797,9.7422,9.7344,9.6797,9.7422,0.0,0.0,9.7695,9.7695,9.7695,9.7695,9.7695,9.7734,9.789,9.7969,9.8086,9.8984,9.9297,9.9414,10.0312,10.0,9.9453,10.0312,10.0586,10.0586,10.0781,10.1391,10.1905,10.1891,10.2281,10.2789,10.2789,10.2281,10.1813,10.1813,10.0901,10.0296,10.1006,10.069,10.0595,10.1173,10.1289,10.1289,10.1289,10.1289,10.1289,10.1289,10.1289,10.1289,10.1289,10.1289,10.1289,10.1289,10.1289,10.1019,10.0404,9.9558,9.8673,9.7827,9.698,9.648,9.6288,9.6288,9.6288,9.6288,9.6288,9.6288,9.6288,9.6288,9.6288,7.3008,7.4101,7.457,7.3945,7.5547,7.6211,7.2031,0.0,7.1172,6.793,6.7187,6.7148,6.7226,6.8594,0.0,0.0,0.0,7.8281,8.0781,8.3359,8.5351,8.6211,0.0,0.0,9.0,9.1562,0.0,0.0,0.0,0.0,9.625,9.6406,9.6836,9.7578,9.7656,9.7695,9.7695,9.7695,9.7695,9.7695,9.7695,9.7656,9.7578,9.7656,9.7656,9.7578,9.7656,0.0,0.0,9.7695,9.7695,9.7695,9.7695,9.7695,9.7812,9.8594,9.8867,9.9023,9.9883,10.0195,10.0312,10.1211,10.0898,10.0312,10.1211,10.1484,10.1601,10.2413,10.2718,10.2788,10.2679,10.2711,10.2789,10.2789,10.2711,10.2711,10.2711,10.2386,10.2223,10.1984,10.1708,10.1495,10.1327,10.1289,10.1289,10.1289,10.1289,10.1289,10.1289,10.1289,10.1289,10.1289,10.1289,10.1289,10.1289,10.1289,10.1289,10.1212,10.0404,9.9596,9.8711,9.7865,9.7057,9.6326,9.6288,9.6288,9.6288,9.6288,9.6288,9.6288,9.6288,9.6288,7.332,7.4726,7.543,7.5586,7.6055,7.5703,7.289,7.1328,6.9765,6.7383,6.6484,6.6289,6.6797,6.789,6.9726,0.0,0.0,0.0,8.0586,8.2812,8.4648,8.6015,8.8437,0.0,0.0,0.0,0.0,0.0,0.0,0.0,9.7187,9.7226,9.7383,9.7695,9.7695,9.7695,9.7695,9.7695,9.7695,9.7695,9.7695,9.7695,9.7695,9.7695,9.7695,9.7695,9.7695,0.0,0.0,9.7695,9.7695,9.7695,9.7695,9.8008,9.8515,9.8867,9.9336,9.9922,10.0781,10.1094,10.1211,10.2109,10.2109,10.1914,10.2304,10.2383,10.25,10.281,10.2914,10.2888,10.2913,10.2789,10.2789,10.2789,10.2789,10.2789,10.2789,10.2581,10.2396,10.2178,10.1902,10.16,10.1327,10.1289,10.1289,10.1289,10.1289,10.1289,10.1289,10.1289,10.1289,10.1289,10.1289,10.1289,10.1289,10.1289,10.0904,9.9865,9.9481,9.8711,9.7365,9.698,9.6634,9.6326,9.6288,9.6288,9.6288,9.6288,9.6557,9.7019,9.7019,9.7288,7.2656,7.4453,7.5547,7.5625,7.5586,7.4844,7.2344,7.0351,6.8476,6.6523,6.5625,6.539,6.6015,6.7265,6.914,0.0,0.0,7.664,7.9805,8.1953,8.3867,8.5625,0.0,9.0,0.0,9.2617,0.0,0.0,0.0,0.0,9.7656,9.7695,9.7695,9.7695,9.7695,9.7695,9.7695,9.7695,9.7695,9.7695,9.7695,9.7695,9.7695,9.7695,9.7695,9.7695,0.0,0.0,0.0,9.7969,9.8086,9.8086,9.8086,9.8633,9.9414,9.9687,10.0195,10.0781,10.1719,10.1992,10.2109,10.2695,10.289,10.289,10.289,10.289,10.289,10.289,10.2917,10.2881,10.2906,10.2789,10.2789,10.2789,10.2789,10.2789,10.2789,10.2694,10.2499,10.2285,10.1996,10.1688,10.1475,10.1404,10.1289,10.1289,10.1289,10.1289,10.1289,10.1289,10.1289,10.1289,10.1289,10.1289,10.1289,10.1289,10.0712,9.925,9.8942,9.8134,9.6711,9.6442,9.6288,9.6288,9.6519,9.6634,9.6673,9.6903,9.7326,9.7865,9.7865,9.8365,7.0273,7.2656,7.4219,7.2461,7.3359,7.3515,6.9219,6.8242,6.7461,6.4844,6.4336,6.4336,6.4336,6.6445,6.875,7.0469,7.289,0.0,7.8164,8.0703,8.2969,0.0,0.0,9.0,9.0,9.3164,0.0,0.0,0.0,0.0,9.7695,9.7695,9.7695,9.7695,9.7695,9.7695,9.7695,9.7695,9.7695,9.7695,9.7695,9.7695,9.7695,9.7695,9.7695,0.0,0.0,0.0,0.0,9.8633,9.8984,9.8984,9.8984,9.9531,10.039,10.1289,10.1601,10.1719,10.2617,10.289,10.289,10.289,10.289,10.289,10.289,10.289,10.289,10.289,10.2886,10.291,10.2796,10.2789,10.2789,10.2789,10.2789,10.2789,10.2789,10.2789,10.2685,10.2514,10.2285,10.2021,10.1718,10.1511,10.1289,10.1289,10.1289,10.1289,10.1289,10.1289,10.1289,10.1289,10.1289,10.1289,10.1289,10.1289,10.0981,10.0096,9.9288,9.8404,9.7519,9.6711,9.6288,9.6288,9.7096,9.748,9.748,9.8365,9.8788,9.8788,9.8788,9.925,6.9258,7.0898,7.1953,7.1992,7.1562,7.0586,6.8633,6.7265,6.5859,6.3828,6.3398,6.3594,6.418,6.5937,6.8242,7.1133,7.3281,0.0,0.0,0.0,0.0,8.4687,8.7929,9.0703,0.0,0.0,0.0,0.0,0.0,0.0,9.7695,9.7695,9.7695,9.7695,9.7695,9.7695,9.7695,9.7695,9.7695,9.7695,9.7695,9.7695,9.7695,9.7695,9.8047,0.0,0.0,0.0,0.0,9.9531,9.9531,9.9062,9.9648,10.039,10.1211,10.1484,10.1992,10.25,10.2812,10.289,10.289,10.289,10.289,10.289,10.289,10.289,10.289,10.289,10.2886,10.291,10.2913,10.2789,10.2789,10.2789,10.2789,10.2789,10.2789,10.2789,10.2685,10.2514,10.2396,10.2205,10.1787,10.16,10.1469,10.1289,10.1289,10.1289,10.1289,10.1289,10.1289,10.1289,10.1289,10.1289,10.1289,10.1289,10.0712,9.9288,9.8942,9.8173,9.6749,9.698,9.7134,9.7134,9.7942,9.8404,9.8404,9.8673,9.9096,9.9712,10.0289,10.0712,6.7422,6.8867,6.9805,7.0039,6.9297,6.8203,6.6992,0.0,0.0,0.0,0.0,6.3281,6.414,6.5976,6.8281,7.1055,7.3515,7.6055,0.0,0.0,0.0,8.6054,0.0,0.0,0.0,9.5,0.0,0.0,0.0,0.0,9.7265,9.7539,9.7578,9.7265,9.7539,9.7695,9.7695,9.7695,9.7695,9.7695,9.7695,9.7695,9.7695,9.8047,9.8476,0.0,0.0,0.0,0.0,10.0117,10.0195,10.0,10.0586,10.1289,10.2109,10.2109,10.2383,10.289,10.289,10.289,10.289,10.289,10.2695,10.2383,10.2383,10.2617,10.2812,10.25,10.2616,10.2917,10.2881,10.2906,10.2789,10.2789,10.2789,10.2789,10.2789,10.2789,10.2811,10.2581,10.2607,10.2381,10.1918,10.1826,10.1606,10.1289,10.1289,10.1289,10.1289,10.1289,10.1289,10.1289,10.1289,10.1289,10.1289,10.1289,10.0712,9.9365,9.9288,9.8673,9.7288,9.7711,9.798,9.798,9.8865,9.9288,9.9288,9.9596,9.9981,10.0596,10.1096,10.152,0.0,6.6601,6.7734,6.6992,6.6797,6.6367,6.4765,0.0,0.0,0.0,0.0,0.0,6.4297,6.6562,6.8867,7.0586,7.375,0.0,0.0,0.0,0.0,0.0,9.1015,0.0,9.3828,0.0,0.0,0.0,0.0,0.0,9.664,9.7304,9.7344,9.6601,9.7304,9.7695,9.7695,9.7695,9.7695,9.7695,9.7695,9.7734,9.7812,9.8633,9.9062,0.0,0.0,0.0,0.0,10.0508,10.0898,10.1601,10.1719,10.2187,10.289,10.289,10.289,10.289,10.289,10.289,10.2812,10.2695,10.2187,10.1484,10.1484,10.2109,10.2695,10.1914,10.2304,10.2889,10.2888,10.2906,10.2789,10.2789,10.2789,10.2789,10.2789,10.2789,10.2789,10.2789,10.2593,10.2413,10.2201,10.1891,10.16,10.1404,10.1289,10.1289,10.1289,10.1289,10.1289,10.1289,10.1289,10.1289,10.1289,10.1289,10.0981,10.0173,10.0096,9.9712,9.8827,9.8865,9.8904,9.8904,9.975,10.0173,10.0173,10.0904,10.1289,10.1289,10.1404,10.1789,6.2305,0.0,6.5312,6.5781,6.5898,6.5781,0.0,0.0,0.0,0.0,0.0,0.0,0.0,6.789,6.9961,7.2305,7.5039,7.7734,0.0,0.0,0.0,0.0,0.0,0.0,0.0,0.0,0.0,0.0,0.0,9.7617,9.7422,9.7617,9.7617,9.7422,9.7617,9.7695,9.7695,9.7695,9.7695,9.7695,9.7695,9.8047,9.8711,9.8906,9.9726,0.0,0.0,0.0,10.1289,10.1992,10.1992,10.1719,10.2304,10.2695,10.289,10.289,10.289,10.289,10.289,10.25,10.1797,10.1094,10.0781,10.0586,10.0586,10.1211,10.1992,10.25,10.2695,10.2889,10.2914,10.2888,10.2789,10.2789,10.2789,10.2789,10.2789,10.2789,10.2789,10.2789,10.2811,10.2683,10.2413,10.2201,10.1918,10.1594,10.14,10.1289,10.1289,10.1289,10.1289,10.1289,10.1289,10.1289,10.1289,10.1289,10.0981,10.0173,10.0096,9.9712,9.8827,9.9442,9.9788,9.9788,10.0596,10.1019,10.1019,10.1212,10.1289,10.1289,10.202,10.2404,6.1445,6.2383,6.3203,6.3672,6.4101,6.4414,6.4414,0.0,0.0,0.0,0.0,0.0,0.0,0.0,0.0,0.0,7.664,0.0,0.0,0.0,0.0,0.0,0.0,0.0,0.0,0.0,0.0,0.0,0.0,9.7344,9.6601,9.7265,9.7539,9.7148,9.75,9.7695,9.7695,9.7695,9.7695,9.7695,9.8125,9.8554,9.9023,9.9844,10.0703,0.0,0.0,0.0,10.2187,10.2304,10.2304,10.2187,10.2695,10.289,10.289,10.289,10.289,10.2812,10.2383,10.1719,10.0898,10.0,9.9961,10.0312,10.0312,10.0898,10.1719,10.2187,10.2617,10.289,10.2917,10.2894,10.2789,10.2789,10.2789,10.2789,10.2789,10.2789,10.2789,10.2789,10.2789,10.2685,10.2514,10.24,10.2217,10.1796,10.1611,10.14,10.1289,10.1289,10.1289,10.1289,10.1289,10.1289,10.1289,10.1289,10.1096,10.0712,10.0712,10.0404,9.9981,10.0404,10.0712,10.0712,10.1096,10.1289,10.1289,10.1289,10.152,10.1904,10.2404,10.2789,6.1445,6.1875,6.2109,6.2109,6.2656,6.3281,6.3711,0.0,0.0,0.0,0.0,0.0,0.0,0.0,0.0,0.0,0.0,0.0,0.0,0.0,0.0,0.0,0.0,0.0,0.0,0.0,0.0,0.0,0.0,9.6953,9.5664,9.6914,9.7383,9.6719,9.7344,9.7695,9.7695,9.7695,9.7773,9.789,9.8633,9.914,9.9453,10.0898,10.1719,10.1797,0.0,0.0,10.2812,10.2109,10.2187,10.289,10.289,10.289,10.289,10.2812,10.2695,10.2617,10.1601,10.0703,9.9961,9.9258,9.9492,10.0195,10.039,10.1015,10.1601,10.1797,10.2304,10.289,10.2882,10.29,10.2906,10.2789,10.2789,10.2789,10.2789,10.2789,10.2789,10.2789,10.2789,10.2685,10.262,10.2499,10.2303,10.193,10.1796,10.16,10.1365,10.1289,10.1289,10.1289,10.1289,10.1289,10.1289,10.1289,10.1289,10.1289,10.1289,10.1289,10.1289,10.1289,10.1289,10.1289,10.1289,10.1289,10.1289,10.1289,10.1712,10.2404,10.252,10.2981,6.1289,6.2773,6.3906,6.3906,6.3984,6.4687,0.0,0.0,0.0,0.0,0.0,0.0,0.0,0.0,0.0,0.0,0.0,0.0,0.0,0.0,0.0,0.0,0.0,0.0,0.0,0.0,0.0,0.0,0.0,9.6875,9.7304,9.7578,9.7656,9.7539,9.7656,9.7695,9.7695,9.7695,9.8086,9.8789,9.8945,9.9765,10.1211,10.1484,10.1992,10.2695,0.0,10.2812,10.289,10.2812,10.2812,10.289,10.289,10.289,10.2812,10.2109,10.1797,10.1601,9.9961,9.9297,9.9179,9.9023,9.9101,9.9453,10.1015,10.1484,10.1797,10.25,10.2812,10.289,10.289,10.291,10.2906,10.2789,10.2789,10.2789,10.2789,10.2789,10.2789,10.2789,10.2789,10.2781,10.2811,10.2608,10.2507,10.24,10.1996,10.1703,10.1594,10.14,10.1289,10.1289,10.1289,10.1289,10.1289,10.1289,10.1289,10.1289,10.1289,10.1289,10.1289,10.1289,10.1289,10.1289,10.1289,10.1289,10.1289,10.1289,10.1404,10.152,10.2289,10.2712,6.1367,6.2617,6.4062,6.5937,6.7109,0.0,0.0,0.0,0.0,0.0,0.0,0.0,0.0,0.0,0.0,0.0,0.0,0.0,0.0,0.0,0.0,0.0,0.0,0.0,0.0,0.0,0.0,0.0,0.0,0.0,9.7031,9.7461,9.7695,9.7695,9.7695,9.7695,9.7695,9.8164,9.8594,9.9023,9.9492,10.039,10.1601,10.2109,10.25,10.289,0.0,10.289,10.289,10.289,10.289,10.289,10.289,10.2617,10.2109,10.1211,10.0586,10.0117,9.9297,9.8984,9.8984,9.8984,9.9648,10.0586,10.1406,10.1914,10.2383,10.2812,10.289,10.289,10.289,10.2882,10.2894,10.2796,10.2789,10.2789,10.2789,10.2789,10.2789,10.2789,10.2789,10.2789,10.2789,10.2714,10.262,10.2499,10.2304,10.1982,10.1688,10.1606,10.1475,10.1289,10.1289,10.1289,10.1289,10.1289,10.1289,10.1289,10.1289,10.1289,10.1289,10.1289,10.1289,10.1289,10.1289,10.1289,10.1289,10.1289,10.152,10.202,10.2404,10.2597,6.1758,6.3086,6.4922,0.0,0.0,0.0,0.0,0.0,0.0,0.0,0.0,0.0,0.0,0.0,0.0,0.0,0.0,0.0,0.0,0.0,0.0,0.0,0.0,0.0,0.0,0.0,0.0,0.0,0.0,0.0,9.6758,9.7383,9.7695,9.7695,9.7695,9.7812,9.8008,9.8672,9.9101,9.9297,10.0195,10.1094,10.1914,10.2617,10.289,10.289,10.289,10.289,10.289,10.289,10.289,10.289,10.2695,10.2109,10.1211,10.0508,9.9765,9.8984,9.8984,9.8984,9.9062,9.9492,10.0508,10.1601,10.1797,10.2383,10.289,10.289,10.289,10.289,10.289,10.2886,10.291,10.2796,10.2789,10.2789,10.2789,10.2789,10.2789,10.2789,10.2789,10.2789,10.2789,10.2789,10.2685,10.2595,10.2499,10.2285,10.1913,10.1718,10.1606,10.1289,10.1289,10.1289,10.1289,10.1289,10.1289,10.1289,10.1289,10.1289,10.1289,10.1289,10.1289,10.1289,10.1289,10.1289,10.1289,10.1289,10.1597,10.2289,10.2289,10.2289,6.2656,6.5312,6.8086,0.0,0.0,0.0,0.0,0.0,0.0,0.0,0.0,0.0,0.0,0.0,0.0,0.0,0.0,0.0,0.0,0.0,0.0,0.0,0.0,0.0,0.0,0.0,0.0,0.0,0.0,0.0,9.7578,9.7656,9.7695,9.7695,9.7695,9.8086,9.8906,9.8984,9.9414,10.0195,10.1094,10.1992,10.2812,10.289,10.289,10.289,10.289,10.289,10.289,10.289,10.289,10.2812,10.1992,10.1211,10.039,10.0312,9.9765,9.8984,9.8984,9.8984,9.9258,10.0898,10.1484,10.1797,10.2617,10.289,10.289,10.289,10.289,10.289,10.289,10.2886,10.291,10.2913,10.2789,10.2789,10.2789,10.2789,10.2789,10.2789,10.2789,10.2789,10.2789,10.2789,10.2789,10.282,10.2608,10.2417,10.2094,10.1874,10.1606,10.1289,10.1289,10.1289,10.1289,10.1289,10.1289,10.1289,10.1289,10.1289,10.1289,10.1289,10.1289,10.1289,10.1289,10.1289,10.1289,10.1289,10.1289,10.1404,10.1404,10.1404,6.3555,6.6367,0.0,0.0,0.0,0.0,0.0,0.0,0.0,0.0,0.0,0.0,0.0,0.0,0.0,0.0,0.0,0.0,0.0,0.0,0.0,0.0,0.0,0.0,0.0,0.0,0.0,0.0,0.0,0.0,9.7656,9.7695,9.7695,9.7695,9.8242,9.8672,9.8984,10.0117,10.0781,10.1094,10.1406,10.2109,10.289,10.289,10.289,10.289,10.289,10.289,10.289,10.289,10.289,10.2812,10.1914,10.1094,10.0195,9.9687,9.9297,9.8984,9.8984,9.9726,10.0703,10.1406,10.1992,10.25,10.2812,10.289,10.289,10.289,10.289,10.289,10.289,10.2886,10.291,10.2913,10.2789,10.2789,10.2789,10.2789,10.2789,10.2789,10.2789,10.2789,10.2789,10.2789,10.2789,10.2789,10.2714,10.2608,10.24,10.2117,10.1797,10.1611,10.1402,10.1289,10.1289,10.1289,10.1289,10.1289,10.1289,10.1289,10.1289,10.1289,10.1289,10.1289,10.1289,10.1289,10.1289,10.1289,10.1289,10.1289,10.1289,10.1289,6.5586,6.8242,0.0,0.0,0.0,0.0,0.0,0.0,0.0,0.0,0.0,0.0,0.0,0.0,0.0,0.0,0.0,0.0,0.0,0.0,0.0,0.0,0.0,0.0,0.0,0.0,0.0,0.0,0.0,0.0,0.0,9.7695,9.7812,9.8086,9.8672,9.9258,9.9804,10.1015,10.1719,10.1992,10.1992,10.2304,10.289,10.289,10.289,10.289,10.289,10.289,10.289,10.289,10.2695,10.25,10.2109,10.1289,10.0195,9.9648,9.9414,9.9414,9.9414,10.039,10.1601,10.1914,10.2383,10.289,10.289,10.289,10.289,10.289,10.289,10.289,10.289,10.2888,10.2917,10.292,10.2906,10.2789,10.2789,10.2789,10.2789,10.2789,10.2789,10.2789,10.2789,10.2789,10.2789,10.2789,10.2984,10.2988,10.2577,10.2712,10.2708,10.1992,10.1595,10.1289,10.1289,10.1289,10.1289,10.1289,10.1289,10.1289,10.1289,10.1289,10.1289,10.1289,10.1289,10.1289,10.1289,10.1289,10.1289,10.1289,10.1289,10.1289,6.8945,0.0,0.0,0.0,0.0,0.0,0.0,0.0,0.0,0.0,0.0,0.0,0.0,0.0,0.0,0.0,0.0,0.0,0.0,0.0,0.0,0.0,0.0,0.0,0.0,0.0,0.0,0.0,0.0,0.0,0.0,9.7695,9.8086,9.8984,9.9023,9.9844,10.1601,10.1601,10.1992,10.289,10.289,10.289,10.289,10.289,10.289,10.289,10.289,10.289,10.289,10.289,10.2383,10.1719,10.2617,10.1797,10.0312,10.0312,10.0312,10.0312,10.0312,10.0898,10.1797,10.2617,10.289,10.289,10.289,10.289,10.289,10.289,10.289,10.289,10.289,10.289,10.2888,10.2888,10.2906,10.2906,10.2906,10.2906,10.2906,10.2789,10.2789,10.2789,10.2789,10.2789,10.2789,10.2789,10.3491,10.369,10.2577,10.3704,10.4101,10.2675,10.1789,10.1289,10.1289,10.1289,10.1289,10.1289,10.1289,10.1289,10.1289,10.1289,10.1289,10.1289,10.1289,10.1289,10.1289,10.1289,10.1289,10.1289,10.1289,10.1289,6.793,0.0,0.0,0.0,0.0,0.0,0.0,0.0,0.0,0.0,0.0,0.0,0.0,0.0,0.0,0.0,0.0,0.0,9.4961,0.0,0.0,0.0,0.0,0.0,0.0,0.0,0.0,0.0,0.0,0.0,0.0,9.7695,9.8086,9.8984,9.9609,10.0508,10.1601,10.2187,10.2617,10.289,10.289,10.289,10.289,10.289,10.289,10.289,10.289,10.289,10.289,10.289,10.2695,10.25,10.2812,10.1797,10.039,10.1015,10.0781,10.039,10.1015,10.1797,10.2617,10.2812,10.289,10.289,10.289,10.289,10.289,10.289,10.289,10.289,10.289,10.289,10.289,10.2886,10.2914,10.2905,10.2905,10.2905,10.29,10.2816,10.2803,10.2789,10.2789,10.2789,10.2984,10.3608,10.3882,10.3885,10.3411,10.3024,10.2591,10.2025,10.1595,10.1289,10.1289,10.1289,10.1289,10.1289,10.1289,10.1289,10.1289,10.1289,10.1289,10.1289,10.1289,10.1289,10.1289,10.1289,10.1289,10.1289,10.1289,10.1597,0.0,0.0,0.0,0.0,0.0,0.0,0.0,0.0,0.0,0.0,0.0,0.0,0.0,0.0,0.0,0.0,0.0,0.0,0.0,0.0,0.0,0.0,0.0,0.0,0.0,0.0,0.0,0.0,0.0,0.0,0.0,9.8047,9.8633,9.9492,10.039,10.1211,10.2109,10.2617,10.289,10.289,10.289,10.289,10.289,10.289,10.289,10.289,10.289,10.289,10.289,10.289,10.289,10.289,10.289,10.2304,10.1406,10.1484,10.1484,10.1406,10.1484,10.2187,10.289,10.289,10.289,10.289,10.289,10.289,10.289,10.289,10.289,10.289,10.289,10.289,10.289,10.289,10.2889,10.2884,10.2884,10.2884,10.2882,10.2792,10.281,10.2906,10.3296,10.3296,10.3608,10.4506,10.4311,10.4392,10.5204,10.349,10.2428,10.2725,10.2002,10.1364,10.1289,10.1289,10.1289,10.1289,10.1289,10.1289,10.1289,10.1289,10.1289,10.1289,10.1289,10.1289,10.1289,10.1289,10.1289,10.1289,10.1712,10.2097,0.0,0.0,0.0,0.0,0.0,0.0,0.0,0.0,0.0,0.0,0.0,0.0,0.0,0.0,0.0,9.2929,9.4219,0.0,0.0,0.0,0.0,0.0,0.0,0.0,0.0,0.0,0.0,0.0,0.0,0.0,0.0,9.8515,9.9414,10.0312,10.1094,10.1992,10.289,10.289,10.289,10.289,10.289,10.289,10.289,10.289,10.289,10.289,10.289,10.289,10.289,10.289,10.289,10.289,10.289,10.289,10.2695,10.2109,10.2187,10.2695,10.2109,10.2304,10.289,10.289,10.289,10.289,10.289,10.289,10.289,10.289,10.289,10.289,10.289,10.289,10.289,10.289,10.289,10.289,10.289,10.289,10.2889,10.2917,10.2894,10.3218,10.3999,10.4116,10.4389,10.5287,10.4702,10.4988,10.709,10.4526,10.2888,10.4092,10.2694,10.1606,10.1404,10.1289,10.1289,10.1289,10.1289,10.1289,10.1289,10.1289,10.1289,10.1289,10.1289,10.1289,10.1289,10.1289,10.1289,10.1289,10.2212,10.2597,0.0,0.0,0.0,0.0,0.0,0.0,0.0,0.0,0.0,0.0,0.0,0.0,0.0,9.2929,9.3281,9.5312,9.539,0.0,0.0,0.0,0.0,0.0,0.0,0.0,0.0,0.0,0.0,0.0,0.0,0.0,9.7695,9.8515,9.9414,10.0312,10.1094,10.1992,10.289,10.289,10.289,0.0,10.289,10.289,10.289,10.289,10.289,10.289,10.289,10.289,10.289,10.289,10.289,10.289,10.289,10.25,10.1992,10.3203,10.289,10.1992,10.3203,10.3281,10.289,10.289,10.289,10.289,10.289,10.289,10.289,10.289,10.289,10.289,10.289,10.289,10.289,10.289,10.289,10.289,10.289,10.289,10.2889,10.2917,10.2894,10.3218,10.3999,10.4116,10.4389,10.5287,10.5209,10.5318,10.5807,10.3882,10.2802,10.3705,10.2604,10.1703,10.16,10.14,10.1289,10.1289,10.1289,10.1289,10.1289,10.1289,10.1289,10.1289,10.1289,10.1289,10.1289,10.1289,10.1289,10.1289,10.2212,10.2981,0.0,0.0,0.0,0.0,0.0,0.0,0.0,0.0,0.0,0.0,0.0,0.0,9.3203,9.3945,9.4765,9.5703,9.6172,9.6719,0.0,0.0,0.0,0.0,0.0,0.0,0.0,0.0,0.0,0.0,0.0,9.789,9.8281,9.914,10.0,10.0898,10.1797,10.2383,10.289,10.289,10.289,10.289,10.289,10.289,10.289,10.289,10.289,10.289,10.289,10.289,10.289,10.289,10.289,10.289,10.3398,10.3515,10.3515,10.3984,10.3906,10.3515,10.3594,10.3281,10.289,10.289,10.289,10.289,10.289,10.289,10.289,10.289,10.289,10.289,10.289,10.289,10.289,10.289,10.289,10.289,10.289,10.289,10.2889,10.2905,10.2881,10.3218,10.3999,10.4389,10.4897,10.5287,10.5014,10.4897,10.5287,10.3797,10.292,10.3591,10.2606,10.1797,10.1696,10.1514,10.1289,10.1289,10.1289,10.1289,10.1289,10.1289,10.1289,10.1289,10.1289,10.1289,10.1289,10.1289,10.152,10.1904,10.2789,10.3712,0.0,0.0,0.0,0.0,0.0,0.0,0.0,0.0,0.0,0.0,9.3906,9.3789,9.3359,9.5039,9.6328,9.5742,9.6797,9.7734,0.0,0.0,0.0,0.0,0.0,0.0,0.0,0.0,0.0,0.0,0.0,9.8086,9.8945,9.9844,10.0703,10.1601,10.2383,10.289,10.289,10.289,10.289,10.289,10.289,10.289,10.289,10.289,10.289,10.289,10.289,10.289,10.289,10.289,10.3008,10.3203,10.3906,10.4687,10.539,10.4804,10.4883,10.5117,10.3789,10.3203,10.289,10.289,10.289,10.289,10.289,10.289,10.289,10.289,10.289,10.289,10.289,10.289,10.289,10.289,10.289,10.289,10.289,10.289,10.2888,10.2894,10.2991,10.3296,10.3999,10.4819,10.5287,10.5209,10.4702,10.4506,10.5092,10.3882,10.3309,10.3907,10.2907,10.2085,10.201,10.162,10.1327,10.1289,10.1404,10.152,10.1289,10.1404,10.152,10.1289,10.1289,10.1289,10.1289,10.152,10.1904,10.2597,10.3597,10.4482,0.0,0.0,0.0,0.0,0.0,0.0,0.0,0.0,0.0,0.0,9.3906,9.4336,9.5703,9.625,9.6679,9.7265,9.7539,9.7969,0.0,0.0,0.0,0.0,0.0,0.0,0.0,0.0,0.0,0.0,9.7695,9.8086,9.8945,9.9844,10.0703,10.1601,10.2383,10.289,10.289,10.289,10.289,10.289,10.289,10.289,10.289,10.289,10.289,10.289,10.289,10.289,10.289,10.289,10.3281,10.3984,10.4219,10.4687,10.5586,10.6211,10.5508,10.4414,10.5,10.4219,10.289,10.289,10.289,10.289,10.289,10.289,10.289,10.289,10.289,10.289,10.289,10.289,10.289,10.289,10.289,10.289,10.289,10.289,10.289,10.2889,10.3491,10.3999,10.4116,10.4819,10.5092,10.4389,10.4819,10.5014,10.4389,10.4116,10.4194,10.5114,10.3478,10.2596,10.3119,10.2204,10.15,10.1289,10.202,10.2097,10.1289,10.202,10.2097,10.1289,10.1289,10.1289,10.1289,10.2097,10.252,10.2597,10.4212,10.4982,0.0,0.0,0.0,0.0,0.0,0.0,0.0,0.0,9.1914,9.4179,9.4648,9.5,9.6289,9.6875,9.7304,9.7656,9.7695,9.8008,0.0,0.0,0.0,0.0,0.0,0.0,0.0,0.0,0.0,0.0,9.7695,9.8281,9.9648,10.0117,10.0898,10.2304,10.2695,10.289,10.289,10.289,10.289,10.289,10.289,10.289,10.289,10.289,10.289,10.289,10.289,10.289,10.289,10.3398,10.3906,10.4297,10.5195,10.5781,10.6211,10.6601,10.6211,10.5508,10.5,10.4297,10.3515,10.3086,10.289,10.289,10.289,10.289,10.289,10.289,10.289,10.289,10.289,10.289,10.289,10.289,10.289,10.289,10.289,10.289,10.289,10.289,10.3194,10.3402,10.3421,10.3687,10.3999,10.4116,10.3999,10.3999,10.4116,10.4116,10.4194,10.4584,10.379,10.3309,10.351,10.3002,10.2406,10.1796,10.2881,10.3202,10.2315,10.2482,10.2404,10.202,10.152,10.1289,10.1289,10.2212,10.2904,10.3405,10.4482,10.5405,0.0,0.0,7.9684,8.3821,8.5664,0.0,0.0,0.0,9.164,0.0,9.4883,9.5469,9.6328,9.7148,9.7695,9.7695,9.789,9.832,0.0,0.0,0.0,0.0,0.0,0.0,0.0,0.0,0.0,0.0,9.7695,9.8476,10.0195,10.0312,10.1094,10.2812,10.289,10.289,10.289,10.289,10.289,10.289,10.289,10.289,10.289,10.289,10.289,10.289,10.289,10.3008,10.3281,10.3906,10.4492,10.5,10.6211,10.6797,10.6992,10.6992,10.6797,10.6211,10.5,10.4219,10.3789,10.3086,10.289,10.289,10.289,10.289,10.289,10.289,10.289,10.289,10.289,10.289,10.289,10.289,10.289,10.289,10.289,10.289,10.289,10.289,10.2888,10.2914,10.2796,10.2789,10.2984,10.3687,10.3413,10.3413,10.3999,10.4311,10.4506,10.4702,10.4204,10.3893,10.4019,10.3686,10.3095,10.221,10.3702,10.4187,10.3011,10.2974,10.3021,10.2904,10.2097,10.1597,10.1597,10.2712,10.3597,10.4212,10.4982,10.579,0.0,7.4187,0.0,8.042,8.2383,0.0,0.0,0.0,9.0586,9.2383,9.4062,9.5469,9.6328,9.7148,9.7695,9.7695,9.8398,9.9258,10.0117,0.0,0.0,0.0,0.0,0.0,0.0,0.0,0.0,0.0,9.7695,9.8476,10.0195,10.0312,10.1094,10.2812,10.289,10.289,10.289,10.289,10.289,10.289,10.289,10.289,10.289,10.289,10.289,10.289,10.289,10.3398,10.4101,10.4219,10.5117,10.6601,10.6719,10.7187,10.789,10.789,10.6914,10.5508,10.5508,10.4414,10.3008,10.289,10.289,10.289,10.289,10.289,10.289,10.289,10.289,10.289,10.289,10.289,10.289,10.289,10.289,10.289,10.289,10.289,10.289,10.289,10.289,10.2886,10.292,10.2789,10.2789,10.2906,10.3491,10.3999,10.4116,10.4819,10.5599,10.6497,10.5092,10.4304,10.4877,10.4198,10.3217,10.2195,10.4386,10.4997,10.3088,10.3823,10.4121,10.3789,10.2981,10.252,10.252,10.4212,10.4982,10.5097,10.5905,10.6405,0.0,0.0,0.0,7.8372,8.1343,8.3984,8.6172,8.8335,9.0376,9.2218,9.384,9.5171,9.6135,9.6993,9.7613,9.7691,9.8359,9.9219,10.0195,0.0,0.0,0.0,0.0,0.0,0.0,0.0,0.0,0.0,0.0,9.8476,10.0195,10.0312,10.1094,10.2812,10.289,10.289,10.289,10.289,10.289,10.289,10.289,10.289,10.289,10.289,10.289,10.289,10.3515,10.3906,10.4297,10.539,10.6211,10.6797,10.7304,10.7695,10.8008,10.8008,10.7304,10.6211,10.5703,10.4687,10.3594,10.3086,10.289,10.289,10.289,10.289,10.289,10.289,10.289,10.289,10.289,10.289,10.289,10.289,10.289,10.289,10.289,10.289,10.289,10.289,10.289,10.289,10.2884,10.2822,10.2984,10.3608,10.3882,10.4311,10.4897,10.5717,10.638,10.6693,10.6107,10.5903,10.6099,10.5787,10.5219,10.4311,10.5997,10.6388,10.4919,10.4992,10.4894,10.4674,10.4405,10.3982,10.3405,10.4597,10.5097,10.5097,10.602,10.6405,6.7116,0.0,0.0,0.0,0.0,8.1901,8.4687,8.7401,8.9731,9.0975,9.2846,9.4384,9.4857,9.6048,9.7095,9.7577,9.8535,9.9492,10.0195,0.0,0.0,0.0,0.0,0.0,0.0,0.0,0.0,0.0,0.0,0.0,10.0195,10.0312,10.1094,10.2812,10.289,10.289,10.289,10.289,10.289,10.289,10.289,10.289,10.289,10.289,10.3086,10.3398,10.4297,10.4609,10.4687,10.6093,10.6914,10.7187,10.7812,10.8008,10.8008,10.8008,10.7304,10.6211,10.5703,10.4687,10.3711,10.3086,10.289,10.289,10.289,10.289,10.289,10.289,10.289,10.289,10.289,10.289,10.289,10.289,10.289,10.289,10.289,10.289,10.289,10.289,10.289,10.289,10.289,10.2917,10.3116,10.3999,10.4116,10.4506,10.5717,10.6302,10.681,10.7083,10.6888,10.6693,10.6693,10.6693,10.6302,10.5482,10.6896,10.7215,10.6115,10.5812,10.5596,10.5716,10.5293,10.4982,10.4713,10.529,10.5482,10.5597,10.6097,10.6405,0.0,0.0,0.0,0.0,0.0,0.0,8.2458,8.6076,8.8439,8.8493,9.1063,9.3177,9.2517,9.424,9.6125,9.7247,9.8916,10.0117,10.0195,0.0,0.0,0.0,0.0,0.0,0.0,0.0,0.0,0.0,9.7695,9.8476,10.0195,10.0312,10.1211,10.2812,10.289,10.289,10.289,10.289,10.289,10.289,10.289,10.289,10.289,10.289,10.3398,10.4219,10.5117,10.5508,10.5586,10.6406,10.7187,10.8008,10.8008,10.8008,10.8008,10.8008,10.6914,10.5508,10.5508,10.4414,10.289,10.289,10.289,10.289,10.289,10.289,10.289,10.289,10.289,10.289,10.289,10.289,10.289,10.289,10.289,10.289,10.289,10.289,10.289,10.289,10.289,10.289,10.289,10.2886,10.3217,10.4007,10.4194,10.478,10.6497,10.6693,10.7083,10.7903,10.72,10.6693,10.6693,10.6693,10.638,10.5482,10.7083,10.7504,10.6381,10.6115,10.62,10.6802,10.5716,10.5597,10.6405,10.6405,10.6405,10.6405,10.6405,10.6405,6.4909,0.0,0.0,0.0,0.0,0.0,0.0,8.423,8.7487,8.7719,9.0121,9.2212,9.2363,9.3766,9.5042,9.5516,9.7538,9.9072,9.9218,0.0,0.0,0.0,0.0,0.0,0.0,0.0,0.0,0.0,9.7695,9.8476,10.0195,10.1484,10.2383,10.289,10.289,10.289,10.289,10.289,10.289,10.289,10.289,10.289,10.289,10.289,10.3398,10.4219,10.5117,10.5781,10.6406,10.7304,10.7812,10.8008,10.8008,10.8008,10.8008,10.8008,10.6914,10.5508,10.5508,10.4804,10.3711,10.3086,10.3281,10.3711,10.3086,10.289,10.289,10.289,10.289,10.289,10.289,10.289,10.289,10.289,10.289,10.289,10.289,10.289,10.289,10.289,10.289,10.3086,10.3711,10.3783,10.4116,10.4905,10.5599,10.6185,10.6614,10.7317,10.7708,10.802,10.7786,10.759,10.759,10.759,10.7512,10.7317,10.7708,10.7816,10.7277,10.701,10.6782,10.6802,10.6295,10.6213,10.6405,10.6405,10.6405,10.6405,10.6405,10.6405,0.0,0.0,0.0,0.0,0.0,0.0,0.0,8.235,8.5782,0.0,8.9096,9.0671,9.0699,9.1909,9.2925,9.3195,9.5078,9.6943,9.816,0.0,0.0,0.0,0.0,0.0,0.0,9.7695,9.7695,9.7695,9.7695,9.8476,10.0195,10.1601,10.25,10.289,10.289,10.289,10.289,10.289,10.289,10.289,10.289,10.289,10.289,10.3281,10.3906,10.4804,10.5586,10.6484,10.7304,10.7383,10.7695,10.8008,10.8008,10.8008,10.8008,10.7617,10.6601,10.5508,10.5508,10.4883,10.4101,10.3594,10.3789,10.3984,10.3203,10.289,10.289,10.289,10.289,10.289,10.289,10.289,10.289,10.289,10.289,10.289,10.289,10.3203,10.3281,10.3008,10.3203,10.3593,10.4092,10.4398,10.4897,10.5802,10.6419,10.681,10.72,10.7708,10.802,10.802,10.802,10.802,10.802,10.802,10.802,10.802,10.802,10.7915,10.7808,10.7402,10.7107,10.7018,10.6601,10.6405,10.6405,10.6405,10.6405,10.6405,10.6405,10.6405,0.0,0.0,0.0,0.0,0.0,0.0,0.0,0.0,0.0,0.0,8.7436,8.843,8.8106,8.924,9.0334,9.0721,9.2045,9.404,9.6836,0.0,0.0,0.0,0.0,0.0,9.7773,9.7695,9.7695,9.7695,9.7773,9.8515,10.0117,10.1094,10.1992,10.2695,10.2812,10.289,10.289,10.289,10.289,10.289,10.289,10.289,10.289,10.3789,10.4687,10.5508,10.6406,10.7109,10.7812,10.6992,10.7187,10.7812,10.7812,10.7812,10.7812,10.6992,10.6211,10.5586,10.5586,10.5117,10.4297,10.4219,10.4219,10.3984,10.3203,10.289,10.289,10.289,10.289,10.289,10.289,10.289,10.289,10.289,10.289,10.289,10.3008,10.3711,10.3984,10.3281,10.3789,10.441,10.4514,10.512,10.579,10.6693,10.681,10.7083,10.7903,10.802,10.802,10.802,10.802,10.802,10.802,10.802,10.802,10.802,10.802,10.802,10.802,10.75,10.7222,10.7222,10.6709,10.6405,10.6405,10.6405,10.6405,10.6405,10.6405,10.6405,0.0,0.0,0.0,0.0,0.0,0.0,0.0,7.6801,7.9569,8.086,8.2841,8.4824,8.6339,8.729,8.8373,8.9947,8.989,9.0759,9.3953,0.0,0.0,0.0,0.0,0.0,9.7734,9.7695,9.7695,9.7695,9.8359,9.8906,9.9258,10.0703,10.1719,10.1797,10.25,10.289,10.289,10.289,10.289,10.289,10.289,10.289,10.289,10.3789,10.4687,10.5508,10.6406,10.6797,10.6914,10.6797,10.6797,10.6914,10.6211,10.6406,10.6914,10.6797,10.6601,10.6484,10.6484,10.5898,10.5117,10.4414,10.4219,10.3984,10.3203,10.289,10.289,10.289,10.289,10.289,10.289,10.289,10.289,10.289,10.289,10.3086,10.3789,10.4101,10.4414,10.4883,10.5117,10.5504,10.6115,10.631,10.67,10.759,10.7708,10.7786,10.802,10.802,10.802,10.802,10.802,10.802,10.802,10.802,10.802,10.802,10.802,10.802,10.802,10.75,10.7222,10.7222,10.6709,10.6405,10.6405,10.6405,10.6405,10.6405,10.6405,10.6405,0.0,0.0,0.0,6.71,0.0,0.0,0.0,0.0,7.6855,7.9107,8.0825,8.2351,8.3883,8.4803,8.5755,8.7136,8.7777,8.8686,9.0322,0.0,0.0,0.0,0.0,0.0,9.707,9.7109,9.7265,9.7656,9.7734,9.8125,9.8945,10.0195,10.1211,10.1601,10.2383,10.289,10.289,10.289,10.289,10.289,10.289,10.289,10.289,10.4297,10.5117,10.5508,10.6406,10.6719,10.6601,10.5781,10.5508,10.5508,10.5508,10.5703,10.6015,10.5586,10.5508,10.5508,10.5508,10.5195,10.4804,10.4297,10.4219,10.3984,10.3203,10.289,10.289,10.289,10.289,10.289,10.289,10.289,10.3008,10.3398,10.3515,10.3789,10.4687,10.5195,10.5586,10.6015,10.6406,10.6716,10.6688,10.7098,10.7512,10.7903,10.802,10.802,10.802,10.802,10.802,10.802,10.802,10.802,10.802,10.802,10.802,10.802,10.802,10.802,10.802,10.7589,10.7293,10.7009,10.6701,10.6488,10.6405,10.6405,10.6405,10.6405,10.6405,10.6405,0.0,0.0,0.0,0.0,0.0,6.9031,0.0,0.0,0.0,0.0,0.0,0.0,0.0,0.0,0.0,0.0,0.0,0.0,0.0,8.9062,0.0,0.0,0.0,0.0,0.0,9.6445,9.6992,9.7656,9.7422,9.7734,9.8945,9.9844,10.0586,10.1289,10.2383,10.289,10.289,10.289,10.289,10.289,10.289,10.3008,10.3203,10.4804,10.5508,10.5508,10.6406,10.6484,10.6093,10.4804,10.4101,10.3984,10.4687,10.5117,10.5195,10.4492,10.4297,10.4492,10.4492,10.4297,10.4219,10.4219,10.4101,10.3789,10.3086,10.289,10.289,10.289,10.289,10.289,10.289,10.3008,10.3281,10.3984,10.4297,10.4687,10.5508,10.6211,10.6719,10.6914,10.75,10.7811,10.7097,10.7496,10.802,10.802,10.802,10.802,10.802,10.802,10.802,10.802,10.802,10.802,10.802,10.802,10.802,10.802,10.802,10.802,10.802,10.7703,10.7321,10.6796,10.6774,10.6714,10.6405,10.6405,10.6405,10.6405,10.6405,10.6405,0.0,0.0,0.0,0.0,6.9362,0.0,0.0,0.0,0.0,0.0,0.0,0.0,0.0,0.0,0.0,0.0,0.0,0.0,8.1758,8.4062,0.0,0.0,0.0,0.0,0.0,9.625,9.7617,9.7695,9.9062,9.9609,9.9023,9.9844,10.0312,10.039,10.1992,10.289,10.289,10.289,10.289,10.289,10.289,10.3281,10.4101,10.5117,10.5508,10.5508,10.6406,10.5898,10.4492,10.4297,10.3711,10.3086,10.3203,10.3711,10.4297,10.4219,10.4687,10.539,10.539,10.4804,10.4219,10.4219,10.3711,10.3008,10.289,10.289,10.289,10.289,10.289,10.289,10.289,10.3515,10.4101,10.4219,10.4804,10.5586,10.6406,10.6601,10.6914,10.7695,10.789,10.8007,10.7917,10.7886,10.802,10.802,10.802,10.802,10.802,10.802,10.802,10.802,10.802,10.802,10.802,10.802,10.802,10.802,10.802,10.802,10.802,10.7714,10.7316,10.6804,10.6794,10.6677,10.6405,10.6405,10.6405,10.6405,10.6405,10.6405,0.0,0.0,0.0,0.0,0.0,0.0,0.0,0.0,6.9911,0.0,0.0,0.0,0.0,0.0,0.0,0.0,0.0,0.0,0.0,0.0,8.4375,0.0,0.0,0.0,0.0,0.0,0.0,0.0,9.8281,9.9179,9.8281,9.9531,10.0312,10.0312,10.1992,10.289,10.289,10.289,10.289,10.289,10.289,10.3398,10.4219,10.5117,10.5508,10.5508,10.5898,10.5312,10.4219,10.3711,10.3203,10.289,10.289,10.3086,10.3398,10.3398,10.3711,10.3984,10.3984,10.3789,10.3398,10.3398,10.3203,10.289,10.289,10.289,10.289,10.289,10.289,10.289,10.289,10.3203,10.3594,10.4101,10.4492,10.5,10.5781,10.6015,10.6093,10.6484,10.6484,10.6484,10.6482,10.7313,10.802,10.802,10.802,10.802,10.802,10.802,10.802,10.802,10.802,10.802,10.802,10.802,10.802,10.802,10.802,10.802,10.802,10.7883,10.7611,10.7009,10.7009,10.6794,10.6405,10.6405,10.6405,10.6405,10.6405,10.6405,7.7365,0.0,0.0,0.0,0.0,0.0,0.0,0.0,0.0,0.0,0.0,0.0,0.0,0.0,0.0,0.0,0.0,0.0,0.0,0.0,0.0,0.0,0.0,0.0,0.0,0.0,0.0,0.0,0.0,0.0,9.7734,9.914,10.0117,10.0312,10.1992,10.289,10.289,10.289,10.289,10.289,10.289,10.3515,10.4609,10.5,10.5312,10.5508,10.5195,10.4609,10.3789,10.3203,10.289,10.289,10.289,10.289,10.289,10.289,10.289,10.289,10.289,10.289,10.289,10.289,10.289,10.289,10.289,10.289,10.289,10.289,10.289,10.289,10.289,10.3086,10.3398,10.3984,10.4414,10.4687,10.539,10.5508,10.5508,10.5508,10.5508,10.5508,10.539,10.6706,10.7613,10.759,10.7786,10.802,10.802,10.802,10.802,10.802,10.802,10.802,10.802,10.802,10.802,10.802,10.802,10.802,10.802,10.802,10.7708,10.72,10.7183,10.6905,10.6405,10.6405,10.6405,10.6405,10.6405,10.6405,0.0,0.0,0.0,7.663,0.0,0.0,0.0,0.0,7.2723,0.0,0.0,0.0,0.0,0.0,0.0,0.0,0.0,0.0,0.0,0.0,0.0,0.0,0.0,0.0,0.0,0.0,0.0,0.0,0.0,0.0,9.7734,9.8554,9.9414,10.0312,10.1992,10.289,10.289,10.289,10.289,10.289,10.289,10.3789,10.539,10.4609,10.4687,10.5508,10.4609,10.3711,10.289,10.289,10.289,10.289,10.289,10.289,10.289,10.289,10.289,10.289,10.289,10.289,10.289,10.289,10.289,10.289,10.289,10.289,10.289,10.289,10.289,10.289,10.289,10.3515,10.4219,10.4219,10.4804,10.5508,10.5508,10.5508,10.5508,10.5508,10.5508,10.5508,10.5508,10.6211,10.6714,10.67,10.7512,10.802,10.802,10.802,10.802,10.802,10.802,10.802,10.802,10.802,10.802,10.802,10.802,10.802,10.802,10.802,10.7708,10.72,10.7183,10.6908,10.6405,10.6405,10.6405,10.6405,10.6405,10.6405,0.0,0.0,8.2238,7.8254,0.0,0.0,0.0,0.0,0.0,0.0,0.0,0.0,0.0,0.0,0.0,0.0,0.0,0.0,0.0,0.0,0.0,0.0,0.0,0.0,0.0,0.0,0.0,0.0,0.0,0.0,0.0,9.8242,9.9414,10.0312,10.1406,10.2304,10.289,10.289,10.289,10.289,10.3515,10.4414,10.5508,10.5195,10.5508,10.6211,10.539,10.4609,10.3789,10.3789,10.3398,10.289,10.289,10.289,10.289,10.289,10.289,10.289,10.289,10.289,10.289,10.289,10.289,10.289,10.289,10.289,10.289,10.289,10.289,10.289,10.289,10.3086,10.3281,10.3281,10.3594,10.3789,10.3789,10.3789,10.3789,10.3789,10.3789,10.3789,10.3789,10.4913,10.5985,10.661,10.7411,10.802,10.802,10.802,10.802,10.802,10.802,10.802,10.802,10.802,10.802,10.802,10.802,10.802,10.802,10.802,10.7786,10.7512,10.7299,10.6989,10.6697,10.6488,10.6405,10.6405,10.6405,10.6405,8.394,8.4289,0.0,8.1233,8.162,0.0,8.0072,0.0,0.0,0.0,0.0,0.0,0.0,0.0,0.0,0.0,0.0,0.0,0.0,0.0,0.0,0.0,0.0,0.0,0.0,0.0,0.0,0.0,0.0,0.0,0.0,0.0,9.8515,9.9336,10.0781,10.1914,10.2383,10.2695,10.289,10.289,10.3789,10.4687,10.5508,10.5195,10.5586,10.6601,10.5508,10.4687,10.4219,10.4219,10.3711,10.289,10.289,10.289,10.289,10.289,10.289,10.289,10.289,10.289,10.289,10.289,10.289,10.289,10.289,10.289,10.289,10.289,10.289,10.289,10.289,10.289,10.289,10.289,10.289,10.289,10.289,10.289,10.289,10.289,10.289,10.3008,10.3281,10.4515,10.5582,10.6219,10.7215,10.802,10.802,10.802,10.802,10.802,10.802,10.802,10.802,10.802,10.802,10.802,10.802,10.802,10.802,10.802,10.7708,10.7083,10.7209,10.6898,10.6301,10.6409,10.6405,10.6405,10.6405,10.6405]},{"header":{"parameterUnit":"m.s-1","parameterCategory":1,"la1":30.6,"la2":29.2853,"lo1":-89.7004,"lo2":-87.6739,"dx":0.0162,"dy":0.0183,"nx":112,"ny":82,"refTime":"2023-01-10T06:00:00:Z","depth":0,"parameterNumber":3,"parameterNumberName":"V-component_of_WINDS"},"data":[0.0,0.0,0.0,0.0,0.0,0.0,0.0,0.0,0.0,0.0,0.0,0.0,0.0,0.0,0.0,0.0,0.0,0.0,0.0,0.0,0.0,0.0,0.0,0.0,0.0,0.0,0.0,0.0,0.0,0.0,0.0,0.0,0.0,0.0,0.0,0.0,0.0,0.0,0.0,0.0,0.0,0.0,0.0,0.0,0.0,0.0,0.0,0.0,0.0,0.0,0.0,0.0,0.0,0.0,0.0,0.0,0.0,0.0,0.0,0.0,0.0,0.0,0.0,0.0,0.0,0.0,0.0,0.0,0.0,0.0,0.0,0.0,0.0,0.0,0.0,0.0,0.0,0.0,0.0,0.0,0.0,0.0,0.0,0.0,0.0,0.0,0.0,0.0,0.0,0.0,0.0,-1.3157,-1.3384,-1.3563,-1.3709,-1.3392,-1.2954,-1.2418,0.0,0.0,0.0,0.0,0.0,0.0,0.0,0.0,0.0,0.0,0.0,0.0,0.0,0.0,0.0,0.0,0.0,0.0,0.0,0.0,0.0,0.0,0.0,0.0,0.0,0.0,0.0,0.0,0.0,0.0,0.0,0.0,0.0,0.0,0.0,0.0,0.0,0.0,0.0,0.0,0.0,0.0,0.0,0.0,0.0,0.0,0.0,0.0,0.0,0.0,0.0,0.0,0.0,0.0,0.0,0.0,0.0,0.0,0.0,0.0,0.0,0.0,0.0,0.0,0.0,0.0,0.0,0.0,0.0,0.0,0.0,0.0,0.0,0.0,0.0,0.0,0.0,0.0,0.0,0.0,0.0,0.0,0.0,0.0,0.0,0.0,0.0,0.0,0.0,0.0,0.0,0.0,0.0,0.0,0.0,0.0,0.0,0.0,0.0,0.0,0.0,0.0,0.0,0.0,-1.2686,-1.3677,-1.3945,-1.4066,-1.4099,-1.3766,-1.3327,-1.2791,0.0,0.0,0.0,0.0,0.0,0.0,0.0,0.0,0.0,0.0,0.0,0.0,0.0,0.0,0.0,0.0,0.0,0.0,0.0,0.0,0.0,0.0,0.0,0.0,0.0,0.0,0.0,0.0,0.0,0.0,0.0,0.0,0.0,0.0,0.0,0.0,0.0,0.0,0.0,0.0,0.0,0.0,0.0,0.0,0.0,0.0,0.0,0.0,0.0,0.0,0.0,0.0,0.0,0.0,0.0,0.0,0.0,0.0,0.0,0.0,0.0,0.0,0.0,0.0,0.0,0.0,0.0,0.0,0.0,0.0,0.0,0.0,0.0,0.0,0.0,0.0,0.0,0.0,0.0,0.0,0.0,0.0,0.0,0.0,0.0,0.0,0.0,0.0,0.0,0.0,0.0,0.0,0.0,0.0,0.0,0.0,0.0,0.0,0.0,0.0,0.0,0.0,0.0,-1.284,-1.3401,-1.3985,-1.4213,-1.4318,-1.4318,-1.3985,-1.3514,-1.2881,-1.2174,0.0,0.0,0.0,0.0,0.0,0.0,0.0,0.0,0.0,0.0,0.0,0.0,0.0,0.0,0.0,0.0,0.0,0.0,0.0,0.0,0.0,0.0,0.0,0.0,0.0,0.0,0.0,0.0,0.0,0.0,0.0,0.0,0.0,0.0,0.0,0.0,0.0,0.0,0.0,0.0,0.0,0.0,0.0,0.0,0.0,0.0,0.0,0.0,0.0,0.0,0.0,0.0,0.0,0.0,0.0,0.0,0.0,0.0,0.0,0.0,0.0,0.0,0.0,0.0,0.0,0.0,0.0,0.0,0.0,0.0,0.0,0.0,0.0,0.0,0.0,0.0,0.0,0.0,0.0,0.0,0.0,0.0,0.0,0.0,0.0,0.0,0.0,0.0,0.0,0.0,0.0,0.0,0.0,0.0,0.0,0.0,0.0,0.0,0.0,0.0,0.0,0.0,-1.3579,-1.405,-1.4278,-1.4416,-1.4497,-1.4497,-1.4205,-1.3701,-1.2946,-1.2434,0.0,0.0,0.0,0.0,0.0,0.0,0.0,0.0,0.0,0.0,0.0,0.0,0.0,0.0,0.0,0.0,0.0,0.0,0.0,0.0,0.0,0.0,0.0,0.0,0.0,0.0,0.0,0.0,0.0,0.0,0.0,0.0,0.0,0.0,0.0,0.0,0.0,0.0,0.0,0.0,0.0,0.0,0.0,0.0,0.0,0.0,0.0,0.0,0.0,0.0,0.0,0.0,0.0,0.0,0.0,0.0,0.0,0.0,0.0,0.0,0.0,0.0,0.0,0.0,0.0,0.0,0.0,0.0,0.0,0.0,0.0,0.0,0.0,0.0,0.0,0.0,0.0,0.0,0.0,0.0,0.0,0.0,0.0,0.0,0.0,0.0,0.0,0.0,0.0,0.0,0.0,0.0,0.0,0.0,0.0,0.0,0.0,0.0,0.0,0.0,0.0,0.0,-1.362,-1.4294,-1.4635,-1.4684,-1.4692,-1.4692,-1.4505,-1.4018,-1.3133,-1.2735,0.0,0.0,0.0,0.0,0.0,0.0,0.0,0.0,0.0,0.0,0.0,0.0,0.0,0.0,0.0,0.0,0.0,0.0,0.0,0.0,0.0,0.0,0.0,0.0,0.0,0.0,0.0,0.0,0.0,0.0,0.0,0.0,0.0,0.0,0.0,0.0,0.0,0.0,0.0,0.0,0.0,0.0,0.0,0.0,0.0,0.0,0.0,0.0,0.0,0.0,0.0,0.0,0.0,0.0,0.0,0.0,0.0,0.0,0.0,0.0,0.0,0.0,0.0,0.0,0.0,0.0,0.0,0.0,0.0,0.0,0.0,0.0,0.0,0.0,0.0,0.0,0.0,0.0,0.0,0.0,0.0,0.0,0.0,0.0,0.0,0.0,0.0,0.0,0.0,0.0,0.0,0.0,0.0,0.0,0.0,0.0,0.0,0.0,0.0,0.0,0.0,0.0,-1.3122,-1.3575,0.0,-1.4145,-1.423,-1.4114,-1.4045,-1.3598,-1.2917,0.0,0.0,0.0,0.0,0.0,0.0,0.0,0.0,0.0,0.0,0.0,0.0,0.0,0.0,0.0,0.0,0.0,0.0,0.0,0.0,0.0,0.0,0.0,0.0,0.0,0.0,0.0,0.0,0.0,0.0,0.0,0.0,0.0,0.0,0.0,0.0,0.0,0.0,0.0,0.0,0.0,0.0,0.0,0.0,0.0,0.0,0.0,0.0,0.0,0.0,0.0,0.0,0.0,0.0,0.0,0.0,0.0,0.0,0.0,0.0,0.0,0.0,0.0,0.0,0.0,0.0,0.0,0.0,0.0,0.0,0.0,0.0,0.0,0.0,0.0,0.0,0.0,0.0,0.0,0.0,0.0,0.0,0.0,0.0,0.0,0.0,0.0,0.0,0.0,0.0,0.0,0.0,0.0,0.0,0.0,0.0,0.0,0.0,0.0,0.0,0.0,0.0,-1.2422,-1.2941,-1.3364,0.0,-1.3931,-1.4005,-1.3834,-1.3819,-1.3574,-1.3037,0.0,0.0,0.0,0.0,0.0,0.0,0.0,0.0,0.0,0.0,0.0,0.0,0.0,0.0,0.0,0.0,0.0,0.0,0.0,0.0,0.0,0.0,0.0,0.0,0.0,0.0,0.0,0.0,0.0,0.0,0.0,0.0,0.0,0.0,0.0,0.0,0.0,0.0,0.0,0.0,0.0,0.0,0.0,0.0,0.0,0.0,0.0,0.0,0.0,0.0,0.0,0.0,0.0,0.0,0.0,0.0,0.0,0.0,0.0,0.0,0.0,0.0,0.0,0.0,0.0,0.0,0.0,0.0,0.0,0.0,0.0,0.0,0.0,0.0,0.0,0.0,0.0,0.0,0.0,0.0,0.0,0.0,0.0,0.0,0.0,0.0,0.0,0.0,0.0,0.0,0.0,0.0,0.0,0.0,0.0,0.0,0.0,0.0,0.0,0.0,0.0,0.0,-1.2492,-1.3081,-1.3863,-1.4191,-1.4229,-1.4169,-1.4013,-1.3998,-1.38,0.0,0.0,0.0,0.0,0.0,0.0,0.0,0.0,0.0,0.0,0.0,0.0,0.0,0.0,0.0,0.0,0.0,0.0,0.0,0.0,0.0,0.0,0.0,0.0,0.0,0.0,0.0,0.0,0.0,0.0,0.0,0.0,0.0,0.0,0.0,0.0,0.0,0.0,0.0,0.0,0.0,0.0,0.0,0.0,0.0,0.0,0.0,0.0,0.0,0.0,0.0,0.0,0.0,0.0,0.0,0.0,0.0,0.0,0.0,0.0,0.0,0.0,0.0,0.0,0.0,0.0,0.0,0.0,0.0,0.0,0.0,0.0,0.0,0.0,0.0,0.0,0.0,0.0,0.0,0.0,0.0,0.0,0.0,0.0,0.0,0.0,0.0,0.0,0.0,0.0,0.0,0.0,0.0,0.0,0.0,0.0,0.0,0.0,0.0,0.0,0.0,0.0,0.0,-1.2529,-1.2707,-1.2929,-1.3241,-1.3367,-1.3415,-1.3367,-1.3367,-1.3246,-1.3028,0.0,0.0,0.0,0.0,0.0,0.0,0.0,0.0,0.0,0.0,0.0,0.0,0.0,0.0,0.0,0.0,0.0,0.0,0.0,0.0,0.0,0.0,0.0,0.0,0.0,0.0,0.0,0.0,0.0,0.0,0.0,0.0,0.0,0.0,0.0,0.0,0.0,0.0,0.0,0.0,0.0,0.0,0.0,0.0,0.0,0.0,0.0,0.0,0.0,0.0,0.0,0.0,0.0,0.0,0.0,0.0,0.0,0.0,0.0,0.0,0.0,0.0,0.0,0.0,0.0,0.0,0.0,0.0,0.0,0.0,0.0,0.0,0.0,0.0,0.0,0.0,0.0,0.0,0.0,0.0,0.0,0.0,0.0,0.0,0.0,0.0,0.0,0.0,0.0,0.0,0.0,0.0,0.0,0.0,0.0,0.0,0.0,0.0,0.0,0.0,0.0,0.0,-1.2443,-1.2706,-1.2861,-1.3112,-1.3214,-1.3241,-1.318,-1.3173,-1.313,-1.2958,0.0,0.0,0.0,0.0,0.0,0.0,0.0,0.0,0.0,0.0,0.0,0.0,0.0,0.0,0.0,0.0,0.0,0.0,0.0,0.0,0.0,0.0,0.0,0.0,0.0,0.0,0.0,0.0,0.0,0.0,0.0,0.0,0.0,0.0,0.0,0.0,0.0,0.0,0.0,0.0,0.0,0.0,0.0,0.0,0.0,0.0,0.0,0.0,0.0,0.0,0.0,0.0,0.0,0.0,0.0,0.0,0.0,0.0,0.0,0.0,0.0,0.0,0.0,0.0,0.0,0.0,0.0,0.0,0.0,0.0,0.0,0.0,0.0,0.0,0.0,0.0,0.0,0.0,0.0,0.0,0.0,0.0,0.0,0.0,0.0,0.0,0.0,0.0,0.0,0.0,0.0,0.0,0.0,0.0,0.0,0.0,0.0,0.0,0.0,0.0,0.0,0.0,-1.2422,-1.2813,-1.3234,-1.3403,-1.341,-1.3342,-1.3207,-1.3193,-1.324,-1.3289,0.0,0.0,0.0,0.0,0.0,0.0,0.0,0.0,0.0,0.0,0.0,0.0,0.0,0.0,0.0,0.0,0.0,0.0,0.0,0.0,0.0,0.0,0.0,0.0,0.0,0.0,0.0,0.0,0.0,0.0,0.0,0.0,0.0,0.0,0.0,0.0,0.0,0.0,0.0,0.0,0.0,0.0,0.0,0.0,0.0,0.0,0.0,0.0,0.0,0.0,0.0,0.0,0.0,0.0,0.0,0.0,0.0,0.0,0.0,0.0,-0.5827,0.0,0.0,0.0,0.0,0.0,0.0,0.0,0.0,0.0,0.0,0.0,0.0,0.0,0.0,0.0,0.0,0.0,0.0,0.0,0.0,0.0,0.0,0.0,0.0,0.0,0.0,0.0,0.0,0.0,0.0,0.0,0.0,0.0,0.0,0.0,0.0,0.0,0.0,0.0,0.0,0.0,-1.2706,-1.3034,-1.3275,-1.3553,-1.3471,-1.339,-1.3356,-1.3349,-1.3322,-1.3425,0.0,0.0,0.0,0.0,0.0,0.0,0.0,0.0,0.0,0.0,0.0,0.0,0.0,0.0,0.0,0.0,0.0,0.0,0.0,0.0,0.0,0.0,0.0,0.0,0.0,0.0,0.0,0.0,0.0,0.0,0.0,0.0,0.0,0.0,0.0,0.0,0.0,0.0,0.0,0.0,0.0,0.0,0.0,0.0,0.0,0.0,0.0,0.0,0.0,0.0,0.0,0.0,0.0,0.0,0.0,0.0,0.0,0.0,0.0,0.0,0.0,-0.5847,0.0,0.0,0.0,0.0,0.0,0.0,0.0,0.0,0.0,0.0,0.0,0.0,0.0,0.0,0.0,0.0,0.0,0.0,0.0,0.0,0.0,0.0,0.0,0.0,0.0,0.0,0.0,0.0,0.0,0.0,0.0,0.0,0.0,0.0,0.0,0.0,0.0,0.0,0.0,0.0,-1.2738,-1.3226,-1.3478,-1.3709,-1.3661,-1.3641,-1.3715,-1.3654,-1.3587,-1.3512,-1.3384,0.0,0.0,0.0,0.0,0.0,0.0,0.0,0.0,0.0,0.0,0.0,0.0,0.0,0.0,0.0,0.0,0.0,0.0,0.0,0.0,0.0,0.0,0.0,0.0,0.0,0.0,0.0,0.0,0.0,0.0,0.0,0.0,0.0,0.0,0.0,0.0,0.0,0.0,0.0,0.0,0.0,0.0,0.0,0.0,0.0,0.0,0.0,0.0,0.0,0.0,0.0,0.0,0.0,-0.5519,-0.5594,-0.5669,-0.5733,-0.5241,-0.4137,-0.4803,-0.4525,-0.4001,0.0,0.0,0.0,0.0,0.0,0.0,0.0,0.0,0.0,0.0,0.0,0.0,0.0,0.0,0.0,0.0,0.0,0.0,0.0,0.0,0.0,0.0,0.0,0.0,0.0,-1.1945,-1.1714,0.0,0.0,0.0,0.0,0.0,0.0,0.0,0.0,0.0,0.0,0.0,0.0,-1.284,-1.3349,-1.3749,-1.3871,-1.3878,-1.3933,-1.4061,-1.3953,-1.3831,-1.3715,-1.3587,-1.3383,0.0,0.0,0.0,0.0,0.0,0.0,0.0,0.0,0.0,0.0,0.0,0.0,0.0,0.0,0.0,0.0,0.0,0.0,0.0,0.0,0.0,0.0,0.0,0.0,0.0,0.0,0.0,0.0,0.0,0.0,0.0,0.0,-0.4398,-0.4482,0.0,0.0,0.0,0.0,0.0,0.0,0.0,0.0,0.0,0.0,0.0,0.0,0.0,-0.268,-0.2584,-0.2627,-0.2681,-0.2741,-0.2924,-0.2961,-0.2849,-0.3002,-0.2844,-0.2675,-0.2821,0.0,-0.4443,-0.4591,0.0,0.0,0.0,0.0,0.0,0.0,0.0,0.0,0.0,0.0,0.0,0.0,0.0,0.0,0.0,0.0,0.0,0.0,0.0,0.0,0.0,0.0,-1.2162,-1.2366,-1.2413,-1.2379,0.0,-1.1837,-1.1518,-1.1586,0.0,0.0,0.0,0.0,0.0,0.0,0.0,0.0,-1.3295,-1.3722,-1.4021,-1.4041,-1.4041,-1.4048,-1.4068,-1.4055,-1.4034,-1.4014,-1.3994,-1.3851,-1.3553,-1.3268,0.0,0.0,0.0,0.0,0.0,0.0,0.0,0.0,0.0,0.0,0.0,0.0,0.0,0.0,0.0,0.0,0.0,0.0,0.0,0.0,0.0,0.0,0.0,0.0,0.0,0.0,0.0,0.0,0.0,-0.5386,-0.4977,-0.4676,-0.4636,-0.4675,0.0,0.0,0.0,0.0,0.0,0.0,0.0,0.0,0.0,-0.2189,-0.2233,-0.227,-0.23,-0.233,-0.2358,-0.2384,-0.2414,-0.2454,-0.25,-0.25,-0.2492,-0.248,-0.2476,-0.2765,-0.3487,-0.4109,-0.5027,-0.6237,0.0,0.0,0.0,0.0,-0.7878,-0.8767,-0.8815,-0.9439,0.0,0.0,0.0,0.0,0.0,0.0,0.0,0.0,0.0,0.0,0.0,0.0,0.0,-1.2895,-1.2942,-1.2949,-1.32,-1.2922,-1.2535,0.0,-1.2155,-1.2162,-1.2311,0.0,0.0,0.0,0.0,0.0,-1.3512,-1.3844,-1.417,-1.4421,-1.4448,-1.4482,-1.457,-1.4496,-1.4373,-1.4211,-1.4122,-1.3973,-1.3756,-1.3458,-1.3139,0.0,0.0,0.0,0.0,0.0,0.0,0.0,0.0,0.0,0.0,0.0,0.0,0.0,0.0,0.0,0.0,0.0,0.0,0.0,0.0,0.0,0.0,0.0,0.0,0.0,0.0,0.0,0.0,-0.5505,-0.5049,-0.4159,-0.4154,-0.4211,0.0,0.0,0.0,0.0,0.0,0.0,-0.2165,-0.221,-0.2266,-0.2334,-0.2357,-0.2382,-0.2413,-0.2435,-0.2447,-0.2447,-0.2477,-0.2512,-0.2548,-0.2564,-0.2567,-0.2559,-0.2544,-0.2537,-0.2529,-0.3653,-0.4195,-0.4638,-0.5628,-0.633,-0.6597,-0.6101,-0.6837,-0.8066,-0.8499,-0.9438,-1.0706,-1.1636,0.0,-1.1972,-1.1837,0.0,0.0,0.0,0.0,-1.2054,-1.2501,-1.2569,-1.2657,-1.3214,-1.3315,-1.3376,-1.3715,-1.3641,-1.3356,0.0,-1.2698,-1.2712,-1.2827,0.0,0.0,0.0,0.0,-1.3675,-1.3783,-1.4095,-1.4414,-1.4706,-1.4774,-1.4848,-1.4964,-1.4869,-1.4692,-1.4428,-1.4306,-1.419,-1.4075,-1.3715,-1.3478,-1.3403,0.0,0.0,0.0,0.0,0.0,0.0,0.0,0.0,0.0,0.0,0.0,0.0,0.0,0.0,0.0,0.0,0.0,0.0,0.0,0.0,0.0,0.0,0.0,0.0,0.0,0.0,0.0,0.0,0.0,-0.2433,-0.2261,0.0,0.0,0.0,0.0,-0.2323,-0.2192,-0.2233,-0.2318,-0.2324,-0.2367,-0.2457,-0.2461,-0.2477,-0.2507,-0.2508,-0.251,-0.251,-0.254,-0.2541,-0.2675,-0.2577,-0.2587,-0.2722,-0.2586,-0.2597,-0.259,-0.2656,-0.3385,-0.4611,-0.4609,-0.5486,-0.648,-0.5124,-0.4675,-0.513,-0.6777,-0.7381,-0.7999,-1.1151,-1.2359,-1.244,-1.2298,-1.2162,0.0,0.0,-1.2372,-1.2372,-1.282,-1.303,-1.3139,-1.3173,-1.3403,-1.3614,-1.3634,-1.3736,-1.3729,0.0,-1.3241,-1.3139,-1.3152,0.0,-1.3464,-1.3749,-1.4055,-1.4258,-1.4265,-1.4652,-1.4882,-1.4753,-1.4869,-1.4964,-1.497,-1.4964,-1.4889,-1.4726,-1.4713,-1.4706,-1.4699,-1.4129,-1.3885,-1.4021,-1.3444,0.0,0.0,0.0,0.0,0.0,0.0,0.0,0.0,0.0,0.0,0.0,0.0,0.0,0.0,0.0,0.0,0.0,0.0,0.0,0.0,0.0,0.0,0.0,0.0,0.0,0.0,0.0,0.0,-0.3134,-0.2579,0.0,-0.2241,-0.2259,-0.2282,-0.2312,-0.235,-0.2387,-0.2418,-0.2439,-0.2473,-0.2526,-0.2527,-0.2533,-0.2544,-0.2563,-0.2259,-0.1626,-0.1644,-0.1829,-0.2183,-0.2201,-0.2366,-0.2675,-0.2686,-0.2677,-0.266,-0.2647,-0.2932,-0.3353,-0.3378,-0.3683,-0.3961,-0.3486,-0.3961,-0.5224,-0.6956,-0.8216,-0.9641,-1.1905,-1.2759,-1.2786,-1.2739,-1.2745,-1.28,-1.2901,-1.2895,-1.2942,-1.3302,-1.3356,-1.339,-1.3682,-1.3912,-1.4089,-1.4177,-1.4312,-1.436,-1.4156,-1.3919,-1.381,-1.4,-1.4,-1.4048,-1.4245,-1.4285,-1.4367,-1.4557,-1.4808,-1.5025,-1.5153,-1.5309,-1.5404,-1.5404,-1.5404,-1.5337,-1.5181,-1.4991,-1.4889,-1.4889,-1.4407,-1.4116,-1.4075,-1.3858,-1.3607,0.0,0.0,0.0,0.0,0.0,0.0,0.0,0.0,0.0,0.0,0.0,0.0,0.0,0.0,0.0,0.0,0.0,0.0,0.0,0.0,0.0,0.0,0.0,0.0,0.0,0.0,-0.359,-0.3224,-0.2642,-0.229,-0.2331,-0.2361,-0.2391,-0.2421,-0.2472,-0.25,-0.25,-0.2529,-0.2559,-0.2589,-0.2275,-0.212,-0.2128,-0.2485,-0.2336,-0.1674,-0.1862,-0.205,-0.2238,-0.2262,-0.2438,-0.2769,-0.2769,-0.2769,-0.2767,-0.2769,-0.2733,-0.2677,-0.2677,-0.2658,-0.2631,-0.262,-0.327,-0.4571,-0.6982,-0.8931,-1.0589,-1.2599,-1.3146,-1.3193,-1.3241,-1.3288,-1.3336,-1.3383,-1.3363,-1.3397,-1.3702,-1.3702,-1.3715,-1.4068,-1.4265,-1.4394,-1.4489,-1.4631,-1.4713,-1.4611,-1.4387,-1.4265,-1.4414,-1.436,-1.438,-1.4631,-1.4584,-1.4652,-1.4997,-1.5133,-1.5269,-1.5466,-1.5581,-1.5642,-1.5642,-1.573,-1.5703,-1.5499,-1.535,-1.5248,-1.5201,-1.4814,-1.4597,-1.4597,-1.4401,-1.4102,-1.3695,0.0,0.0,0.0,0.0,0.0,0.0,0.0,0.0,0.0,0.0,0.0,0.0,0.0,0.0,0.0,0.0,0.0,0.0,0.0,0.0,0.0,0.0,0.0,-0.4034,-0.3905,-0.3407,-0.2384,-0.2303,-0.2361,-0.2421,-0.2455,-0.2484,-0.2515,-0.2545,-0.2563,-0.2564,-0.2593,-0.2623,-0.2653,-0.1843,-0.1355,-0.1198,-0.2077,-0.2597,-0.257,-0.2773,-0.2758,-0.2877,-0.2968,-0.2833,-0.2831,-0.2831,-0.2863,-0.2909,-0.2853,-0.2829,-0.2821,-0.2763,-0.2722,-0.2691,-0.2662,-0.2652,-0.3142,-0.6523,-0.8992,-1.0908,-1.2701,-1.3345,-1.3492,-1.3626,-1.3579,-1.3499,-1.364,-1.3749,-1.3715,-1.4007,-1.4089,-1.4122,-1.4278,-1.4421,-1.4523,-1.4523,-1.4652,-1.476,-1.476,-1.4645,-1.4502,-1.4353,-1.4333,-1.4482,-1.4923,-1.4991,0.0,-1.5581,-1.5642,-1.5649,-1.5655,-1.5655,-1.5662,-1.5662,-1.5927,-1.5967,-1.5669,-1.5778,-1.5791,-1.5649,-1.535,-1.5316,-1.5608,-1.5031,-1.4448,-1.3871,0.0,0.0,0.0,0.0,0.0,0.0,0.0,0.0,0.0,0.0,0.0,0.0,0.0,0.0,0.0,0.0,0.0,0.0,0.0,0.0,0.0,0.0,-0.2656,-0.274,-0.2825,-0.2766,-0.2369,-0.2408,-0.2455,-0.2517,-0.253,-0.2548,-0.2578,-0.2607,-0.2632,-0.2654,-0.2013,-0.2036,-0.2574,-0.241,-0.1726,-0.0346,-0.07,-0.0706,-0.0709,-0.0717,-0.1622,-0.2891,-0.2916,-0.2915,-0.2891,-0.2891,-0.2876,-0.2853,-0.2859,-0.2836,-0.2796,-0.2801,-0.2785,-0.2758,-0.2748,-0.3601,-0.4793,-0.5798,-0.8183,-1.0933,-1.1481,-1.1686,-1.1721,-1.1755,-1.1807,-1.1865,-1.1894,-1.3004,-1.4156,-1.434,-1.4387,-1.4428,-1.4584,-1.4733,-1.4848,-1.4848,-1.5045,-1.5228,-1.5228,-1.5282,-1.5248,-1.4984,-1.5031,-1.5187,-1.5418,-1.5459,0.0,-1.5622,-1.573,-1.5839,-1.5947,-1.6062,-1.6123,-1.6123,-1.6198,-1.6164,-1.5974,-1.5893,-1.5839,-1.5798,-1.5398,-1.512,-1.4991,-1.4713,-1.455,0.0,0.0,0.0,0.0,0.0,0.0,0.0,0.0,0.0,0.0,0.0,0.0,0.0,0.0,0.0,0.0,0.0,0.0,0.0,0.0,0.0,0.0,-0.2689,-0.2319,-0.2297,-0.2353,-0.2413,-0.2457,-0.2477,-0.2517,-0.2589,-0.2597,-0.2615,-0.2657,-0.234,-0.2192,-0.2559,-0.2232,-0.1732,-0.1575,-0.1583,-0.106,-0.0,0.0,0.0,0.0,0.0,-0.0552,-0.1853,-0.2604,-0.2972,0.0,-0.2954,-0.2942,-0.2921,-0.2915,-0.2898,0.0,0.0,0.0,0.0,0.0,-0.3476,-0.4515,-0.5207,-0.6932,-0.8844,-0.9623,-0.9826,-0.9845,-0.993,-1.0175,-1.0406,-1.112,-1.2252,-1.3431,-1.4484,-1.4706,-1.476,-1.497,-1.5092,-1.5174,-1.5235,-1.5384,-1.5506,-1.5506,-1.5628,0.0,-1.5493,-1.5486,-1.5581,-1.5791,-1.5771,-1.5778,-1.5906,-1.5995,-1.6076,-1.6171,-1.6307,-1.6395,-1.6395,-1.6517,0.0,0.0,0.0,-1.6171,-1.6049,-1.5791,0.0,0.0,0.0,0.0,0.0,0.0,0.0,0.0,-1.3775,-1.3839,0.0,0.0,0.0,0.0,0.0,0.0,0.0,0.0,0.0,0.0,0.0,0.0,0.0,0.0,0.0,0.0,-0.2353,-0.2403,-0.2435,-0.2444,-0.2466,-0.2514,-0.2526,-0.2562,-0.2645,-0.2492,-0.2517,-0.2739,-0.189,-0.1729,-0.2447,0.0,0.0,0.0,0.0,0.0,0.0,0.0,0.0,0.0,0.0,0.0,-0.0,-0.1875,-0.2634,-0.2819,-0.2822,-0.2836,-0.2853,-0.2807,-0.2803,-0.2813,-0.2891,-0.2827,-0.2799,-0.2806,-0.2806,-0.2978,-0.4721,0.0,0.0,-0.7495,-0.8079,-0.8106,-0.8251,-0.8305,-0.868,-1.0519,-1.1452,-1.223,-1.4229,-1.4832,-1.5092,-1.5371,-1.5438,-1.5472,-1.5608,-1.5649,-1.5662,-1.5662,-1.5791,-1.5906,-1.5906,-1.5798,-1.5805,-1.6069,-1.6008,-1.6029,-1.63,-1.632,-1.6313,-1.6334,0.0,0.0,-1.6517,-1.6754,-1.6788,-1.6517,-1.6612,-1.6558,-1.6293,-1.6266,-1.6062,-1.5649,-1.5622,-1.535,-1.4814,-1.4658,-1.4726,-1.4984,-1.4516,-1.4489,0.0,0.0,0.0,0.0,0.0,0.0,0.0,0.0,0.0,0.0,0.0,0.0,0.0,0.0,0.0,-0.2352,-0.2432,-0.2499,-0.2529,-0.2574,-0.259,-0.2555,-0.2594,-0.2639,-0.268,-0.2046,-0.1898,-0.26,-0.2467,-0.1788,-0.0542,-0.0542,-0.0363,-0.0,0.0,0.0,0.0,0.0,0.0,0.0,0.0,0.0,-0.0,-0.038,-0.0946,-0.188,-0.1706,-0.1706,-0.1696,-0.1703,-0.1899,-0.2278,-0.2804,-0.2939,-0.2897,-0.2945,-0.2947,-0.2927,-0.3291,-0.4385,-0.5842,-0.6233,-0.6238,-0.6244,-0.6267,-0.6496,0.0,-0.6914,-0.9572,-1.2295,-1.2801,-1.4172,-1.5371,-1.5554,-1.5594,-1.5601,-1.5635,-1.573,-1.5811,-1.5811,-1.6035,-1.6225,-1.6225,-1.6198,-1.6198,-1.6259,-1.6341,-1.6415,-1.6469,-1.6381,-1.6354,-1.6469,-1.6402,-1.6395,-1.651,-1.6469,-1.6415,-1.6354,-1.6266,-1.6185,-1.613,-1.6008,-1.5845,-1.5642,-1.552,-1.5398,-1.5282,-1.5126,-1.5086,-1.5126,-1.4563,-1.4428,0.0,0.0,0.0,0.0,0.0,0.0,0.0,0.0,0.0,0.0,0.0,-0.22,0.0,0.0,-0.2399,-0.2459,-0.2519,-0.2568,-0.26,-0.2157,-0.2003,-0.1958,-0.2003,-0.2212,-0.2736,-0.2269,-0.1772,-0.1425,-0.1259,-0.0909,-0.0,0.0,0.0,0.0,0.0,0.0,0.0,0.0,0.0,0.0,0.0,0.0,0.0,0.0,-0.0193,-0.0769,-0.0772,-0.0772,-0.0769,-0.1159,-0.1732,-0.2099,-0.2685,-0.3028,-0.2962,-0.2979,-0.2975,-0.2961,-0.2961,-0.3699,-0.444,-0.4463,-0.4471,-0.4475,-0.4498,-0.4536,-0.4761,-0.571,-0.842,-1.0993,-1.2208,-1.3969,-1.556,-1.571,-1.5744,-1.5764,-1.5845,-1.5974,-1.6083,-1.6083,-1.6259,-1.6415,-1.6415,-1.6476,-1.6503,-1.6429,-1.6476,-1.6524,-1.6524,-1.6463,-1.6442,-1.6517,-1.6456,-1.6442,-1.6517,-1.6456,-1.6388,-1.6313,-1.6239,-1.6157,-1.6083,-1.6008,-1.59,-1.575,-1.5669,-1.5635,-1.5635,-1.5486,-1.5486,-1.5622,-1.5174,-1.4964,0.0,0.0,0.0,0.0,0.0,0.0,0.0,0.0,-0.1725,-0.0966,-0.1277,-0.1889,-0.2079,-0.2289,-0.2507,-0.2567,-0.2605,-0.2638,-0.2669,-0.204,-0.1539,-0.1513,-0.1202,-0.1397,-0.21,-0.2141,-0.1632,-0.0183,0.0,0.0,0.0,0.0,0.0,0.0,0.0,0.0,0.0,0.0,0.0,0.0,0.0,0.0,0.0,0.0,0.0,0.0,0.0,0.0,-0.0,-0.0788,-0.1365,-0.1733,-0.2729,-0.3093,-0.3029,-0.2999,-0.2984,-0.2979,-0.2979,-0.2983,-0.2992,-0.3017,-0.3028,-0.3037,-0.3062,-0.3086,-0.3494,-0.504,-0.7394,-0.9781,-1.1363,-1.3715,-1.5723,-1.59,-1.594,-1.5981,-1.6137,-1.6266,-1.6347,-1.6347,-1.6469,-1.6558,-1.6524,-1.6646,-1.6707,-1.6585,-1.6592,-1.6612,-1.6612,-1.6585,-1.6564,-1.6564,-1.6537,-1.6524,-1.6524,-1.6551,-1.6517,-1.6402,-1.6368,-1.6307,-1.6218,-1.6157,-1.6069,-1.5947,-1.5913,-1.59,-1.59,-1.5784,-1.5845,-1.6076,-1.5839,-1.5574,0.0,-0.0,0.0,-0.0125,-0.0128,-0.0528,0.0,0.0,-0.1682,-0.0433,-0.0147,-0.0446,-0.1206,-0.2023,-0.257,-0.2467,-0.2518,-0.2563,-0.2763,-0.2623,-0.2463,-0.2457,-0.1056,-0.0177,-0.0357,-0.0365,-0.0185,-0.0,0.0,0.0,0.0,0.0,0.0,0.0,0.0,0.0,0.0,0.0,0.0,0.0,0.0,0.0,0.0,0.0,0.0,0.0,0.0,0.0,-0.0,-0.02,-0.0199,-0.0396,-0.2341,-0.3112,-0.3125,-0.3093,-0.3065,-0.3041,-0.3041,-0.3059,-0.3082,-0.3086,-0.3106,-0.3129,-0.3131,-0.3135,-0.3138,-0.3333,-0.6264,-0.9403,-0.9883,-1.2863,-1.59,-1.6191,-1.6259,-1.63,-1.6442,-1.6483,-1.6497,-1.6497,-1.6619,-1.668,-1.6544,-1.6646,-1.6741,-1.6727,-1.6842,-1.6931,-1.6931,-1.6809,-1.672,-1.672,-1.6605,-1.6524,-1.6524,-1.6646,-1.672,-1.67,-1.6571,-1.6551,-1.6673,-1.6422,-1.6279,-1.6259,-1.6123,-1.6056,-1.6056,-1.6042,-1.6049,-1.6083,-1.6049,-1.594,0.0,0.0,0.0,0.0,0.0,-0.0139,-0.084,-0.1563,-0.1732,-0.0294,0.0,-0.0155,-0.0472,-0.0809,-0.1163,0.0,-0.1899,-0.21,-0.2655,-0.2683,-0.2352,-0.1098,-0.0367,0.0,0.0,0.0,0.0,0.0,0.0,0.0,0.0,0.0,0.0,0.0,0.0,0.0,0.0,0.0,0.0,0.0,0.0,0.0,0.0,0.0,0.0,0.0,0.0,0.0,0.0,0.0,0.0,-0.0,-0.0995,-0.2174,-0.314,-0.3108,-0.31,-0.3104,-0.3104,-0.3114,-0.3125,-0.3125,-0.3133,-0.3142,-0.3142,-0.3155,-0.317,-0.317,-0.5358,-0.7973,-0.9452,-1.2089,-1.455,-1.5976,-1.6435,-1.6449,-1.651,-1.6592,-1.6625,-1.6537,-1.6646,-1.6727,-1.6666,-1.6707,-1.6781,-1.687,-1.6863,-1.6842,-1.6842,-1.6788,-1.6714,-1.6625,-1.6558,-1.6524,-1.6524,-1.6578,-1.6619,-1.6619,-1.6558,-1.6551,-1.6612,-1.6497,-1.6435,-1.6435,-1.6368,-1.6334,-1.6334,-1.6334,-1.6334,-1.6334,-1.6334,-1.63,0.0,0.0,0.0,0.0,0.0,0.0,0.0,-0.0869,-0.1331,-0.0149,0.0,0.0,0.0,0.0,-0.017,-0.0871,-0.0883,-0.1252,-0.1801,-0.2555,-0.222,-0.0188,0.0,0.0,0.0,0.0,0.0,0.0,0.0,0.0,0.0,0.0,0.0,0.0,0.0,0.0,0.0,0.0,0.0,0.0,0.0,0.0,0.0,0.0,0.0,0.0,0.0,0.0,0.0,0.0,0.0,0.0,0.0,-0.0995,-0.2364,-0.2934,-0.3131,-0.3142,-0.3142,-0.3148,-0.3156,-0.3156,-0.316,-0.3167,-0.3167,-0.3182,-0.3201,-0.321,-0.4835,-0.689,-0.8582,-1.0639,-1.2507,-1.427,-1.4687,-1.488,-1.5539,-1.5834,-1.5879,-1.64,-1.6707,-1.6802,-1.6754,-1.6748,-1.6775,-1.6842,-1.6795,-1.6768,-1.6809,-1.6815,-1.6775,-1.6659,-1.6646,-1.6646,-1.6646,-1.6646,-1.6646,-1.6646,-1.6646,-1.6646,-1.6646,-1.6605,-1.6585,-1.6585,-1.6544,-1.6524,-1.6524,-1.6524,-1.6524,-1.6524,-1.6524,-1.6524,0.0,0.0,0.0,0.0,0.0,0.0,0.0,-0.0,-0.0,-0.0,0.0,0.0,0.0,0.0,-0.0,-0.0,-0.0,-0.0,-0.0,-0.167,-0.2256,-0.0188,0.0,0.0,0.0,0.0,0.0,0.0,0.0,0.0,0.0,0.0,0.0,0.0,0.0,0.0,0.0,0.0,0.0,0.0,0.0,0.0,0.0,0.0,0.0,0.0,0.0,0.0,0.0,0.0,0.0,0.0,0.0,-0.0,-0.0398,-0.2389,-0.3167,-0.3142,-0.3142,-0.3163,-0.3187,-0.3187,-0.3205,-0.3227,-0.3227,-0.3228,-0.3235,-0.3265,-0.4904,-0.6548,-0.6611,-0.8273,-0.9938,-1.0032,-1.0195,-1.0772,-1.2948,-1.3598,-1.4232,-1.632,-1.687,-1.6924,-1.6775,-1.6748,-1.67,-1.6558,-1.6659,-1.6802,-1.6951,-1.6971,-1.6971,-1.6965,-1.6965,-1.6965,-1.6965,-1.6965,-1.6965,-1.6965,-1.6965,-1.6965,-1.6965,-1.6822,-1.6741,-1.6741,-1.6598,-1.6524,-1.6524,-1.6524,-1.6524,-1.6524,-1.6524,-1.6524,0.0,0.0,0.0,0.0,0.0,0.0,0.0,0.0,0.0,0.0,0.0,0.0,0.0,0.0,0.0,0.0,0.0,0.0,0.0,-0.0559,-0.0754,-0.0,0.0,0.0,0.0,0.0,0.0,0.0,0.0,0.0,0.0,0.0,0.0,0.0,0.0,0.0,0.0,0.0,0.0,0.0,0.0,0.0,0.0,0.0,0.0,0.0,0.0,0.0,0.0,0.0,0.0,0.0,0.0,0.0,-0.0,-0.0804,-0.1605,-0.2202,-0.3004,-0.321,-0.3219,-0.3216,-0.3236,-0.326,-0.326,-0.3275,-0.3292,-0.3303,-0.3717,-0.4757,-0.6254,-0.731,-0.8146,-0.9631,-1.0081,-1.0722,-1.2985,-1.3461,-1.4127,-1.6346,-1.6795,-1.6809,-1.6761,-1.6748,-1.6768,-1.6815,-1.6781,-1.6802,-1.6958,-1.6978,-1.6978,-1.6978,-1.6978,-1.6978,-1.6978,-1.6978,-1.6978,-1.6978,-1.6978,-1.6978,-1.6978,-1.6931,-1.6904,-1.6904,-1.6849,-1.6829,-1.6829,-1.6829,-1.6829,-1.6829,-1.6829,-1.6829,0.0,0.0,0.0,0.0,0.0,0.0,0.0,0.0,0.0,0.0,0.0,0.0,0.0,0.0,0.0,0.0,0.0,0.0,0.0,0.0,0.0,0.0,0.0,0.0,0.0,0.0,0.0,0.0,0.0,0.0,0.0,0.0,0.0,0.0,0.0,0.0,0.0,0.0,0.0,0.0,0.0,0.0,0.0,0.0,0.0,0.0,0.0,0.0,0.0,0.0,0.0,0.0,0.0,0.0,0.0,0.0,-0.0408,-0.1224,-0.183,-0.264,-0.3251,-0.326,-0.3276,-0.3292,-0.3292,-0.3306,-0.3324,-0.3335,-0.3337,-0.3762,-0.5264,-0.5485,-0.5907,-0.7378,-0.7833,-0.8269,-1.0495,-1.1811,-1.2911,-1.51,-1.6165,-1.6829,-1.6829,-1.6829,-1.6863,-1.6965,-1.6897,-1.687,-1.6971,-1.6978,-1.6978,-1.6978,-1.6978,-1.6978,-1.6978,-1.6978,-1.6978,-1.6978,-1.6978,-1.6978,-1.6978,-1.6978,-1.6978,-1.6978,-1.6978,-1.6978,-1.6978,-1.6978,-1.6978,-1.6978,-1.6978,-1.6978,0.0,0.0,0.0,0.0,0.0,0.0,0.0,0.0,0.0,0.0,0.0,0.0,0.0,0.0,0.0,0.0,0.0,0.0,0.0,0.0,0.0,0.0,0.0,0.0,0.0,0.0,0.0,0.0,0.0,0.0,0.0,0.0,0.0,0.0,0.0,0.0,0.0,0.0,0.0,0.0,0.0,0.0,0.0,0.0,0.0,0.0,0.0,0.0,0.0,0.0,0.0,0.0,0.0,0.0,0.0,0.0,0.0,0.0,0.0,-0.1231,-0.308,-0.3104,-0.3115,-0.3116,-0.3324,-0.3325,-0.3332,-0.336,-0.3369,-0.3375,-0.3404,-0.3412,-0.3414,-0.3412,-0.3412,-0.4042,-0.6108,-0.8453,-1.0804,-1.3006,-1.54,-1.6978,-1.6978,-1.6978,-1.6978,-1.6978,-1.6985,-1.6992,-1.6985,-1.6978,-1.6978,-1.6978,-1.6978,-1.6978,-1.6978,-1.6985,-1.6992,-1.6992,-1.6998,-1.6998,-1.6992,-1.6992,-1.6985,-1.6978,-1.6978,-1.6978,-1.6978,-1.6978,-1.6978,-1.6978,-1.6978,-1.6978,0.0,0.0,0.0,0.0,0.0,0.0,0.0,0.0,0.0,0.0,0.0,0.0,0.0,0.0,0.0,0.0,0.0,0.0,0.0,0.0,0.0,0.0,0.0,0.0,0.0,0.0,0.0,0.0,0.0,0.0,0.0,0.0,0.0,0.0,0.0,0.0,0.0,0.0,0.0,0.0,0.0,0.0,0.0,0.0,0.0,0.0,0.0,0.0,0.0,0.0,0.0,0.0,0.0,0.0,0.0,0.0,0.0,0.0,0.0,-0.0416,-0.1035,-0.1659,-0.2084,-0.2096,-0.2096,-0.2738,-0.339,-0.3399,-0.34,-0.3401,-0.341,-0.3429,-0.344,-0.3416,-0.3429,-0.4079,-0.6374,-0.8487,-1.0822,-1.3116,-1.5462,-1.6978,-1.6978,-1.6978,-1.6978,-1.6978,-1.7073,-1.71,-1.6992,-1.6978,-1.6978,-1.6978,-1.6978,-1.6978,-1.6978,-1.708,-1.7141,-1.7141,-1.7243,-1.7256,-1.7141,-1.7141,-1.7087,-1.6985,-1.6978,-1.6978,-1.6978,-1.6978,-1.6978,-1.6978,-1.6978,-1.6978,0.0,0.0,0.0,0.0,0.0,0.0,0.0,0.0,0.0,0.0,0.0,0.0,0.0,0.0,0.0,0.0,0.0,0.0,0.0,0.0,0.0,0.0,0.0,0.0,0.0,0.0,0.0,0.0,0.0,0.0,0.0,0.0,0.0,0.0,0.0,0.0,0.0,0.0,0.0,0.0,0.0,0.0,0.0,0.0,0.0,0.0,0.0,0.0,0.0,0.0,0.0,0.0,0.0,0.0,0.0,0.0,0.0,0.0,0.0,0.0,-0.0,-0.063,-0.0843,-0.0846,-0.0846,-0.1699,-0.2772,-0.3199,-0.3422,-0.3431,-0.3431,-0.3454,-0.3472,-0.3456,-0.3474,-0.3918,-0.5154,-0.7081,-0.9656,-1.3025,-1.5574,-1.7093,-1.7161,-1.7175,-1.7175,-1.7175,-1.7243,-1.7263,-1.7182,-1.7175,-1.7175,-1.7175,-1.7175,-1.7175,-1.7175,-1.7249,-1.729,-1.729,-1.7311,-1.7283,-1.7195,-1.7134,-1.706,-1.6985,-1.6978,-1.6978,-1.6978,-1.6978,-1.6978,-1.6978,-1.6978,-1.6978,0.0,0.0,0.0,0.0,0.0,0.0,0.0,0.0,0.0,0.0,0.0,0.0,0.0,0.0,0.0,0.0,0.0,0.0,0.0,0.0,0.0,0.0,0.0,0.0,0.0,0.0,0.0,0.0,0.0,0.0,0.0,0.0,0.0,0.0,0.0,0.0,0.0,0.0,0.0,0.0,0.0,0.0,0.0,0.0,0.0,0.0,0.0,0.0,0.0,0.0,0.0,0.0,0.0,0.0,0.0,0.0,0.0,0.0,0.0,0.0,0.0,0.0,0.0,0.0,0.0,-0.0641,-0.1709,-0.2994,-0.3442,-0.3463,-0.3463,-0.3486,-0.3509,-0.3509,-0.3527,-0.3531,-0.348,-0.5439,-0.8705,-1.294,-1.5716,-1.7263,-1.7399,-1.7419,-1.7419,-1.7419,-1.7439,-1.7453,-1.7453,-1.7433,-1.7419,-1.7419,-1.7419,-1.7419,-1.7419,-1.7439,-1.7453,-1.7453,-1.7344,-1.7263,-1.7222,-1.7107,-1.7019,-1.6978,-1.6978,-1.6978,-1.6978,-1.6978,-1.6978,-1.6978,-1.6978,-1.6978,0.0,0.0,0.0,0.0,0.0,0.0,0.0,0.0,0.0,0.0,0.0,0.0,0.0,0.0,0.0,0.0,0.0,0.0,0.0,0.0,0.0,0.0,0.0,0.0,0.0,0.0,0.0,0.0,0.0,0.0,0.0,0.0,0.0,0.0,0.0,0.0,0.0,0.0,0.0,0.0,0.0,0.0,0.0,0.0,0.0,0.0,0.0,0.0,0.0,0.0,0.0,0.0,0.0,0.0,0.0,0.0,0.0,0.0,0.0,0.0,0.0,0.0,0.0,0.0,0.0,-0.0216,-0.0647,-0.2827,-0.3491,-0.3495,-0.3495,-0.3516,-0.3538,-0.3538,-0.354,-0.354,-0.3531,-0.6795,-1.0674,-1.3264,-1.5859,-1.7392,-1.7412,-1.7419,-1.7419,-1.7419,-1.7528,-1.7609,-1.7609,-1.75,-1.7419,-1.7419,-1.7419,-1.7419,-1.7419,-1.7534,-1.7609,-1.7609,-1.7704,-1.7636,-1.7392,-1.7358,-1.7229,-1.6985,-1.6978,-1.6978,-1.6978,-1.6978,-1.6978,-1.6978,-1.6978,-1.6978,0.0,0.0,0.0,0.0,0.0,0.0,0.0,0.0,0.0,0.0,0.0,0.0,0.0,0.0,0.0,0.0,0.0,0.0,0.0,0.0,0.0,0.0,0.0,0.0,0.0,0.0,0.0,0.0,0.0,0.0,0.0,0.0,0.0,0.0,0.0,0.0,0.0,0.0,0.0,0.0,0.0,0.0,0.0,0.0,0.0,0.0,0.0,0.0,0.0,0.0,0.0,0.0,0.0,0.0,0.0,0.0,0.0,0.0,0.0,0.0,0.0,0.0,0.0,0.0,0.0,0.0,-0.0218,-0.1312,-0.2634,-0.3527,-0.3527,-0.3549,-0.3569,-0.3569,-0.3555,-0.3544,-0.3544,-0.7241,-1.0908,-1.205,-1.5126,-1.7561,-1.7636,-1.765,-1.765,-1.765,-1.7717,-1.7758,-1.7758,-1.7704,-1.765,-1.765,-1.765,-1.765,-1.765,-1.7717,-1.7717,-1.765,-1.7629,-1.7534,-1.7311,-1.7229,-1.7127,-1.6985,-1.6978,-1.6978,-1.6978,-1.6978,-1.6978,-1.6978,-1.6978,-1.6978,0.0,0.0,0.0,0.0,0.0,0.0,0.0,0.0,0.0,0.0,0.0,0.0,0.0,0.0,0.0,0.0,0.0,0.0,0.0,0.0,0.0,0.0,0.0,0.0,0.0,0.0,0.0,0.0,0.0,0.0,0.0,0.0,0.0,0.0,0.0,0.0,0.0,0.0,0.0,0.0,0.0,0.0,0.0,0.0,0.0,0.0,0.0,0.0,0.0,0.0,0.0,0.0,0.0,0.0,0.0,0.0,0.0,0.0,0.0,0.0,0.0,0.0,0.0,0.0,0.0,0.0,-0.0,-0.022,-0.177,-0.3113,-0.3558,-0.3572,-0.3589,-0.3589,-0.3572,-0.3555,-0.3555,-0.6835,-0.9878,-1.0616,-1.4151,-1.7059,-1.784,-1.786,-1.786,-1.786,-1.786,-1.786,-1.786,-1.786,-1.786,-1.786,-1.786,-1.786,-1.786,-1.786,-1.7812,-1.7704,-1.7555,-1.7399,-1.7249,-1.71,-1.7012,-1.6978,-1.6978,-1.6978,-1.6978,-1.6978,-1.6978,-1.6978,-1.6978,-1.6978,0.0,0.0,0.0,0.0,0.0,0.0,0.0,0.0,0.0,0.0,0.0,0.0,0.0,0.0,0.0,0.0,0.0,0.0,0.0,0.0,0.0,0.0,0.0,0.0,0.0,0.0,0.0,0.0,0.0,0.0,0.0,0.0,0.0,0.0,0.0,0.0,0.0,0.0,0.0,0.0,0.0,0.0,0.0,0.0,0.0,0.0,0.0,0.0,0.0,0.0,0.0,0.0,0.0,0.0,0.0,0.0,0.0,0.0,0.0,0.0,0.0,0.0,0.0,0.0,0.0,0.0,-0.0222,-0.1341,-0.1793,-0.2243,-0.3361,-0.3587,-0.3589,-0.3589,-0.3587,-0.3587,-0.3587,-0.559,-0.8045,-1.0269,-1.2714,-1.5395,-1.7411,-1.786,-1.786,-1.786,-1.786,-1.786,-1.786,-1.786,-1.786,-1.786,-1.786,-1.786,-1.786,-1.786,-1.786,-1.7846,-1.7704,-1.7561,-1.7405,-1.7256,-1.7114,-1.6985,-1.6978,-1.6978,-1.6978,-1.6978,-1.6978,-1.6978,-1.6978,-1.6978,0.0,0.0,0.0,0.0,0.0,0.0,0.0,0.0,0.0,0.0,0.0,0.0,0.0,0.0,0.0,0.0,0.0,0.0,0.0,0.0,0.0,0.0,0.0,0.0,0.0,0.0,0.0,0.0,0.0,0.0,0.0,0.0,0.0,0.0,0.0,0.0,0.0,0.0,0.0,0.0,0.0,0.0,0.0,0.0,0.0,0.0,0.0,0.0,0.0,0.0,0.0,0.0,0.0,0.0,0.0,0.0,0.0,0.0,0.0,0.0,0.0,0.0,0.0,0.0,0.0,0.0,-0.0,-0.0673,-0.1796,-0.2919,-0.3369,-0.3589,-0.3589,-0.3589,-0.3589,-0.3589,-0.3589,-0.5601,-0.7834,-1.0289,-1.2738,-1.4958,-1.7411,-1.786,-1.786,-1.786,-1.786,-1.786,-1.786,-1.786,-1.786,-1.786,-1.786,-1.786,-1.786,-1.786,-1.7792,-1.7609,-1.7541,-1.7405,-1.7168,-1.71,-1.7039,-1.6985,-1.6978,-1.6978,-1.6978,-1.6978,-1.7026,-1.7107,-1.7107,-1.7154,0.0,0.0,0.0,0.0,0.0,0.0,0.0,0.0,0.0,0.0,0.0,0.0,0.0,0.0,0.0,0.0,0.0,0.0,0.0,0.0,0.0,0.0,0.0,0.0,0.0,0.0,0.0,0.0,0.0,0.0,0.0,0.0,0.0,0.0,0.0,0.0,0.0,0.0,0.0,0.0,0.0,0.0,0.0,0.0,0.0,0.0,0.0,0.0,0.0,0.0,0.0,0.0,0.0,0.0,0.0,0.0,0.0,0.0,0.0,0.0,0.0,0.0,0.0,0.0,0.0,0.0,0.0,0.0,-0.1572,-0.3143,-0.3594,-0.3589,-0.3589,-0.3589,-0.3589,-0.3589,-0.3589,-0.4933,-0.6943,-0.9174,-1.1621,-1.4065,-1.6526,-1.7424,-1.786,-1.786,-1.786,-1.786,-1.786,-1.786,-1.786,-1.786,-1.786,-1.786,-1.786,-1.786,-1.7758,-1.75,-1.7446,-1.7304,-1.7053,-1.7005,-1.6978,-1.6978,-1.7019,-1.7039,-1.7046,-1.7087,-1.7161,-1.7256,-1.7256,-1.7344,0.0,0.0,0.0,0.0,0.0,0.0,0.0,0.0,0.0,0.0,0.0,0.0,0.0,0.0,0.0,0.0,0.0,0.0,0.0,0.0,0.0,0.0,0.0,0.0,0.0,0.0,0.0,0.0,0.0,0.0,0.0,0.0,0.0,0.0,0.0,0.0,0.0,0.0,0.0,0.0,0.0,0.0,0.0,0.0,0.0,0.0,0.0,0.0,0.0,0.0,0.0,0.0,0.0,0.0,0.0,0.0,0.0,0.0,0.0,0.0,0.0,0.0,0.0,0.0,0.0,0.0,0.0,0.0,-0.0898,-0.2021,-0.3365,-0.3589,-0.3589,-0.3589,-0.3589,-0.3589,-0.3589,-0.3589,-0.4259,-0.6719,-0.9174,-1.1398,-1.3843,-1.6305,-1.786,-1.786,-1.786,-1.786,-1.786,-1.786,-1.786,-1.786,-1.786,-1.786,-1.786,-1.786,-1.7806,-1.765,-1.7507,-1.7351,-1.7195,-1.7053,-1.6978,-1.6978,-1.7121,-1.7188,-1.7188,-1.7344,-1.7419,-1.7419,-1.7419,-1.75,0.0,0.0,0.0,0.0,0.0,0.0,0.0,0.0,0.0,0.0,0.0,0.0,0.0,0.0,0.0,0.0,0.0,0.0,0.0,0.0,0.0,0.0,0.0,0.0,0.0,0.0,0.0,0.0,0.0,0.0,0.0,0.0,0.0,0.0,0.0,0.0,0.0,0.0,0.0,0.0,0.0,0.0,0.0,0.0,0.0,0.0,0.0,0.0,0.0,0.0,0.0,0.0,0.0,0.0,0.0,0.0,0.0,0.0,0.0,0.0,0.0,0.0,0.0,0.0,0.0,0.0,0.0,0.0,-0.0898,-0.2021,-0.3369,-0.3589,-0.3589,-0.3589,-0.3589,-0.3589,-0.3589,-0.3589,-0.4259,-0.6719,-0.7834,-0.9616,-1.3626,-1.4958,-1.6071,-1.7632,-1.786,-1.786,-1.786,-1.786,-1.786,-1.786,-1.786,-1.786,-1.786,-1.786,-1.7758,-1.7507,-1.7446,-1.7311,-1.706,-1.71,-1.7127,-1.7127,-1.727,-1.7351,-1.7351,-1.7399,-1.7473,-1.7582,-1.7684,-1.7758,0.0,0.0,0.0,0.0,0.0,0.0,0.0,0.0,0.0,0.0,0.0,0.0,0.0,0.0,0.0,0.0,0.0,0.0,0.0,0.0,0.0,0.0,0.0,0.0,0.0,0.0,0.0,0.0,0.0,0.0,0.0,0.0,0.0,0.0,0.0,0.0,0.0,0.0,0.0,0.0,0.0,0.0,0.0,0.0,0.0,0.0,0.0,0.0,0.0,0.0,0.0,0.0,0.0,0.0,0.0,0.0,0.0,0.0,0.0,0.0,0.0,0.0,0.0,0.0,0.0,0.0,0.0,0.0,-0.0448,-0.1572,-0.3143,-0.3594,-0.3589,-0.3589,-0.3589,-0.3589,-0.3589,-0.3589,-0.4039,-0.5601,-0.65,-0.8507,-1.2288,-1.3632,-1.5185,-1.7632,-1.786,-1.786,-1.786,-1.786,-1.786,-1.786,-1.786,-1.786,-1.786,-1.786,-1.7758,-1.7521,-1.7507,-1.7399,-1.7154,-1.7229,-1.7277,-1.7277,-1.7433,-1.7507,-1.7507,-1.7561,-1.7629,-1.7738,-1.7826,-1.7901,0.0,0.0,0.0,0.0,0.0,0.0,0.0,0.0,0.0,0.0,0.0,0.0,0.0,0.0,0.0,0.0,0.0,0.0,0.0,0.0,0.0,0.0,0.0,0.0,0.0,0.0,0.0,0.0,0.0,0.0,0.0,0.0,0.0,0.0,0.0,0.0,0.0,0.0,0.0,0.0,0.0,0.0,0.0,0.0,0.0,0.0,0.0,0.0,0.0,0.0,0.0,0.0,0.0,0.0,0.0,0.0,0.0,0.0,0.0,0.0,0.0,0.0,0.0,0.0,0.0,0.0,0.0,0.0,0.0,-0.0449,-0.2919,-0.3594,-0.3589,-0.3589,-0.3589,-0.3589,-0.3589,-0.3589,-0.3589,-0.3589,-0.5377,-0.7611,-1.0066,-1.2511,-1.4958,-1.7197,-1.786,-1.786,-1.786,-1.786,-1.786,-1.786,-1.786,-1.786,-1.786,-1.786,-1.7806,-1.7663,-1.765,-1.7582,-1.7426,-1.7433,-1.7439,-1.7439,-1.7589,-1.7663,-1.7663,-1.7792,-1.786,-1.786,-1.788,-1.7948,0.0,0.0,0.0,0.0,0.0,0.0,0.0,0.0,0.0,0.0,0.0,0.0,0.0,0.0,0.0,0.0,0.0,0.0,0.0,0.0,0.0,0.0,0.0,0.0,0.0,0.0,0.0,0.0,0.0,0.0,0.0,0.0,0.0,0.0,0.0,0.0,0.0,0.0,0.0,0.0,0.0,0.0,0.0,0.0,0.0,0.0,0.0,0.0,0.0,0.0,0.0,0.0,0.0,0.0,0.0,0.0,0.0,0.0,0.0,0.0,0.0,0.0,0.0,0.0,0.0,0.0,0.0,0.0,0.0,-0.0449,-0.1796,-0.2919,-0.3589,-0.3589,-0.3589,-0.3589,-0.3589,-0.3589,-0.3589,-0.3589,-0.4039,-0.5157,-0.7611,-1.0066,-1.2288,-1.473,-1.6741,-1.786,-1.786,-1.786,-1.786,-1.786,-1.786,-1.786,-1.786,-1.786,-1.7806,-1.7663,-1.765,-1.7582,-1.7426,-1.7534,-1.7595,-1.7595,-1.7738,-1.7812,-1.7812,-1.7846,-1.786,-1.786,-1.7989,-1.8057,0.0,0.0,0.0,0.0,0.0,0.0,0.0,0.0,0.0,0.0,0.0,0.0,0.0,0.0,0.0,0.0,0.0,0.0,0.0,0.0,0.0,0.0,0.0,0.0,0.0,0.0,0.0,0.0,0.0,0.0,0.0,0.0,0.0,0.0,0.0,0.0,0.0,0.0,0.0,0.0,0.0,0.0,0.0,0.0,0.0,0.0,0.0,0.0,0.0,0.0,0.0,0.0,0.0,0.0,0.0,0.0,0.0,0.0,0.0,0.0,0.0,0.0,0.0,0.0,0.0,0.0,0.0,0.0,0.0,-0.0224,-0.1572,-0.2694,-0.3589,-0.3589,-0.3589,-0.3589,-0.3589,-0.3589,-0.3589,-0.3589,-0.3589,-0.4259,-0.6719,-0.8284,-1.0293,-1.3854,-1.5413,-1.6741,-1.786,-1.786,-1.786,-1.786,-1.786,-1.786,-1.786,-1.786,-1.7826,-1.7758,-1.7758,-1.7704,-1.7629,-1.7704,-1.7758,-1.7758,-1.7826,-1.786,-1.786,-1.786,-1.7901,-1.7968,-1.8057,-1.8124,0.0,0.0,0.0,0.0,0.0,0.0,0.0,0.0,0.0,0.0,0.0,0.0,0.0,0.0,0.0,0.0,0.0,0.0,0.0,0.0,0.0,0.0,0.0,0.0,0.0,0.0,0.0,0.0,0.0,0.0,0.0,0.0,0.0,0.0,0.0,0.0,0.0,0.0,0.0,0.0,0.0,0.0,0.0,0.0,0.0,0.0,0.0,0.0,0.0,0.0,0.0,0.0,0.0,0.0,0.0,0.0,0.0,0.0,0.0,0.0,0.0,0.0,0.0,0.0,0.0,0.0,0.0,0.0,0.0,-0.0224,-0.1347,-0.247,-0.3594,-0.3589,-0.3589,-0.3589,-0.3589,-0.3589,-0.3589,-0.3589,-0.3589,-0.4259,-0.6277,-0.6943,-0.8501,-1.2515,-1.3854,-1.4958,-1.719,-1.7632,-1.786,-1.786,-1.786,-1.786,-1.786,-1.786,-1.786,-1.786,-1.786,-1.786,-1.786,-1.786,-1.786,-1.786,-1.786,-1.786,-1.786,-1.786,-1.7935,-1.8057,-1.8077,-1.8158,0.0,0.0,0.0,0.0,0.0,0.0,0.0,0.0,0.0,0.0,0.0,0.0,0.0,0.0,0.0,0.0,0.0,0.0,0.0,0.0,0.0,0.0,0.0,0.0,0.0,0.0,0.0,0.0,0.0,0.0,0.0,0.0,0.0,0.0,0.0,0.0,0.0,0.0,0.0,0.0,0.0,0.0,0.0,0.0,0.0,0.0,0.0,0.0,0.0,0.0,0.0,0.0,0.0,0.0,0.0,0.0,0.0,0.0,0.0,0.0,0.0,0.0,0.0,0.0,0.0,0.0,0.0,0.0,0.0,-0.0,-0.0224,-0.2021,-0.3594,-0.3589,-0.3589,-0.3589,-0.3589,-0.3589,-0.3589,-0.3589,-0.3589,-0.3814,-0.4039,-0.5826,-0.7393,-0.8284,-1.1621,-1.452,-1.473,-1.6741,-1.786,-1.786,-1.786,-1.786,-1.786,-1.786,-1.786,-1.786,-1.786,-1.786,-1.786,-1.786,-1.786,-1.786,-1.786,-1.786,-1.786,-1.786,-1.788,-1.7901,-1.8036,-1.8111,0.0,0.0,0.0,0.0,0.0,0.0,0.0,0.0,0.0,0.0,0.0,0.0,0.0,0.0,0.0,0.0,0.0,0.0,0.0,0.0,0.0,0.0,0.0,0.0,0.0,0.0,0.0,0.0,0.0,0.0,0.0,0.0,0.0,0.0,0.0,0.0,0.0,0.0,0.0,0.0,0.0,0.0,0.0,0.0,0.0,0.0,0.0,0.0,0.0,0.0,0.0,0.0,0.0,0.0,0.0,0.0,0.0,0.0,0.0,0.0,0.0,0.0,0.0,0.0,0.0,0.0,0.0,0.0,0.0,0.0,0.0,-0.1347,-0.2694,-0.3365,-0.3589,-0.3589,-0.3589,-0.3589,-0.3589,-0.3589,-0.3589,-0.3589,-0.3589,-0.4485,-0.5603,-0.6943,-0.895,-1.1394,-1.4065,-1.5185,-1.6526,-1.786,-1.786,-1.786,-1.786,-1.786,-1.786,-1.786,-1.786,-1.786,-1.786,-1.786,-1.786,-1.786,-1.786,-1.786,-1.786,-1.786,-1.7901,-1.7989,-1.8057,-1.8091,0.0,0.0,0.0,0.0,0.0,0.0,0.0,0.0,0.0,0.0,0.0,0.0,0.0,0.0,0.0,0.0,0.0,0.0,0.0,0.0,0.0,0.0,0.0,0.0,0.0,0.0,0.0,0.0,0.0,0.0,0.0,0.0,0.0,0.0,0.0,0.0,0.0,0.0,0.0,0.0,0.0,0.0,0.0,0.0,0.0,0.0,0.0,0.0,0.0,0.0,0.0,0.0,0.0,0.0,0.0,0.0,0.0,0.0,0.0,0.0,0.0,0.0,0.0,0.0,0.0,0.0,0.0,0.0,0.0,0.0,0.0,-0.0898,-0.2021,-0.3365,-0.3589,-0.3589,-0.3589,-0.3589,-0.3589,-0.3589,-0.3589,-0.3589,-0.3589,-0.3589,-0.4259,-0.605,-0.6943,-0.8724,-1.2965,-1.3843,-1.5185,-1.7632,-1.786,-1.786,-1.786,-1.786,-1.786,-1.786,-1.786,-1.786,-1.786,-1.786,-1.786,-1.786,-1.786,-1.786,-1.786,-1.786,-1.7914,-1.8036,-1.8036,-1.8036,0.0,0.0,0.0,0.0,0.0,0.0,0.0,0.0,0.0,0.0,0.0,0.0,0.0,0.0,0.0,0.0,0.0,0.0,0.0,0.0,0.0,0.0,0.0,0.0,0.0,0.0,0.0,0.0,0.0,0.0,0.0,0.0,0.0,0.0,0.0,0.0,0.0,0.0,0.0,0.0,0.0,0.0,0.0,0.0,0.0,0.0,0.0,0.0,0.0,0.0,0.0,0.0,0.0,0.0,0.0,0.0,0.0,0.0,0.0,0.0,0.0,0.0,0.0,0.0,0.0,0.0,0.0,0.0,0.0,0.0,0.0,-0.0898,-0.2021,-0.3369,-0.3589,-0.3589,-0.3589,-0.3589,-0.3589,-0.3589,-0.3589,-0.3589,-0.3589,-0.3589,-0.3589,-0.3815,-0.5826,-0.806,-1.073,-1.296,-1.5185,-1.7632,-1.786,-1.786,-1.786,-1.786,-1.786,-1.786,-1.786,-1.786,-1.786,-1.786,-1.786,-1.786,-1.786,-1.786,-1.786,-1.786,-1.786,-1.788,-1.788,-1.788,0.0,0.0,0.0,0.0,0.0,0.0,0.0,0.0,0.0,0.0,0.0,0.0,0.0,0.0,0.0,0.0,0.0,0.0,0.0,0.0,0.0,0.0,0.0,0.0,0.0,0.0,0.0,0.0,0.0,0.0,0.0,0.0,0.0,0.0,0.0,0.0,0.0,0.0,0.0,0.0,0.0,0.0,0.0,0.0,0.0,0.0,0.0,0.0,0.0,0.0,0.0,0.0,0.0,0.0,0.0,0.0,0.0,0.0,0.0,0.0,0.0,0.0,0.0,0.0,0.0,0.0,0.0,0.0,0.0,0.0,0.0,-0.0898,-0.2021,-0.3369,-0.3589,-0.3589,-0.3589,-0.3589,-0.3589,-0.3589,-0.3589,-0.3589,-0.3589,-0.3589,-0.3589,-0.3589,-0.4485,-0.5826,-0.8284,-1.0508,-1.295,-1.5413,-1.6969,-1.786,-1.786,-1.786,-1.786,-1.786,-1.786,-1.786,-1.786,-1.786,-1.786,-1.786,-1.786,-1.786,-1.786,-1.786,-1.786,-1.786,-1.786,-1.786,0.0,0.0,0.0,0.0,0.0,0.0,0.0,0.0,0.0,0.0,0.0,0.0,0.0,0.0,0.0,0.0,0.0,0.0,0.0,0.0,0.0,0.0,0.0,0.0,0.0,0.0,0.0,0.0,0.0,0.0,0.0,0.0,0.0,0.0,0.0,0.0,0.0,0.0,0.0,0.0,0.0,0.0,0.0,0.0,0.0,0.0,0.0,0.0,0.0,0.0,0.0,0.0,0.0,0.0,0.0,0.0,0.0,0.0,0.0,0.0,0.0,0.0,0.0,0.0,0.0,0.0,0.0,0.0,0.0,0.0,0.0,-0.0673,-0.1572,-0.3145,-0.3594,-0.3589,-0.3589,-0.3589,-0.3589,-0.3589,-0.3589,-0.3589,-0.3589,-0.3589,-0.3589,-0.3589,-0.3596,-0.4497,-0.6948,-0.9212,-1.1929,-1.5243,-1.7001,-1.786,-1.786,-1.786,-1.786,-1.786,-1.786,-1.786,-1.786,-1.786,-1.786,-1.786,-1.786,-1.786,-1.786,-1.786,-1.786,-1.786,-1.786,-1.786,0.0,0.0,0.0,0.0,0.0,0.0,0.0,0.0,0.0,0.0,0.0,0.0,0.0,0.0,0.0,0.0,0.0,0.0,0.0,0.0,0.0,0.0,0.0,0.0,0.0,0.0,0.0,0.0,0.0,0.0,0.0,0.0,0.0,0.0,0.0,0.0,0.0,0.0,0.0,0.0,0.0,0.0,0.0,0.0,0.0,0.0,0.0,0.0,0.0,0.0,0.0,0.0,0.0,0.0,0.0,0.0,0.0,0.0,0.0,0.0,0.0,0.0,0.0,0.0,0.0,0.0,0.0,0.0,0.0,0.0,0.0,0.0,-0.0673,-0.2919,-0.3594,-0.3594,-0.3594,-0.3594,-0.3594,-0.3589,-0.3589,-0.3589,-0.3589,-0.3589,-0.3589,-0.3589,-0.3614,-0.4527,-0.6948,-0.9529,-1.2782,-1.7643,-1.7948,-1.786,-1.786,-1.786,-1.786,-1.786,-1.786,-1.786,-1.786,-1.786,-1.786,-1.786,-1.786,-1.786,-1.786,-1.786,-1.786,-1.786,-1.786,-1.786,0.0,0.0,0.0,0.0,0.0,0.0,0.0,0.0,0.0,0.0,0.0,0.0,0.0,0.0,0.0,0.0,0.0,0.0,0.0,0.0,0.0,0.0,0.0,0.0,0.0,0.0,0.0,0.0,0.0,0.0,0.0,0.0,0.0,0.0,0.0,0.0,0.0,0.0,0.0,0.0,0.0,0.0,0.0,0.0,0.0,0.0,0.0,0.0,0.0,0.0,0.0,0.0,0.0,0.0,0.0,0.0,0.0,0.0,0.0,0.0,0.0,0.0,0.0,0.0,0.0,0.0,0.0,0.0,0.0,0.0,0.0,0.0,-0.0224,-0.0898,-0.1796,-0.2245,-0.2245,-0.2245,-0.247,-0.2692,-0.3141,-0.3589,-0.3589,-0.3589,-0.3596,-0.3618,-0.3628,-0.4536,-0.6778,-0.924,-1.1916,-1.502,-1.7001,-1.786,-1.786,-1.786,-1.786,-1.786,-1.786,-1.786,-1.786,-1.786,-1.786,-1.786,-1.786,-1.786,-1.786,-1.786,-1.786,-1.786,-1.786,-1.7914,0.0,0.0,0.0,0.0,0.0,0.0,0.0,0.0,0.0,0.0,0.0,0.0,0.0,0.0,0.0,0.0,0.0,0.0,0.0,0.0,0.0,0.0,0.0,0.0,0.0,0.0,0.0,0.0,0.0,0.0,0.0,0.0,0.0,0.0,0.0,0.0,0.0,0.0,0.0,0.0,0.0,0.0,0.0,0.0,0.0,0.0,0.0,0.0,0.0,0.0,0.0,0.0,0.0,0.0,0.0,0.0,0.0,0.0,0.0,0.0,0.0,0.0,0.0,0.0,0.0,0.0,0.0,0.0,0.0,0.0,0.0,0.0,0.0,0.0,-0.0449,-0.1122,-0.1122,-0.1122,-0.1347,-0.2019,-0.2917,-0.3594,-0.3607,-0.3607,-0.3618,-0.3649,-0.3643,-0.4558,-0.6895,-0.8372,-1.054,-1.398,-1.57,-1.6962,-1.786,-1.786,-1.786,-1.786,-1.786,-1.786,-1.786,-1.786,-1.786,-1.786,-1.786,-1.786,-1.786,-1.786,-1.786,-1.786,-1.7935,-1.8002,0.0,0.0,0.0,0.0,0.0,0.0,0.0,0.0,0.0,0.0,0.0,0.0,0.0,0.0,0.0,0.0,0.0,0.0,0.0,0.0,0.0,0.0,0.0,0.0,0.0,0.0,0.0,0.0,0.0,0.0,0.0,0.0,0.0,0.0,0.0,0.0,0.0,0.0,0.0,0.0,0.0,0.0,0.0,0.0,0.0,0.0,0.0,0.0,0.0,0.0,0.0,0.0,0.0,0.0,0.0,0.0,0.0,0.0,0.0,0.0,0.0,0.0,0.0,0.0,0.0,0.0,0.0,0.0,0.0,0.0,0.0,0.0,0.0,0.0,0.0,0.0,0.0,0.0,-0.0449,-0.1572,-0.2694,-0.3604,-0.3632,-0.3636,-0.3645,-0.3677,-0.3656,-0.4354,-0.6784,-0.708,-0.9002,-1.3473,-1.4204,-1.5185,-1.7424,-1.786,-1.786,-1.786,-1.786,-1.786,-1.786,-1.786,-1.786,-1.786,-1.786,-1.786,-1.786,-1.786,-1.786,-1.786,-1.8023,-1.8091,0.0,0.0,0.0,0.0,0.0,0.0,0.0,0.0,0.0,0.0,0.0,0.0,0.0,0.0,0.0,0.0,0.0,0.0,0.0,0.0,0.0,0.0,0.0,0.0,0.0,0.0,0.0,0.0,0.0,0.0,0.0,0.0,0.0,0.0,0.0,0.0,0.0,0.0,0.0,0.0,0.0,0.0,0.0,0.0,0.0,0.0,0.0,0.0,0.0,0.0,0.0,0.0,0.0,0.0,0.0,0.0,0.0,0.0,0.0,0.0,0.0,0.0,0.0,0.0,0.0,0.0,0.0,0.0,0.0,0.0,0.0,0.0,0.0,0.0,0.0,0.0,0.0,0.0,-0.0449,-0.1572,-0.2694,-0.3604,-0.3632,-0.3636,-0.3645,-0.3677,-0.3674,-0.3908,-0.4388,-0.6126,-0.764,-0.8617,-1.2144,-1.452,-1.4958,-1.6741,-1.786,-1.786,-1.786,-1.786,-1.786,-1.786,-1.786,-1.786,-1.786,-1.786,-1.786,-1.786,-1.786,-1.786,-1.8023,-1.8158,0.0,0.0,0.0,0.0,0.0,0.0,0.0,0.0,0.0,0.0,0.0,0.0,0.0,0.0,0.0,0.0,0.0,0.0,0.0,0.0,0.0,0.0,0.0,0.0,0.0,0.0,0.0,0.0,0.0,0.0,0.0,0.0,0.0,0.0,0.0,0.0,0.0,0.0,0.0,0.0,0.0,0.0,0.0,0.0,0.0,0.0,0.0,0.0,0.0,0.0,0.0,0.0,0.0,0.0,0.0,0.0,0.0,0.0,0.0,0.0,0.0,0.0,0.0,0.0,0.0,0.0,0.0,0.0,0.0,0.0,0.0,0.0,0.0,0.0,0.0,0.0,0.0,0.0,-0.0449,-0.2245,-0.3143,-0.3604,-0.3632,-0.3645,-0.3663,-0.3677,-0.3667,-0.3663,-0.3677,-0.4759,-0.5844,-0.7017,-1.0332,-1.295,-1.4292,-1.6533,-1.786,-1.786,-1.786,-1.786,-1.786,-1.786,-1.786,-1.786,-1.786,-1.786,-1.786,-1.786,-1.7901,-1.7968,-1.8124,-1.8287,0.0,0.0,0.0,0.0,0.0,0.0,0.0,0.0,0.0,0.0,0.0,0.0,0.0,0.0,0.0,0.0,0.0,0.0,0.0,0.0,0.0,0.0,0.0,0.0,0.0,0.0,0.0,0.0,0.0,0.0,0.0,0.0,0.0,0.0,0.0,0.0,0.0,0.0,0.0,0.0,0.0,0.0,0.0,0.0,0.0,0.0,0.0,0.0,0.0,0.0,0.0,0.0,0.0,0.0,0.0,0.0,0.0,0.0,0.0,0.0,0.0,0.0,0.0,0.0,0.0,0.0,0.0,0.0,0.0,0.0,0.0,0.0,0.0,0.0,0.0,0.0,0.0,0.0,-0.0673,-0.2694,-0.3372,-0.3607,-0.3632,-0.366,-0.3677,-0.3674,-0.3656,-0.3649,-0.367,-0.3628,-0.4285,-0.6355,-0.8777,-1.118,-1.343,-1.5868,-1.7411,-1.786,-1.788,-1.7901,-1.786,-1.788,-1.7901,-1.786,-1.786,-1.786,-1.786,-1.7901,-1.7968,-1.8091,-1.8267,-1.8423,0.0,0.0,0.0,0.0,0.0,0.0,0.0,0.0,0.0,0.0,0.0,0.0,0.0,0.0,0.0,0.0,0.0,0.0,0.0,0.0,0.0,0.0,0.0,0.0,0.0,0.0,0.0,0.0,0.0,0.0,0.0,0.0,0.0,0.0,0.0,0.0,0.0,0.0,0.0,0.0,0.0,0.0,0.0,0.0,0.0,0.0,0.0,0.0,0.0,0.0,0.0,0.0,0.0,0.0,0.0,0.0,0.0,0.0,0.0,0.0,0.0,0.0,0.0,0.0,0.0,0.0,0.0,0.0,0.0,0.0,0.0,0.0,0.0,0.0,0.0,0.0,0.0,0.0,-0.0,-0.0449,-0.2258,-0.3632,-0.3636,-0.366,-0.367,-0.3645,-0.366,-0.3667,-0.3645,-0.3636,-0.3639,-0.413,-0.6329,-0.875,-1.1066,-1.3455,-1.5622,-1.786,-1.7989,-1.8002,-1.786,-1.7989,-1.8002,-1.786,-1.786,-1.786,-1.786,-1.8002,-1.8077,-1.8091,-1.8375,-1.8511,0.0,0.0,0.0,0.0,0.0,0.0,0.0,0.0,0.0,0.0,0.0,0.0,0.0,0.0,0.0,0.0,0.0,0.0,0.0,0.0,0.0,0.0,0.0,0.0,0.0,0.0,0.0,0.0,0.0,0.0,0.0,0.0,0.0,0.0,0.0,0.0,0.0,0.0,0.0,0.0,0.0,0.0,0.0,0.0,0.0,0.0,0.0,0.0,0.0,0.0,0.0,0.0,0.0,0.0,0.0,0.0,0.0,0.0,0.0,0.0,0.0,0.0,0.0,0.0,0.0,0.0,0.0,0.0,0.0,0.0,0.0,0.0,0.0,0.0,0.0,0.0,0.0,0.0,0.0,0.0,-0.1351,-0.2708,-0.3386,-0.3621,-0.3632,-0.3636,-0.3632,-0.3632,-0.3636,-0.3636,-0.3639,-0.3652,-0.5667,-0.7677,-0.8601,-1.1053,-1.2801,-1.3854,-1.5376,-1.6115,-1.5976,-1.738,-1.8057,-1.7989,-1.7901,-1.786,-1.786,-1.8023,-1.8145,-1.8233,-1.8423,-1.8586,0.0,0.0,0.5048,0.1097,0.0,0.0,0.0,0.0,0.0,0.0,0.0,0.0,0.0,0.0,0.0,0.0,0.0,0.0,0.0,0.0,0.0,0.0,0.0,0.0,0.0,0.0,0.0,0.0,0.0,0.0,0.0,0.0,0.0,0.0,0.0,0.0,0.0,0.0,0.0,0.0,0.0,0.0,0.0,0.0,0.0,0.0,0.0,0.0,0.0,0.0,0.0,0.0,0.0,0.0,0.0,0.0,0.0,0.0,0.0,0.0,0.0,0.0,0.0,0.0,0.0,0.0,0.0,0.0,0.0,0.0,0.0,0.0,0.0,0.0,0.0,0.0,0.0,0.0,0.0,0.0,-0.0673,-0.1796,-0.3365,-0.3589,-0.3596,-0.3621,-0.3611,-0.3611,-0.3632,-0.3643,-0.3649,-0.3656,-0.5233,-0.6582,-0.7046,-0.8843,-1.0154,-1.0743,-1.2503,-1.3948,-1.4477,-1.6309,-1.7471,-1.8145,-1.8002,-1.7914,-1.7914,-1.8111,-1.8267,-1.8375,-1.8511,-1.8654,0.0,0.8289,0.0,0.1228,0.0,0.0,0.0,0.0,0.0,0.0,0.0,0.0,0.0,0.0,0.0,0.0,0.0,0.0,0.0,0.0,0.0,0.0,0.0,0.0,0.0,0.0,0.0,0.0,0.0,0.0,0.0,0.0,0.0,0.0,0.0,0.0,0.0,0.0,0.0,0.0,0.0,0.0,0.0,0.0,0.0,0.0,0.0,0.0,0.0,0.0,0.0,0.0,0.0,0.0,0.0,0.0,0.0,0.0,0.0,0.0,0.0,0.0,0.0,0.0,0.0,0.0,0.0,0.0,0.0,0.0,0.0,0.0,0.0,0.0,0.0,0.0,0.0,0.0,0.0,0.0,-0.0,-0.0898,-0.3145,-0.3589,-0.3589,-0.3594,-0.3614,-0.3632,-0.3636,-0.366,-0.3688,-0.3719,-0.367,-0.4782,-0.7104,-0.7286,-0.835,-1.0516,-1.0971,-1.2195,-1.4488,-1.4591,-1.5793,-1.8301,-1.8158,-1.8077,-1.8077,-1.8375,-1.8511,-1.8531,-1.8674,-1.8762,0.0,0.0,0.0,0.6857,0.3196,0.0,0.0,0.4243,0.6716,0.1207,0.2252,0.5196,0.8199,0.8699,0.6826,0.0853,0.0,0.0,0.0,0.0,0.0,0.0,0.0,0.0,0.0,0.0,0.0,0.0,0.0,0.0,0.0,0.0,0.0,0.0,0.0,0.0,0.0,0.0,0.0,0.0,0.0,0.0,0.0,0.0,0.0,0.0,0.0,0.0,0.0,0.0,0.0,0.0,0.0,0.0,0.0,0.0,0.0,0.0,0.0,0.0,0.0,0.0,0.0,0.0,0.0,0.0,0.0,0.0,0.0,0.0,0.0,0.0,0.0,0.0,0.0,0.0,0.0,0.0,0.0,0.0,0.0,-0.0224,-0.1122,-0.2468,-0.3596,-0.3618,-0.3628,-0.3643,-0.3663,-0.3692,-0.3715,-0.3726,-0.3705,-0.393,-0.4864,-0.485,-0.5284,-0.6152,-0.7877,-0.9776,-1.2186,-1.3822,-1.591,-1.8457,-1.8409,-1.8335,-1.8233,-1.8443,-1.8531,-1.8531,-1.8694,-1.8762,0.9134,0.0,0.0,0.0,0.0,0.143,0.0185,0.6687,1.1216,0.5365,0.5475,0.805,1.2699,1.3499,1.1492,0.5541,0.1935,0.0,0.0,0.0,0.0,0.0,0.0,0.0,0.0,0.0,0.0,0.0,0.0,0.0,0.0,0.0,0.0,0.0,0.0,0.0,0.0,0.0,0.0,0.0,0.0,0.0,0.0,0.0,0.0,0.0,0.0,0.0,0.0,0.0,0.0,0.0,0.0,0.0,0.0,0.0,0.0,0.0,0.0,0.0,0.0,0.0,0.0,0.0,0.0,0.0,0.0,0.0,0.0,0.0,0.0,0.0,0.0,0.0,0.0,0.0,0.0,0.0,0.0,0.0,0.0,0.0,0.0,-0.1572,-0.315,-0.3632,-0.3636,-0.3649,-0.3692,-0.3712,-0.373,-0.3739,-0.3733,-0.3726,-0.3726,-0.3726,-0.3712,-0.3684,-0.5368,-0.7262,-0.9751,-1.229,-1.4606,-1.7217,-1.8093,-1.8511,-1.8464,-1.8565,-1.8599,-1.862,-1.8708,-1.8762,0.0,0.0,0.0,0.0,0.0,0.0,0.072,0.6585,1.2626,1.224,0.917,0.7947,1.2797,1.3454,1.351,1.3667,0.605,0.0218,0.0,0.0,0.0,0.0,0.0,0.0,0.0,0.0,0.0,0.0,0.0,0.0,0.0,0.0,0.0,0.0,0.0,0.0,0.0,0.0,0.0,0.0,0.0,0.0,0.0,0.0,0.0,0.0,0.0,0.0,0.0,0.0,0.0,0.0,0.0,0.0,0.0,0.0,0.0,0.0,0.0,0.0,0.0,0.0,0.0,0.0,0.0,0.0,0.0,0.0,0.0,0.0,0.0,0.0,0.0,0.0,0.0,0.0,0.0,0.0,0.0,0.0,0.0,0.0,0.0,-0.0898,-0.2252,-0.3405,-0.3639,-0.3659,-0.3719,-0.3726,-0.3739,-0.3768,-0.3744,-0.3726,-0.3726,-0.3726,-0.3715,-0.3684,-0.3739,-0.4929,-0.7439,-0.9751,-1.2335,-1.501,-1.7217,-1.862,-1.8762,-1.8762,-1.8762,-1.8762,-1.8762,-1.8762,0.9122,0.0,0.0,0.0,0.0,0.0,0.0,0.423,0.8809,1.2133,1.1865,1.1526,1.2775,1.3178,1.3357,1.3636,0.8748,0.3676,0.0433,0.0,0.0,0.0,0.0,0.0,0.0,0.0,0.0,0.0,0.0,0.0,0.0,0.0,0.0,0.0,0.0,0.0,0.0,0.0,0.0,0.0,0.0,0.0,0.0,0.0,0.0,0.0,0.0,0.0,0.0,0.0,0.0,0.0,0.0,0.0,0.0,0.0,0.0,0.0,0.0,0.0,0.0,0.0,0.0,0.0,0.0,0.0,0.0,0.0,0.0,0.0,0.0,0.0,0.0,0.0,0.0,0.0,0.0,0.0,0.0,0.0,0.0,0.0,0.0,-0.1132,-0.2272,-0.3434,-0.3688,-0.3708,-0.3723,-0.3748,-0.3761,-0.3772,-0.3764,-0.3757,-0.3757,-0.3757,-0.3754,-0.3748,-0.3761,-0.4943,-0.7502,-0.9833,-1.2402,-1.501,-1.7549,-1.8728,-1.8762,-1.8762,-1.8762,-1.8762,-1.8762,-1.8762,0.0,0.0,0.0,0.0,0.0,0.0,0.0,0.5578,0.7316,0.0,1.272,1.2743,1.2545,1.2917,1.3267,1.3305,1.1253,0.7417,0.0857,0.0,0.0,0.0,0.0,0.0,0.0,0.0,0.0,0.0,0.0,0.0,0.0,0.0,0.0,0.0,0.0,0.0,0.0,0.0,0.0,0.0,0.0,0.0,0.0,0.0,0.0,0.0,0.0,0.0,0.0,0.0,0.0,0.0,0.0,0.0,0.0,0.0,0.0,0.0,0.0,0.0,0.0,0.0,0.0,0.0,0.0,0.0,0.0,0.0,0.0,0.0,0.0,0.0,0.0,0.0,0.0,0.0,0.0,0.0,0.0,0.0,0.0,-0.0226,-0.1363,-0.1822,-0.2289,-0.3464,-0.3716,-0.373,-0.3744,-0.3761,-0.3772,-0.3772,-0.3772,-0.3772,-0.3772,-0.3772,-0.3772,-0.3772,-0.3772,-0.4476,-0.5886,-0.9396,-1.1967,-1.3377,-1.6884,-1.8762,-1.8762,-1.8762,-1.8762,-1.8762,-1.8762,-1.8762,0.0,0.0,0.0,0.0,0.0,0.0,0.0,0.0,0.0,0.0,1.19,1.1838,1.2187,1.2542,1.2897,1.2952,1.3346,1.0714,0.2747,0.0,0.0,0.0,0.0,0.0,0.0,0.0,0.0,0.0,0.0,0.0,0.0,0.0,0.0,0.0,0.0,0.0,0.0,0.0,0.0,0.0,0.0,0.0,0.0,0.0,0.0,0.0,0.0,0.0,0.0,0.0,0.0,0.0,0.0,0.0,0.0,0.0,0.0,0.0,0.0,0.0,0.0,0.0,0.0,0.0,0.0,0.0,0.0,0.0,0.0,0.0,0.0,0.0,0.0,0.0,0.0,0.0,0.0,0.0,0.0,0.0,0.0,-0.0911,-0.3421,-0.2753,-0.2539,-0.3726,-0.373,-0.3739,-0.3768,-0.3772,-0.3772,-0.3772,-0.3772,-0.3772,-0.3772,-0.3772,-0.3772,-0.3772,-0.3772,-0.3772,-0.3772,-0.8696,-1.1269,-1.1269,-1.6186,-1.8762,-1.8762,-1.8762,-1.8762,-1.8762,-1.8762,-1.8762,0.0,0.0,0.0,0.0,0.0,0.0,0.0,0.6888,1.1183,1.2085,0.9622,0.8354,1.1558,1.2656,1.2813,1.2841,1.3234,1.2957,1.112,0.0,0.0,0.0,0.0,0.0,0.0,0.0,0.0,0.0,0.0,0.0,0.0,0.0,0.0,0.0,0.0,0.0,0.0,0.0,0.0,0.0,0.0,0.0,0.0,0.0,0.0,0.0,0.0,0.0,0.0,0.0,0.0,0.0,0.0,0.0,0.0,0.0,0.0,0.0,0.0,0.0,0.0,0.0,0.0,0.0,0.0,0.0,0.0,0.0,0.0,0.0,0.0,0.0,0.0,0.0,0.0,0.0,0.0,0.0,0.0,0.0,0.0,-0.0921,-0.3474,-0.348,-0.3493,-0.3757,-0.3761,-0.3764,-0.3772,-0.3772,-0.3772,-0.3772,-0.3772,-0.3772,-0.3772,-0.3772,-0.3772,-0.3772,-0.3772,-0.3772,-0.3772,-0.8696,-1.1269,-1.1269,-1.6186,-1.8762,-1.8762,-1.8762,-1.8762,-1.8762,-1.8762,-1.8762,0.0,0.0,0.0,0.6166,0.0,0.0,0.0,0.0,1.1658,1.2176,0.903,0.612,0.605,0.9662,1.2625,1.2634,0.9419,0.6785,0.691,0.0,0.0,0.0,0.0,0.0,0.0,0.0,0.0,0.0,0.0,0.0,0.0,0.0,0.0,0.0,0.0,0.0,0.0,0.0,0.0,0.0,0.0,0.0,0.0,0.0,0.0,0.0,0.0,0.0,0.0,0.0,0.0,0.0,0.0,0.0,0.0,0.0,0.0,0.0,0.0,0.0,0.0,0.0,0.0,0.0,0.0,0.0,0.0,0.0,0.0,0.0,0.0,0.0,0.0,0.0,0.0,0.0,0.0,0.0,0.0,0.0,0.0,-0.0698,-0.2561,-0.3272,-0.3754,-0.3768,-0.3772,-0.3772,-0.3772,-0.3772,-0.3772,-0.3772,-0.3772,-0.3772,-0.3772,-0.3772,-0.3772,-0.3772,-0.3772,-0.3772,-0.3772,-0.7523,-1.0567,-1.3139,-1.5709,-1.7581,-1.8762,-1.8762,-1.8762,-1.8762,-1.8762,-1.8762,0.0,0.0,0.0,0.0,0.0,0.6495,0.0,0.0,0.0,0.0,0.0,0.0,0.0,0.0,0.0,0.0,0.0,0.0,0.0,0.0,0.0,0.0,0.0,0.0,0.0,0.0,0.0,0.0,0.0,0.0,0.0,0.0,0.0,0.0,0.0,0.0,0.0,0.0,0.0,0.0,0.0,0.0,0.0,0.0,0.0,0.0,0.0,0.0,0.0,0.0,0.0,0.0,0.0,0.0,0.0,0.0,0.0,0.0,0.0,0.0,0.0,0.0,0.0,0.0,0.0,0.0,0.0,0.0,0.0,0.0,0.0,0.0,0.0,0.0,0.0,0.0,0.0,0.0,0.0,0.0,0.0,-0.047,-0.1636,-0.305,-0.3772,-0.3772,-0.3772,-0.3772,-0.3772,-0.3772,-0.3772,-0.3772,-0.3772,-0.3772,-0.3772,-0.3772,-0.3772,-0.3772,-0.3772,-0.3772,-0.3772,-0.6352,-0.9861,-1.4772,-1.5481,-1.6663,-1.8762,-1.8762,-1.8762,-1.8762,-1.8762,-1.8762,0.0,0.0,0.0,0.0,0.9132,0.0,0.0,0.0,0.0,0.0,0.0,0.0,0.0,0.0,0.0,0.0,0.0,0.0,0.0,0.0,0.0,0.0,0.0,0.0,0.0,0.0,0.0,0.0,0.0,0.0,0.0,0.0,0.0,0.0,0.0,0.0,0.0,0.0,0.0,0.0,0.0,0.0,0.0,0.0,0.0,0.0,0.0,0.0,0.0,0.0,0.0,0.0,0.0,0.0,0.0,0.0,0.0,0.0,0.0,0.0,0.0,0.0,0.0,0.0,0.0,0.0,0.0,0.0,0.0,0.0,0.0,0.0,0.0,0.0,0.0,0.0,0.0,0.0,0.0,0.0,0.0,-0.0471,-0.1648,-0.3061,-0.3772,-0.3772,-0.3772,-0.3772,-0.3772,-0.3772,-0.3772,-0.3772,-0.3772,-0.3772,-0.3772,-0.3772,-0.3772,-0.3772,-0.3772,-0.3772,-0.3772,-0.6824,-1.0333,-1.3824,-1.6914,-1.857,-1.8762,-1.8762,-1.8762,-1.8762,-1.8762,-1.8762,0.0,0.0,0.0,0.0,0.0,0.0,0.0,0.0,0.7502,0.0,0.0,0.0,0.0,0.0,0.0,0.0,0.0,0.0,0.0,0.0,0.0,0.0,0.0,0.0,0.0,0.0,0.0,0.0,0.0,0.0,0.0,0.0,0.0,0.0,0.0,0.0,0.0,0.0,0.0,0.0,0.0,0.0,0.0,0.0,0.0,0.0,0.0,0.0,0.0,0.0,0.0,0.0,0.0,0.0,0.0,0.0,0.0,0.0,0.0,0.0,0.0,0.0,0.0,0.0,0.0,0.0,0.0,0.0,0.0,0.0,0.0,0.0,0.0,0.0,0.0,0.0,0.0,0.0,0.0,0.0,0.0,-0.0232,-0.0697,-0.2576,-0.3772,-0.3772,-0.3772,-0.3772,-0.3772,-0.3772,-0.3772,-0.3772,-0.3772,-0.3772,-0.3772,-0.3772,-0.3772,-0.3772,-0.3772,-0.3772,-0.3772,-0.5182,-0.6582,-0.7952,-1.3139,-1.6914,-1.8762,-1.8762,-1.8762,-1.8762,-1.8762,-1.8762,1.0873,0.0,0.0,0.0,0.0,0.0,0.0,0.0,0.0,0.0,0.0,0.0,0.0,0.0,0.0,0.0,0.0,0.0,0.0,0.0,0.0,0.0,0.0,0.0,0.0,0.0,0.0,0.0,0.0,0.0,0.0,0.0,0.0,0.0,0.0,0.0,0.0,0.0,0.0,0.0,0.0,0.0,0.0,0.0,0.0,0.0,0.0,0.0,0.0,0.0,0.0,0.0,0.0,0.0,0.0,0.0,0.0,0.0,0.0,0.0,0.0,0.0,0.0,0.0,0.0,0.0,0.0,0.0,0.0,0.0,0.0,0.0,0.0,0.0,0.0,0.0,0.0,0.0,0.0,0.0,0.0,0.0,0.0,-0.163,-0.3053,-0.3757,-0.3764,-0.3772,-0.3772,-0.3772,-0.3772,-0.3772,-0.3772,-0.3772,-0.3772,-0.3772,-0.3772,-0.3772,-0.3772,-0.3772,-0.3772,-0.3772,-0.3761,-0.3744,-1.1265,-1.6454,-1.8762,-1.8762,-1.8762,-1.8762,-1.8762,-1.8762,0.0,0.0,0.0,1.077,0.0,0.0,0.0,0.0,1.0221,0.0,0.0,0.0,0.0,0.0,0.0,0.0,0.0,0.0,0.0,0.0,0.0,0.0,0.0,0.0,0.0,0.0,0.0,0.0,0.0,0.0,0.0,0.0,0.0,0.0,0.0,0.0,0.0,0.0,0.0,0.0,0.0,0.0,0.0,0.0,0.0,0.0,0.0,0.0,0.0,0.0,0.0,0.0,0.0,0.0,0.0,0.0,0.0,0.0,0.0,0.0,0.0,0.0,0.0,0.0,0.0,0.0,0.0,0.0,0.0,0.0,0.0,0.0,0.0,0.0,0.0,0.0,0.0,0.0,0.0,0.0,0.0,0.0,0.0,-0.0,-0.0931,-0.3493,-0.3754,-0.3772,-0.3772,-0.3772,-0.3772,-0.3772,-0.3772,-0.3772,-0.3772,-0.3772,-0.3772,-0.3772,-0.3772,-0.3772,-0.3772,-0.3772,-0.3761,-0.3744,-1.3635,-1.861,-1.8762,-1.8762,-1.8762,-1.8762,-1.8762,-1.8762,0.0,0.0,1.1558,1.0998,0.0,0.0,0.0,0.0,0.0,0.0,0.0,0.0,0.0,0.0,0.0,0.0,0.0,0.0,0.0,0.0,0.0,0.0,0.0,0.0,0.0,0.0,0.0,0.0,0.0,0.0,0.0,0.0,0.0,0.0,0.0,0.0,0.0,0.0,0.0,0.0,0.0,0.0,0.0,0.0,0.0,0.0,0.0,0.0,0.0,0.0,0.0,0.0,0.0,0.0,0.0,0.0,0.0,0.0,0.0,0.0,0.0,0.0,0.0,0.0,0.0,0.0,0.0,0.0,0.0,0.0,0.0,0.0,0.0,0.0,0.0,0.0,0.0,0.0,0.0,0.0,0.0,0.0,0.0,-0.1373,-0.2544,-0.2559,-0.3282,-0.3772,-0.3772,-0.3772,-0.3772,-0.3772,-0.3772,-0.3772,-0.3772,-0.3772,-0.3772,-0.3772,-0.3772,-0.3772,-0.3772,-0.3772,-0.3764,-0.3754,-1.365,-1.7664,-1.547,-1.782,-1.8762,-1.8762,-1.8762,-1.8762,1.1797,1.1846,0.0,1.1417,1.1471,0.0,1.1253,0.0,0.0,0.0,0.0,0.0,0.0,0.0,0.0,0.0,0.0,0.0,0.0,0.0,0.0,0.0,0.0,0.0,0.0,0.0,0.0,0.0,0.0,0.0,0.0,0.0,0.0,0.0,0.0,0.0,0.0,0.0,0.0,0.0,0.0,0.0,0.0,0.0,0.0,0.0,0.0,0.0,0.0,0.0,0.0,0.0,0.0,0.0,0.0,0.0,0.0,0.0,0.0,0.0,0.0,0.0,0.0,0.0,0.0,0.0,0.0,0.0,0.0,0.0,0.0,0.0,0.0,0.0,0.0,0.0,0.0,0.0,0.0,0.0,0.0,0.0,0.0,-0.1824,-0.2995,-0.255,-0.3276,-0.3772,-0.3772,-0.3772,-0.3772,-0.3772,-0.3772,-0.3772,-0.3772,-0.3772,-0.3772,-0.3772,-0.3772,-0.3772,-0.3772,-0.3772,-0.3761,-0.3739,-1.2452,-1.5976,-1.3759,-1.7092,-1.8762,-1.8762,-1.8762,-1.8762]}]]